[[{"header":{"parameterUnit":"m.s-1","parameterCategory":1,"la1":31.0,"la2":29.5877,"lo1":-88.7671,"lo2":-86.6584,"dy":0.0162,"dx":0.0185,"nx":115,"ny":88,"refTime":"2023-06-05T06:00:00:Z","depth":0,"parameterNumber":2,"parameterNumberName":"U-component_of_WINDS"},"data":[0.0,0.0,0.0,0.0,0.0,0.0,0.0,0.0,0.0,0.0,0.0,0.0,0.0,0.0,0.0,0.0,0.0,0.0,0.0,0.0,0.0,0.0,0.0,0.0,0.0,0.0,0.0,0.0,0.0,0.0,0.0,0.0,0.0,0.0,0.0,0.0,0.0,0.0,0.0,0.0,0.0,0.0,0.0,0.0,0.0,0.0,0.0,0.0,0.0,0.0,0.0,0.0,0.0,0.0,0.0,0.0,0.0,0.0,0.0,0.0,0.0,0.0,0.0,0.0,0.0,0.0,0.0,0.0,0.0,0.0,0.0,0.0,0.0,0.0,0.0,0.0,0.0,0.0,0.0,0.0,0.0,0.0,0.0,0.0,0.0,0.0,0.0,0.0,0.0,0.0,0.0,0.0,0.0,0.0,0.0,0.0,0.0,0.0,0.0,0.0,0.0,0.0,0.0,0.0,0.0,0.0,0.0,0.0,0.0,0.0,0.0,0.0,0.0,0.0,0.0,0.0,0.0,0.0,0.0,0.0,0.0,0.0,0.0,0.0,0.0,0.0,0.0,0.0,0.0,0.0,0.0,0.0,0.0,0.0,0.0,0.0,0.0,0.0,0.0,0.0,0.0,0.0,0.0,0.0,0.0,0.0,0.0,0.0,0.0,0.0,0.0,0.0,0.0,0.0,0.0,0.0,0.0,0.0,0.0,0.0,0.0,0.0,0.0,0.0,0.0,0.0,0.0,0.0,0.0,0.0,0.0,0.0,0.0,0.0,0.0,0.0,0.0,0.0,0.0,0.0,0.0,0.0,0.0,0.0,0.0,0.0,0.0,0.0,0.0,0.0,0.0,0.0,0.0,0.0,0.0,0.0,0.0,0.0,0.0,0.0,0.0,0.0,0.0,0.0,0.0,0.0,0.0,0.0,0.0,0.0,0.0,0.0,0.0,0.0,0.0,0.0,0.0,0.0,0.0,0.0,0.0,0.0,0.0,0.0,0.0,0.0,0.0,0.0,0.0,0.0,0.0,0.0,0.0,0.0,0.0,0.0,0.0,0.0,0.0,0.0,0.0,0.0,0.0,0.0,0.0,0.0,0.0,0.0,0.0,0.0,0.0,0.0,0.0,0.0,0.0,0.0,0.0,0.0,0.0,0.0,0.0,0.0,0.0,0.0,0.0,0.0,0.0,0.0,0.0,0.0,0.0,0.0,0.0,0.0,0.0,0.0,0.0,0.0,0.0,0.0,0.0,0.0,0.0,0.0,0.0,0.0,0.0,0.0,0.0,0.0,0.0,0.0,0.0,0.0,0.0,0.0,0.0,0.0,0.0,0.0,0.0,0.0,0.0,0.0,0.0,0.0,0.0,0.0,0.0,0.0,0.0,0.0,0.0,0.0,0.0,0.0,0.0,0.0,0.0,0.0,0.0,0.0,0.0,0.0,0.0,0.0,0.0,0.0,0.0,0.0,0.0,0.0,0.0,0.0,0.0,0.0,0.0,0.0,0.0,0.0,0.0,0.0,0.0,0.0,0.0,0.0,0.0,0.0,0.0,0.0,0.0,0.0,0.0,0.0,0.0,0.0,0.0,0.0,0.0,0.0,0.0,0.0,0.0,0.0,0.0,0.0,0.0,0.0,0.0,0.0,0.0,0.0,0.0,0.0,0.0,0.0,0.0,0.0,0.0,0.0,0.0,0.0,0.0,0.0,0.0,0.0,0.0,0.0,0.0,0.0,0.0,0.0,0.0,0.0,0.0,0.0,0.0,0.0,0.0,0.0,0.0,0.0,0.0,0.0,0.0,0.0,0.0,0.0,0.0,0.0,0.0,0.0,0.0,0.0,0.0,0.0,0.0,0.0,0.0,0.0,0.0,0.0,0.0,0.0,0.0,0.0,0.0,0.0,0.0,0.0,0.0,0.0,0.0,0.0,0.0,0.0,0.0,0.0,0.0,0.0,0.0,0.0,0.0,0.0,0.0,0.0,0.0,0.0,0.0,0.0,0.0,0.0,0.0,0.0,0.0,0.0,0.0,0.0,0.0,0.0,0.0,0.0,0.0,0.0,0.0,0.0,0.0,0.0,0.0,0.0,0.0,0.0,0.0,0.0,0.0,0.0,0.0,0.0,0.0,0.0,0.0,0.0,0.0,0.0,0.0,0.0,0.0,0.0,0.0,0.0,0.0,0.0,0.0,0.0,0.0,0.0,0.0,0.0,0.0,0.0,0.0,0.0,0.0,0.0,0.0,0.0,0.0,0.0,0.0,0.0,0.0,0.0,0.0,0.0,0.0,0.0,0.0,0.0,0.0,0.0,0.0,0.0,0.0,0.0,0.0,0.0,0.0,0.0,0.0,0.0,0.0,0.0,0.0,0.0,0.0,0.0,0.0,0.0,0.0,0.0,0.0,0.0,0.0,0.0,0.0,0.0,0.0,0.0,0.0,0.0,0.0,0.0,0.0,0.0,0.0,0.0,0.0,0.0,0.0,0.0,0.0,0.0,0.0,0.0,0.0,0.0,0.0,0.0,0.0,0.0,0.0,0.0,0.0,0.0,0.0,0.0,0.0,0.0,0.0,0.0,0.0,0.0,0.0,0.0,0.0,0.0,0.0,0.0,0.0,0.0,0.0,0.0,0.0,0.0,0.0,0.0,0.0,0.0,0.0,0.0,0.0,0.0,0.0,0.0,0.0,0.0,0.0,0.0,0.0,0.0,0.0,0.0,0.0,0.0,0.0,0.0,0.0,0.0,0.0,0.0,0.0,0.0,0.0,0.0,0.0,0.0,0.0,0.0,0.0,0.0,0.0,0.0,0.0,0.0,0.0,0.0,0.0,0.0,0.0,0.0,0.0,0.0,0.0,0.0,0.0,0.0,0.0,0.0,0.0,0.0,0.0,0.0,0.0,0.0,0.0,0.0,0.0,0.0,0.0,0.0,0.0,0.0,0.0,0.0,0.0,0.0,0.0,0.0,0.0,0.0,0.0,0.0,0.0,0.0,0.0,0.0,0.0,0.0,0.0,0.0,0.0,0.0,0.0,0.0,0.0,0.0,0.0,0.0,0.0,0.0,0.0,0.0,0.0,0.0,0.0,0.0,0.0,0.0,0.0,0.0,0.0,0.0,0.0,0.0,0.0,0.0,0.0,0.0,0.0,0.0,0.0,0.0,0.0,0.0,0.0,0.0,0.0,0.0,0.0,0.0,0.0,0.0,0.0,0.0,0.0,0.0,0.0,0.0,0.0,0.0,0.0,0.0,0.0,0.0,0.0,0.0,0.0,0.0,0.0,0.0,0.0,0.0,0.0,0.0,0.0,0.0,0.0,0.0,0.0,0.0,0.0,0.0,0.0,0.0,0.0,0.0,0.0,0.0,0.0,0.0,0.0,0.0,0.0,0.0,0.0,0.0,0.0,0.0,0.0,0.0,0.0,0.0,0.0,0.0,0.0,0.0,0.0,0.0,0.0,0.0,0.0,0.0,0.0,0.0,0.0,0.0,0.0,0.0,0.0,0.0,0.0,0.0,0.0,0.0,0.0,0.0,0.0,0.0,0.0,0.0,0.0,0.0,0.0,0.0,0.0,0.0,0.0,0.0,0.0,0.0,0.0,0.0,0.0,0.0,0.0,0.0,0.0,0.0,0.0,0.0,0.0,0.0,0.0,0.0,0.0,0.0,0.0,0.0,0.0,0.0,0.0,0.0,0.0,0.0,0.0,0.0,0.0,0.0,0.0,0.0,0.0,0.0,0.0,0.0,0.0,0.0,0.0,0.0,0.0,0.0,0.0,0.0,0.0,0.0,0.0,0.0,0.0,0.0,0.0,0.0,0.0,0.0,0.0,0.0,0.0,0.0,0.0,0.0,0.0,0.0,0.0,0.0,0.0,0.0,0.0,0.0,0.0,0.0,0.0,0.0,0.0,0.0,0.0,0.0,0.0,0.0,0.0,0.0,0.0,0.0,0.0,0.0,0.0,0.0,0.0,0.0,0.0,0.0,0.0,0.0,0.0,0.0,0.0,0.0,0.0,0.0,0.0,0.0,0.0,0.0,0.0,0.0,0.0,0.0,0.0,0.0,0.0,0.0,0.0,0.0,0.0,0.0,0.0,0.0,0.0,0.0,0.0,0.0,0.0,0.0,0.0,0.0,0.0,0.0,0.0,0.0,0.0,0.0,0.0,0.0,0.0,0.0,0.0,0.0,0.0,0.0,0.0,0.0,0.0,0.0,0.0,0.0,0.0,0.0,0.0,0.0,0.0,0.0,0.0,0.0,0.0,0.0,0.0,0.0,0.0,0.0,-1.4706,0.0,0.0,0.0,0.0,0.0,0.0,0.0,0.0,0.0,0.0,0.0,0.0,0.0,0.0,0.0,0.0,0.0,0.0,0.0,0.0,0.0,0.0,0.0,0.0,0.0,0.0,0.0,0.0,0.0,0.0,0.0,0.0,0.0,0.0,0.0,0.0,0.0,0.0,0.0,0.0,0.0,0.0,0.0,0.0,0.0,0.0,0.0,0.0,0.0,0.0,0.0,0.0,0.0,0.0,0.0,0.0,0.0,0.0,0.0,0.0,0.0,0.0,0.0,0.0,0.0,0.0,0.0,0.0,0.0,0.0,0.0,0.0,0.0,0.0,0.0,0.0,0.0,0.0,0.0,0.0,0.0,0.0,0.0,0.0,0.0,0.0,0.0,0.0,0.0,0.0,0.0,0.0,0.0,0.0,0.0,0.0,0.0,0.0,0.0,0.0,0.0,0.0,0.0,0.0,0.0,0.0,0.0,0.0,0.0,0.0,-1.4706,-1.4706,-1.4706,-1.4717,-1.4714,0.0,0.0,0.0,0.0,0.0,0.0,0.0,0.0,0.0,0.0,0.0,0.0,0.0,0.0,0.0,0.0,0.0,0.0,0.0,0.0,0.0,0.0,0.0,0.0,0.0,0.0,0.0,0.0,0.0,0.0,0.0,0.0,0.0,0.0,0.0,0.0,0.0,0.0,0.0,0.0,0.0,0.0,0.0,0.0,0.0,0.0,0.0,0.0,0.0,0.0,0.0,0.0,0.0,0.0,0.0,0.0,0.0,0.0,0.0,0.0,0.0,0.0,0.0,0.0,0.0,0.0,0.0,0.0,0.0,0.0,0.0,0.0,0.0,0.0,0.0,0.0,0.0,0.0,0.0,0.0,0.0,0.0,0.0,0.0,0.0,0.0,0.0,0.0,0.0,0.0,0.0,0.0,0.0,0.0,0.0,0.0,0.0,0.0,0.0,0.0,0.0,0.0,0.0,0.0,0.0,0.0,0.0,0.0,0.0,0.0,0.0,0.0,-1.4712,-1.4719,-1.4712,0.0,0.0,0.0,0.0,0.0,0.0,0.0,0.0,0.0,0.0,0.0,0.0,0.0,0.0,0.0,0.0,0.0,0.0,0.0,0.0,0.0,0.0,0.0,0.0,0.0,0.0,0.0,0.0,0.0,0.0,0.0,0.0,0.0,0.0,0.0,0.0,0.0,0.0,0.0,0.0,0.0,0.0,0.0,0.0,0.0,0.0,0.0,0.0,0.0,0.0,0.0,0.0,0.0,0.0,0.0,0.0,0.0,0.0,0.0,0.0,0.0,0.0,0.0,0.0,0.0,0.0,0.0,0.0,0.0,0.0,0.0,0.0,0.0,0.0,0.0,0.0,0.0,0.0,0.0,0.0,0.0,0.0,0.0,0.0,0.0,0.0,0.0,0.0,0.0,0.0,0.0,0.0,0.0,0.0,0.0,0.0,0.0,0.0,0.0,0.0,0.0,0.0,0.0,0.0,0.0,0.0,0.0,0.0,0.0,0.0,-1.4706,-1.4706,-1.47,0.0,-1.4793,0.0,0.0,0.0,0.0,0.0,0.0,0.0,0.0,0.0,0.0,0.0,0.0,0.0,0.0,0.0,0.0,0.0,0.0,0.0,0.0,0.0,0.0,0.0,0.0,0.0,0.0,0.0,0.0,0.0,0.0,0.0,0.0,0.0,0.0,0.0,0.0,0.0,0.0,0.0,0.0,0.0,0.0,0.0,0.0,0.0,0.0,0.0,0.0,0.0,0.0,0.0,0.0,0.0,0.0,0.0,0.0,0.0,0.0,0.0,0.0,0.0,0.0,0.0,0.0,0.0,0.0,0.0,0.0,0.0,0.0,0.0,0.0,0.0,0.0,0.0,0.0,0.0,0.0,0.0,0.0,0.0,0.0,0.0,0.0,0.0,0.0,0.0,0.0,0.0,0.0,0.0,0.0,0.0,0.0,0.0,0.0,0.0,0.0,0.0,0.0,0.0,0.0,0.0,0.0,0.0,0.0,0.0,0.0,0.0,0.0,-1.4705,-1.47,-1.4746,-1.477,0.0,0.0,0.0,0.0,0.0,0.0,0.0,0.0,0.0,0.0,0.0,0.0,0.0,0.0,0.0,0.0,0.0,0.0,0.0,0.0,0.0,0.0,0.0,0.0,0.0,0.0,0.0,0.0,0.0,0.0,0.0,0.0,0.0,0.0,0.0,0.0,0.0,0.0,0.0,0.0,0.0,0.0,0.0,0.0,0.0,0.0,0.0,0.0,0.0,0.0,0.0,0.0,0.0,0.0,0.0,0.0,0.0,0.0,0.0,0.0,0.0,0.0,0.0,0.0,0.0,0.0,0.0,0.0,0.0,0.0,0.0,0.0,0.0,0.0,0.0,0.0,0.0,0.0,0.0,0.0,0.0,0.0,0.0,0.0,0.0,0.0,0.0,0.0,0.0,0.0,0.0,0.0,0.0,0.0,0.0,0.0,0.0,0.0,0.0,0.0,0.0,0.0,0.0,0.0,0.0,0.0,0.0,0.0,0.0,0.0,-1.471,-1.4712,-1.4746,-1.478,-1.4799,-1.4832,0.0,0.0,0.0,0.0,0.0,0.0,0.0,0.0,0.0,0.0,0.0,0.0,0.0,0.0,0.0,0.0,0.0,0.0,0.0,0.0,0.0,0.0,0.0,0.0,0.0,0.0,0.0,0.0,0.0,0.0,0.0,0.0,0.0,0.0,0.0,0.0,0.0,0.0,0.0,0.0,0.0,0.0,0.0,0.0,0.0,0.0,0.0,0.0,0.0,0.0,0.0,0.0,0.0,0.0,0.0,0.0,0.0,0.0,0.0,0.0,0.0,0.0,0.0,0.0,0.0,0.0,0.0,0.0,0.0,0.0,0.0,0.0,0.0,0.0,0.0,0.0,0.0,0.0,0.0,0.0,0.0,0.0,0.0,0.0,0.0,0.0,0.0,0.0,0.0,0.0,0.0,0.0,0.0,0.0,0.0,0.0,0.0,0.0,0.0,0.0,0.0,0.0,0.0,0.0,0.0,0.0,0.0,0.0,0.0,-1.4707,-1.4732,-1.4803,-1.4809,-1.4837,0.0,0.0,0.0,0.0,0.0,0.0,0.0,0.0,0.0,0.0,0.0,0.0,0.0,0.0,0.0,0.0,0.0,0.0,0.0,0.0,0.0,0.0,0.0,0.0,0.0,0.0,0.0,0.0,0.0,0.0,0.0,0.0,0.0,0.0,0.0,0.0,0.0,0.0,0.0,0.0,0.0,0.0,0.0,0.0,0.0,0.0,0.0,0.0,0.0,0.0,0.0,0.0,0.0,0.0,0.0,0.0,0.0,0.0,0.0,0.0,0.0,0.0,0.0,0.0,0.0,0.0,0.0,0.0,0.0,0.0,0.0,0.0,0.0,0.0,0.0,0.0,0.0,0.0,0.0,0.0,0.0,0.0,0.0,0.0,0.0,0.0,0.0,0.0,0.0,0.0,0.0,0.0,0.0,0.0,0.0,0.0,0.0,0.0,0.0,0.0,0.0,0.0,0.0,0.0,0.0,0.0,0.0,0.0,0.0,-1.4707,-1.4747,-1.4785,-1.4865,-1.4864,-1.4867,0.0,0.0,0.0,0.0,0.0,0.0,0.0,0.0,0.0,0.0,0.0,0.0,0.0,0.0,0.0,0.0,0.0,0.0,0.0,0.0,0.0,0.0,0.0,0.0,0.0,0.0,0.0,0.0,0.0,0.0,0.0,0.0,0.0,0.0,0.0,0.0,0.0,0.0,0.0,0.0,0.0,0.0,0.0,0.0,0.0,0.0,0.0,0.0,0.0,0.0,0.0,0.0,0.0,0.0,0.0,0.0,0.0,0.0,0.0,0.0,0.0,0.0,0.0,0.0,0.0,0.0,0.0,0.0,0.0,0.0,0.0,0.0,0.0,0.0,0.0,0.0,0.0,0.0,0.0,0.0,0.0,0.0,0.0,0.0,0.0,0.0,0.0,0.0,0.0,0.0,0.0,0.0,0.0,0.0,0.0,0.0,0.0,0.0,0.0,0.0,0.0,0.0,0.0,0.0,0.0,0.0,0.0,0.0,0.0,-1.4746,0.0,-1.4874,0.0,-1.4917,-1.4915,0.0,0.0,0.0,0.0,0.0,0.0,0.0,0.0,0.0,0.0,0.0,0.0,0.0,0.0,0.0,0.0,0.0,0.0,0.0,0.0,0.0,0.0,0.0,0.0,0.0,0.0,0.0,0.0,0.0,0.0,0.0,0.0,0.0,0.0,0.0,0.0,0.0,0.0,0.0,0.0,0.0,0.0,0.0,0.0,0.0,0.0,0.0,0.0,0.0,0.0,0.0,0.0,0.0,0.0,0.0,0.0,0.0,0.0,0.0,0.0,0.0,0.0,0.0,0.0,0.0,0.0,0.0,0.0,0.0,0.0,0.0,0.0,0.0,0.0,0.0,0.0,0.0,0.0,0.0,0.0,0.0,0.0,0.0,0.0,0.0,0.0,0.0,0.0,0.0,0.0,0.0,0.0,0.0,0.0,0.0,0.0,0.0,0.0,0.0,0.0,0.0,0.0,0.0,0.0,0.0,0.0,0.0,0.0,-1.4746,-1.4808,-1.4869,-1.4901,-1.4904,-1.4955,-1.5006,0.0,0.0,0.0,0.0,0.0,0.0,0.0,0.0,0.0,0.0,0.0,0.0,0.0,0.0,0.0,0.0,0.0,0.0,0.0,0.0,0.0,0.0,0.0,0.0,0.0,0.0,0.0,0.0,0.0,0.0,0.0,0.0,0.0,0.0,0.0,0.0,0.0,0.0,0.0,0.0,0.0,0.0,0.0,0.0,0.0,0.0,0.0,0.0,0.0,0.0,0.0,0.0,0.0,0.0,0.0,0.0,0.0,0.0,0.0,0.0,0.0,0.0,0.0,0.0,0.0,0.0,0.0,0.0,0.0,0.0,0.0,0.0,0.0,0.0,0.0,0.0,0.0,0.0,0.0,0.0,0.0,0.0,0.0,0.0,0.0,0.0,0.0,0.0,0.0,0.0,0.0,0.0,0.0,0.0,0.0,0.0,0.0,0.0,0.0,0.0,0.0,0.0,0.0,0.0,0.0,0.0,0.0,0.0,0.0,-1.4893,-1.4901,-1.4917,-1.4959,-1.4995,-1.5011,0.0,0.0,0.0,0.0,0.0,0.0,0.0,0.0,0.0,0.0,0.0,0.0,0.0,0.0,0.0,0.0,0.0,0.0,0.0,0.0,0.0,0.0,0.0,0.0,0.0,0.0,0.0,0.0,0.0,0.0,0.0,0.0,0.0,0.0,0.0,0.0,0.0,0.0,0.0,0.0,0.0,0.0,0.0,0.0,0.0,0.0,0.0,0.0,0.0,0.0,0.0,0.0,0.0,0.0,0.0,0.0,0.0,0.0,0.0,0.0,0.0,0.0,0.0,0.0,0.0,0.0,0.0,0.0,0.0,0.0,0.0,0.0,0.0,0.0,0.0,0.0,0.0,0.0,0.0,0.0,0.0,0.0,0.0,0.0,0.0,0.0,0.0,0.0,0.0,0.0,0.0,0.0,0.0,0.0,0.0,0.0,0.0,0.0,0.0,0.0,0.0,0.0,0.0,0.0,0.0,0.0,0.0,0.0,0.0,-1.5843,-1.5833,-1.585,-1.5921,-1.5639,-1.5506,-1.5581,0.0,0.0,0.0,0.0,0.0,0.0,0.0,0.0,0.0,0.0,0.0,0.0,0.0,0.0,0.0,0.0,0.0,0.0,0.0,0.0,0.0,0.0,0.0,0.0,0.0,0.0,0.0,0.0,0.0,0.0,0.0,0.0,0.0,0.0,0.0,0.0,0.0,0.0,0.0,0.0,0.0,0.0,0.0,0.0,0.0,0.0,0.0,0.0,0.0,0.0,0.0,0.0,0.0,0.0,0.0,0.0,0.0,0.0,0.0,0.0,0.0,0.0,0.0,0.0,0.0,0.0,0.0,0.0,0.0,0.0,0.0,0.0,0.0,0.0,0.0,0.0,0.0,0.0,0.0,0.0,0.0,0.0,0.0,0.0,0.0,0.0,0.0,0.0,0.0,0.0,0.0,0.0,0.0,0.0,0.0,0.0,0.0,0.0,0.0,0.0,0.0,0.0,0.0,0.0,0.0,0.0,0.0,0.0,-1.7446,-1.7514,-1.7501,-1.7453,-1.6757,-1.638,0.0,0.0,0.0,0.0,0.0,0.0,0.0,0.0,0.0,0.0,0.0,0.0,0.0,0.0,0.0,0.0,0.0,0.0,0.0,0.0,0.0,0.0,0.0,0.0,0.0,0.0,0.0,0.0,0.0,0.0,0.0,0.0,0.0,0.0,0.0,0.0,0.0,0.0,0.0,0.0,0.0,0.0,0.0,0.0,0.0,0.0,0.0,0.0,0.0,0.0,0.0,0.0,0.0,0.0,0.0,0.0,0.0,0.0,0.0,0.0,0.0,0.0,0.0,0.0,0.0,0.0,0.0,0.0,0.0,0.0,0.0,0.0,0.0,0.0,0.0,0.0,0.0,0.0,0.0,0.0,0.0,0.0,0.0,0.0,0.0,0.0,0.0,0.0,0.0,0.0,0.0,0.0,0.0,0.0,0.0,0.0,0.0,0.0,0.0,0.0,0.0,0.0,0.0,0.0,0.0,0.0,0.0,0.0,0.0,-1.833,-1.8985,-1.874,-1.7542,-1.7335,-1.698,0.0,0.0,0.0,0.0,0.0,0.0,0.0,0.0,0.0,0.0,0.0,0.0,0.0,0.0,0.0,0.0,0.0,0.0,0.0,0.0,0.0,0.0,0.0,0.0,0.0,0.0,0.0,0.0,0.0,0.0,0.0,0.0,0.0,0.0,0.0,0.0,0.0,0.0,0.0,0.0,0.0,0.0,0.0,0.0,0.0,0.0,0.0,0.0,0.0,0.0,0.0,0.0,0.0,0.0,0.0,0.0,0.0,0.0,0.0,0.0,0.0,0.0,0.0,0.0,0.0,0.0,0.0,0.0,0.0,0.0,0.0,0.0,0.0,0.0,0.0,0.0,0.0,0.0,0.0,0.0,0.0,0.0,0.0,0.0,0.0,0.0,0.0,0.0,0.0,0.0,0.0,0.0,0.0,0.0,0.0,0.0,0.0,0.0,0.0,0.0,0.0,0.0,0.0,0.0,0.0,0.0,0.0,0.0,-1.8175,-1.9706,-2.028,-2.0087,-1.9168,-1.851,-1.7769,0.0,0.0,0.0,0.0,0.0,0.0,0.0,0.0,0.0,0.0,0.0,0.0,0.0,0.0,0.0,0.0,0.0,0.0,0.0,0.0,0.0,0.0,0.0,0.0,0.0,0.0,0.0,0.0,0.0,0.0,0.0,0.0,0.0,0.0,0.0,0.0,0.0,0.0,0.0,0.0,0.0,0.0,0.0,0.0,0.0,0.0,0.0,0.0,0.0,0.0,0.0,0.0,0.0,0.0,0.0,0.0,0.0,0.0,0.0,0.0,0.0,0.0,0.0,0.0,0.0,0.0,0.0,0.0,0.0,0.0,0.0,0.0,0.0,0.0,0.0,0.0,0.0,0.0,0.0,0.0,0.0,0.0,0.0,0.0,0.0,0.0,0.0,0.0,0.0,0.0,0.0,0.0,0.0,0.0,0.0,0.0,0.0,0.0,0.0,0.0,0.0,0.0,0.0,0.0,0.0,0.0,0.0,0.0,-1.8598,-2.1007,-2.1135,-2.121,-2.1249,-1.9903,-1.869,0.0,0.0,0.0,0.0,0.0,0.0,0.0,0.0,0.0,0.0,0.0,0.0,0.0,0.0,0.0,0.0,0.0,0.0,0.0,0.0,0.0,0.0,0.0,0.0,0.0,0.0,0.0,0.0,0.0,0.0,0.0,0.0,0.0,0.0,0.0,0.0,0.0,0.0,0.0,0.0,0.0,0.0,0.0,0.0,0.0,0.0,0.0,0.0,0.0,0.0,0.0,0.0,0.0,0.0,0.0,0.0,0.0,0.0,0.0,0.0,0.0,0.0,0.0,0.0,0.0,0.0,0.0,0.0,0.0,0.0,0.0,0.0,0.0,0.0,0.0,0.0,0.0,0.0,0.0,0.0,0.0,0.0,0.0,0.0,0.0,0.0,0.0,0.0,0.0,0.0,0.0,0.0,0.0,0.0,0.0,0.0,0.0,0.0,0.0,0.0,0.0,0.0,0.0,0.0,0.0,0.0,0.0,0.0,-1.8412,-2.0259,-2.0351,-2.0412,-2.0529,-2.0811,-1.9919,0.0,0.0,0.0,0.0,0.0,0.0,0.0,0.0,0.0,0.0,0.0,0.0,0.0,0.0,0.0,0.0,0.0,0.0,0.0,0.0,0.0,0.0,0.0,0.0,0.0,0.0,0.0,0.0,0.0,0.0,0.0,0.0,0.0,0.0,0.0,0.0,0.0,0.0,0.0,0.0,0.0,0.0,0.0,0.0,0.0,0.0,0.0,0.0,-1.1478,0.0,0.0,0.0,0.0,0.0,0.0,0.0,0.0,0.0,0.0,0.0,0.0,0.0,0.0,0.0,0.0,0.0,0.0,0.0,0.0,0.0,0.0,0.0,0.0,0.0,0.0,0.0,0.0,0.0,0.0,0.0,0.0,0.0,0.0,0.0,0.0,0.0,0.0,0.0,0.0,0.0,0.0,0.0,0.0,0.0,0.0,0.0,0.0,0.0,0.0,0.0,0.0,0.0,0.0,0.0,0.0,0.0,0.0,0.0,-1.8555,-2.0613,-2.0728,-2.0802,-2.0885,-2.1321,-2.0334,0.0,0.0,0.0,0.0,0.0,0.0,0.0,0.0,0.0,0.0,0.0,0.0,0.0,0.0,0.0,0.0,0.0,0.0,0.0,0.0,0.0,0.0,0.0,0.0,0.0,0.0,0.0,0.0,0.0,0.0,0.0,0.0,0.0,0.0,0.0,0.0,0.0,0.0,0.0,0.0,0.0,0.0,0.0,0.0,0.0,0.0,0.0,0.0,0.0,0.0,0.0,0.0,0.0,0.0,0.0,0.0,0.0,0.0,0.0,0.0,0.0,0.0,0.0,0.0,0.0,0.0,0.0,0.0,0.0,0.0,0.0,0.0,0.0,0.0,0.0,0.0,0.0,0.0,0.0,0.0,0.0,0.0,0.0,0.0,0.0,0.0,0.0,0.0,0.0,0.0,0.0,0.0,0.0,0.0,0.0,0.0,0.0,0.0,0.0,0.0,0.0,0.0,0.0,0.0,0.0,0.0,0.0,-1.752,-1.8716,-2.1091,-2.1277,-2.1325,-2.1328,-2.1258,-2.0144,-1.7932,0.0,0.0,0.0,0.0,0.0,0.0,0.0,0.0,0.0,0.0,0.0,0.0,0.0,0.0,0.0,0.0,0.0,0.0,0.0,0.0,0.0,0.0,0.0,0.0,0.0,0.0,0.0,0.0,0.0,0.0,0.0,0.0,0.0,0.0,0.0,0.0,0.0,0.0,-0.9394,-1.0099,0.0,0.0,0.0,0.0,0.0,0.0,0.0,0.0,-1.3654,0.0,0.0,0.0,0.0,0.0,0.0,0.0,0.0,0.0,0.0,0.0,0.0,0.0,0.0,0.0,0.0,0.0,0.0,0.0,0.0,0.0,0.0,0.0,0.0,0.0,0.0,0.0,0.0,0.0,0.0,0.0,0.0,0.0,0.0,0.0,0.0,0.0,0.0,0.0,0.0,0.0,0.0,0.0,0.0,0.0,0.0,0.0,0.0,0.0,0.0,0.0,0.0,0.0,0.0,0.0,0.0,-1.7468,-1.7555,-1.8493,-2.0333,-2.0452,-2.0527,-2.0553,-1.987,-1.8996,-1.7978,0.0,0.0,0.0,0.0,0.0,0.0,0.0,0.0,0.0,0.0,0.0,0.0,0.0,0.0,0.0,0.0,0.0,0.0,0.0,0.0,0.0,0.0,0.0,0.0,0.0,0.0,0.0,0.0,0.0,0.0,0.0,0.0,0.0,0.0,0.0,0.0,0.0,0.0,0.0,-1.0099,-1.0836,0.0,0.0,0.0,0.0,0.0,0.0,0.0,0.0,-1.4046,0.0,0.0,0.0,0.0,0.0,0.0,0.0,0.0,0.0,0.0,0.0,0.0,0.0,0.0,0.0,0.0,0.0,0.0,0.0,0.0,0.0,0.0,0.0,0.0,0.0,0.0,0.0,0.0,0.0,0.0,0.0,0.0,0.0,0.0,0.0,0.0,0.0,0.0,0.0,0.0,0.0,0.0,0.0,0.0,0.0,0.0,0.0,0.0,0.0,0.0,0.0,0.0,0.0,0.0,0.0,-1.6834,-1.7341,-1.8029,-1.8889,-1.9369,-1.9435,-1.9067,-1.8678,-1.8091,0.0,0.0,0.0,0.0,0.0,0.0,0.0,0.0,0.0,0.0,0.0,0.0,0.0,0.0,0.0,0.0,0.0,0.0,0.0,0.0,0.0,0.0,0.0,0.0,0.0,0.0,0.0,0.0,0.0,0.0,0.0,0.0,0.0,0.0,0.0,0.0,0.0,0.0,0.0,0.0,-1.1271,-1.1913,-1.2264,0.0,0.0,0.0,0.0,0.0,0.0,-1.4096,-1.4096,0.0,0.0,0.0,0.0,0.0,0.0,0.0,0.0,0.0,0.0,0.0,0.0,0.0,0.0,0.0,0.0,0.0,0.0,0.0,0.0,0.0,0.0,0.0,0.0,0.0,0.0,0.0,0.0,0.0,0.0,0.0,0.0,0.0,0.0,0.0,0.0,0.0,0.0,0.0,0.0,0.0,0.0,0.0,0.0,0.0,0.0,0.0,0.0,0.0,0.0,0.0,0.0,0.0,0.0,0.0,-1.6284,-1.7007,-1.7493,-1.7731,-1.8403,-1.8461,-1.7843,-1.7692,-1.7316,0.0,0.0,0.0,0.0,0.0,0.0,0.0,0.0,0.0,0.0,0.0,0.0,0.0,0.0,0.0,0.0,0.0,0.0,0.0,0.0,0.0,0.0,0.0,0.0,0.0,0.0,0.0,0.0,0.0,0.0,0.0,0.0,0.0,0.0,0.0,0.0,0.0,0.0,0.0,0.0,0.0,-1.2905,-1.2917,-1.3583,0.0,0.0,0.0,0.0,-1.4096,-1.4096,0.0,0.0,0.0,0.0,0.0,0.0,0.0,0.0,0.0,0.0,0.0,0.0,0.0,0.0,0.0,0.0,0.0,0.0,0.0,0.0,0.0,0.0,0.0,0.0,0.0,0.0,0.0,0.0,0.0,0.0,0.0,0.0,0.0,0.0,0.0,0.0,0.0,0.0,0.0,0.0,0.0,0.0,0.0,0.0,0.0,0.0,0.0,0.0,0.0,0.0,0.0,0.0,0.0,0.0,0.0,0.0,-1.6269,-1.6456,-1.6957,-1.7729,-1.7904,-1.7923,-1.7878,-1.7148,-1.671,0.0,0.0,0.0,0.0,0.0,0.0,0.0,0.0,0.0,0.0,0.0,0.0,0.0,0.0,0.0,0.0,0.0,0.0,0.0,0.0,0.0,0.0,0.0,0.0,0.0,0.0,0.0,0.0,0.0,0.0,0.0,0.0,0.0,0.0,0.0,0.0,0.0,0.0,0.0,0.0,0.0,-1.2973,-1.2905,-1.3627,-1.4159,0.0,0.0,0.0,-1.4096,-1.4096,0.0,0.0,0.0,0.0,0.0,0.0,0.0,0.0,0.0,0.0,0.0,0.0,0.0,0.0,0.0,0.0,0.0,0.0,0.0,0.0,0.0,0.0,0.0,0.0,0.0,0.0,0.0,0.0,0.0,0.0,0.0,0.0,0.0,0.0,0.0,0.0,0.0,0.0,0.0,0.0,0.0,0.0,0.0,0.0,0.0,0.0,0.0,0.0,0.0,0.0,0.0,0.0,0.0,0.0,0.0,-1.5232,-1.5631,-1.6166,-1.6413,-1.6403,-1.686,-1.6893,-1.6441,-1.6054,-1.5887,0.0,0.0,0.0,0.0,0.0,0.0,0.0,0.0,0.0,0.0,0.0,0.0,0.0,0.0,0.0,0.0,0.0,0.0,0.0,0.0,0.0,0.0,0.0,0.0,0.0,0.0,0.0,0.0,0.0,0.0,0.0,0.0,0.0,0.0,0.0,0.0,0.0,0.0,0.0,0.0,0.0,0.0,-1.3637,-1.3955,0.0,0.0,0.0,-1.4127,-1.4096,0.0,0.0,0.0,0.0,0.0,0.0,0.0,0.0,0.0,0.0,0.0,0.0,0.0,0.0,0.0,0.0,0.0,0.0,0.0,0.0,0.0,0.0,0.0,0.0,0.0,0.0,0.0,0.0,0.0,0.0,0.0,0.0,0.0,0.0,0.0,0.0,0.0,0.0,0.0,0.0,0.0,0.0,0.0,0.0,0.0,0.0,0.0,0.0,0.0,0.0,0.0,0.0,0.0,0.0,0.0,0.0,0.0,-1.5445,-1.5911,-1.5904,-1.5345,-1.5934,-1.5961,-1.5347,-1.5313,0.0,0.0,0.0,0.0,0.0,0.0,0.0,0.0,0.0,0.0,0.0,0.0,0.0,0.0,0.0,0.0,0.0,0.0,0.0,0.0,0.0,0.0,0.0,0.0,0.0,0.0,0.0,-0.9739,0.0,0.0,0.0,0.0,0.0,0.0,0.0,0.0,0.0,0.0,0.0,0.0,0.0,0.0,-1.4229,-1.4223,-1.4229,-1.4216,0.0,0.0,-1.4452,-1.4424,-1.4553,-1.4881,0.0,0.0,0.0,0.0,0.0,0.0,0.0,0.0,0.0,0.0,0.0,0.0,0.0,0.0,0.0,0.0,0.0,0.0,0.0,0.0,0.0,0.0,0.0,0.0,0.0,0.0,0.0,0.0,0.0,0.0,0.0,0.0,0.0,0.0,0.0,0.0,0.0,0.0,0.0,0.0,0.0,0.0,0.0,0.0,0.0,0.0,0.0,0.0,0.0,0.0,0.0,0.0,0.0,0.0,0.0,-1.6293,-1.563,-1.5313,-1.5298,-1.5348,-1.5405,-1.5375,-1.5387,-1.5368,0.0,0.0,0.0,0.0,0.0,0.0,0.0,0.0,0.0,0.0,0.0,0.0,0.0,0.0,0.0,0.0,0.0,0.0,0.0,0.0,0.0,0.0,0.0,0.0,0.0,0.0,0.0,0.0,0.0,0.0,0.0,0.0,0.0,0.0,0.0,0.0,0.0,0.0,0.0,0.0,0.0,-1.4287,-1.4298,-1.4299,-1.4268,0.0,0.0,-1.5228,-1.5221,-1.5796,-1.6255,-1.6308,0.0,0.0,0.0,0.0,0.0,0.0,0.0,0.0,0.0,0.0,0.0,0.0,0.0,0.0,0.0,0.0,0.0,0.0,0.0,0.0,0.0,0.0,0.0,0.0,0.0,0.0,0.0,0.0,0.0,0.0,0.0,0.0,0.0,0.0,0.0,0.0,0.0,0.0,0.0,0.0,0.0,0.0,0.0,0.0,0.0,0.0,0.0,0.0,0.0,0.0,0.0,0.0,0.0,-1.6364,-1.6384,-1.5642,-1.5268,-1.53,-1.5294,-1.5315,-1.5407,-1.4883,-1.4844,0.0,0.0,0.0,0.0,0.0,0.0,0.0,0.0,0.0,0.0,0.0,0.0,0.0,0.0,0.0,0.0,0.0,0.0,0.0,0.0,0.0,0.0,0.0,0.0,0.0,0.0,0.0,0.0,-1.1586,-1.2026,-1.2712,0.0,0.0,0.0,0.0,0.0,0.0,0.0,0.0,0.0,0.0,-1.583,-1.5842,-1.5839,0.0,0.0,-1.5937,-1.6101,-1.6094,-1.6299,-1.6626,-1.7117,-1.7422,0.0,0.0,0.0,0.0,0.0,0.0,0.0,0.0,0.0,0.0,0.0,0.0,0.0,0.0,0.0,0.0,0.0,0.0,0.0,0.0,0.0,0.0,0.0,0.0,0.0,0.0,0.0,0.0,0.0,0.0,0.0,0.0,0.0,0.0,0.0,0.0,0.0,0.0,0.0,0.0,0.0,0.0,0.0,0.0,0.0,0.0,0.0,0.0,0.0,0.0,0.0,0.0,-1.7037,-1.6772,-1.6044,-1.5548,-1.5283,-1.532,-1.5342,-1.5393,-1.4809,-1.4773,0.0,0.0,0.0,0.0,0.0,0.0,0.0,0.0,0.0,0.0,0.0,0.0,0.0,0.0,0.0,0.0,0.0,0.0,0.0,0.0,0.0,0.0,0.0,0.0,0.0,0.0,0.0,0.0,-1.2487,-1.2942,-1.3864,0.0,0.0,0.0,0.0,0.0,0.0,0.0,0.0,0.0,0.0,-1.6838,-1.6831,-1.6833,-1.6816,-1.6733,-1.6888,-1.6988,-1.6975,-1.7108,-1.7408,-1.7964,0.0,0.0,0.0,0.0,0.0,0.0,0.0,0.0,0.0,0.0,0.0,0.0,0.0,0.0,0.0,0.0,0.0,0.0,0.0,0.0,0.0,0.0,0.0,0.0,0.0,0.0,0.0,0.0,0.0,0.0,0.0,0.0,0.0,0.0,0.0,0.0,0.0,0.0,0.0,0.0,0.0,0.0,0.0,0.0,0.0,0.0,0.0,0.0,0.0,0.0,0.0,0.0,0.0,0.0,-1.7658,-1.6852,-1.6077,-1.5332,-1.5355,-1.5413,-1.5416,-1.5365,-1.5368,-1.5383,0.0,0.0,0.0,0.0,0.0,0.0,0.0,0.0,0.0,0.0,0.0,0.0,0.0,0.0,0.0,0.0,0.0,0.0,0.0,0.0,0.0,0.0,0.0,0.0,0.0,0.0,-1.2467,-1.2991,-1.4016,0.0,0.0,0.0,0.0,0.0,0.0,0.0,0.0,0.0,0.0,-1.6981,-1.6994,-1.6948,-1.6935,-1.6968,-1.6874,-1.7441,-1.7866,-1.7792,-1.8372,-1.885,0.0,0.0,0.0,0.0,0.0,0.0,0.0,0.0,0.0,0.0,0.0,0.0,0.0,0.0,0.0,0.0,0.0,0.0,0.0,0.0,0.0,0.0,0.0,0.0,0.0,0.0,0.0,0.0,-1.8007,0.0,0.0,0.0,0.0,0.0,0.0,0.0,0.0,0.0,0.0,0.0,-2.0378,-2.0382,0.0,0.0,0.0,0.0,0.0,0.0,0.0,0.0,0.0,0.0,0.0,0.0,-1.8573,-1.7767,-1.6988,-1.6154,-1.5334,-1.5362,-1.5416,-1.5381,-1.4842,-1.4553,-1.4531,0.0,0.0,0.0,0.0,0.0,0.0,0.0,0.0,0.0,0.0,0.0,0.0,0.0,0.0,0.0,0.0,0.0,0.0,0.0,0.0,0.0,0.0,0.0,0.0,0.0,-1.4094,0.0,0.0,0.0,0.0,0.0,0.0,0.0,0.0,0.0,0.0,0.0,-1.8482,-1.8554,-1.8638,-1.8659,-1.8629,-1.854,-1.85,0.0,0.0,0.0,0.0,0.0,0.0,0.0,0.0,0.0,0.0,0.0,0.0,0.0,0.0,-1.851,-1.8338,-1.8304,-1.8243,-1.8151,0.0,0.0,0.0,0.0,0.0,0.0,0.0,0.0,0.0,0.0,0.0,0.0,0.0,0.0,0.0,0.0,-1.8904,0.0,0.0,0.0,0.0,0.0,0.0,0.0,0.0,-2.0511,-2.048,-2.0437,-2.0427,-2.0426,0.0,-2.0372,-2.0308,0.0,0.0,0.0,0.0,0.0,0.0,0.0,0.0,-1.9044,-1.8258,-1.7446,-1.6592,-1.5794,-1.5522,-1.5416,-1.5402,-1.4845,-1.4558,-1.4558,-1.5104,-1.5414,0.0,0.0,0.0,0.0,0.0,0.0,0.0,0.0,0.0,0.0,0.0,0.0,0.0,0.0,0.0,0.0,0.0,0.0,0.0,0.0,0.0,0.0,0.0,-1.5377,0.0,0.0,0.0,0.0,0.0,0.0,0.0,0.0,0.0,-1.9303,-1.9364,-1.9431,-1.9449,-1.9529,-1.9562,-1.9525,0.0,0.0,0.0,0.0,0.0,0.0,0.0,-1.9162,-1.9162,-1.9069,-1.8948,-1.8905,-1.8825,-1.8761,-1.8715,0.0,0.0,-1.8493,-1.8406,-1.8307,-1.827,-1.8148,-1.8063,-1.8014,-1.7938,-1.79,0.0,0.0,0.0,0.0,0.0,0.0,0.0,0.0,-2.0624,-2.0642,0.0,-2.0675,0.0,0.0,0.0,0.0,0.0,0.0,0.0,0.0,-2.063,-2.0605,-2.0603,-2.064,-2.0587,-2.0544,-2.0488,-2.044,-2.0395,-2.0281,0.0,0.0,0.0,0.0,0.0,0.0,-1.9906,-1.9087,-1.825,-1.7425,-1.6594,-1.5853,-1.5435,-1.5403,-1.5398,-1.5384,-1.5404,-1.5407,-1.5405,-1.5412,-1.541,0.0,0.0,0.0,0.0,0.0,0.0,0.0,0.0,0.0,0.0,0.0,0.0,0.0,0.0,0.0,0.0,0.0,0.0,0.0,0.0,-1.5759,0.0,0.0,0.0,0.0,0.0,0.0,0.0,0.0,0.0,0.0,-1.9338,-1.9479,-1.959,-1.9597,0.0,0.0,0.0,0.0,-1.9548,-1.9413,-1.9405,-1.939,-1.9305,-1.9303,-1.9308,-1.9308,0.0,0.0,-1.8912,-1.8905,-1.8852,-1.8752,-1.8706,-1.8687,-1.8608,-1.8493,-1.8406,-1.8396,-1.8304,-1.8225,-1.8187,-1.8159,-1.8095,-2.2041,0.0,0.0,0.0,0.0,-2.0604,-2.0937,-2.1523,-2.154,-2.1867,-2.2389,-2.2386,0.0,0.0,0.0,0.0,0.0,0.0,-2.2355,-2.2353,-2.2362,-2.2358,-2.2356,-2.2349,-2.2029,-2.1437,-2.1342,-2.0992,-2.0418,-2.0366,-2.032,-2.0262,0.0,0.0,0.0,0.0,-1.9957,-1.9137,-1.8904,-1.8121,-1.6704,-1.6444,-1.6026,-1.5427,-1.5421,-1.5406,-1.5404,-1.5409,-1.541,-1.5405,-1.5416,0.0,0.0,0.0,0.0,0.0,0.0,0.0,0.0,0.0,0.0,0.0,0.0,0.0,0.0,0.0,0.0,0.0,0.0,0.0,-1.5857,-1.6107,-1.6426,0.0,0.0,0.0,0.0,0.0,0.0,0.0,0.0,0.0,-1.952,-1.9564,-1.9618,0.0,0.0,-1.9693,-1.9681,-1.9628,-1.9585,-1.9548,0.0,0.0,0.0,-1.9398,-1.9376,-1.9376,-1.9253,-1.9144,-1.9052,-1.8975,-1.8896,-1.8852,-1.877,-1.8697,-1.8677,-1.86,-1.8522,-1.8483,-1.8406,-1.8328,-1.8297,-1.8239,-1.8246,-2.3334,-2.2821,-2.1965,-2.1595,-2.1597,-2.1601,-2.1894,-2.2362,-2.2376,-2.2663,-2.3109,-2.3105,-2.3101,-2.3095,-2.3106,0.0,0.0,0.0,-2.3102,-2.3106,-2.31,-2.3097,-2.3097,-2.3093,-2.2831,-2.2315,-2.1917,-2.1452,-2.0919,-2.0596,-2.041,-2.034,0.0,0.0,-2.035,-2.0376,-2.0149,-1.963,-1.9333,-1.8716,-1.7722,-1.7054,-1.6283,-1.5449,-1.5403,-1.5408,-1.5406,-1.5413,-1.5415,-1.5411,-1.5405,-1.5418,0.0,0.0,0.0,0.0,0.0,0.0,0.0,0.0,0.0,0.0,0.0,-1.7613,-1.76,0.0,0.0,0.0,-1.6368,-1.6285,-1.6765,-1.707,0.0,0.0,0.0,0.0,0.0,0.0,0.0,-2.0539,-2.0311,-2.0126,-2.014,-1.9858,-1.9648,-1.9682,-1.9719,-1.9732,-1.9713,0.0,-1.9641,-1.9645,-1.9638,-1.9631,-1.958,-1.952,-1.9478,-1.9449,-1.9357,-1.9232,-1.9153,-1.9052,-1.8966,-1.8905,-1.8843,-1.8779,-1.8752,-1.8677,-1.8609,-1.8542,-1.8502,-1.8445,-1.8406,-1.8358,-1.8338,-2.4507,-2.4446,-2.3644,-2.3217,-2.3103,-2.3105,-2.3123,-2.3199,-2.3213,-2.3247,-2.3305,-2.33,-2.3298,-2.3316,-2.3304,0.0,0.0,-2.3306,-2.333,-2.3317,-2.3298,-2.3299,-2.3317,-2.3309,-2.3262,-2.3174,-2.2384,-2.1922,-2.1767,-2.1019,-2.0558,-2.0518,-2.0449,-2.0417,-2.039,-2.0393,-2.041,-2.04,-1.9677,-1.9284,-1.9167,-1.7564,-1.6326,-1.5527,-1.5442,-1.5409,-1.5409,-1.5418,-1.5419,-1.5414,-1.5413,-1.5409,-1.5413,0.0,0.0,0.0,0.0,0.0,0.0,0.0,0.0,0.0,0.0,0.0,0.0,0.0,0.0,0.0,-1.7648,0.0,-1.7704,-1.8431,0.0,0.0,0.0,-2.0382,-2.1054,-2.1108,-2.1374,-2.2039,0.0,0.0,0.0,0.0,-1.9913,-1.9913,-1.9851,-1.9776,-1.9713,-1.9707,-1.9719,-1.9699,-1.9718,-1.9718,-1.9686,-1.9641,-1.9576,-1.9518,-1.9464,-1.9367,-1.9224,-1.9153,-1.9053,-1.8959,-1.8923,-1.887,-1.8815,-1.8761,-1.8705,-1.8627,-1.8606,-1.8579,-1.8512,-1.8445,-1.8406,-2.5387,-2.5367,-2.5168,-2.4329,-2.3102,-2.3105,-2.3473,-2.4078,-2.409,-2.4455,-2.5058,-2.5075,-2.5071,-2.5087,-2.5083,-2.5081,-2.508,-2.508,-2.508,-2.5083,-2.5083,-2.5083,-2.5081,-2.5072,-2.4734,-2.4108,-2.3877,-2.3439,-2.2754,-2.1906,-2.1489,-2.1427,-2.0796,-2.0447,-2.0391,-2.038,-2.0432,-2.0485,-2.0275,-1.9869,-1.9167,-1.7552,-1.6617,-1.6383,-1.5751,-1.5406,-1.5409,-1.5413,-1.5417,-1.542,-1.5416,-1.5411,-1.5405,-1.5415,0.0,0.0,0.0,0.0,0.0,0.0,0.0,0.0,0.0,-1.9582,-1.9577,0.0,-1.8607,0.0,-1.7991,-1.7868,-1.8538,-1.9311,0.0,0.0,-2.1358,-2.1928,-2.2054,-2.2066,-2.2135,-2.2311,-2.216,-2.2047,-2.2053,-2.189,-2.1758,-2.1739,-2.0634,-1.9801,-1.9757,-1.9776,-1.9763,-1.9726,-1.9751,-1.9757,-1.9713,-1.9688,-1.9649,-1.959,-1.9562,-1.9486,-1.9326,-1.9232,-1.9145,-1.9062,-1.8948,-1.8896,-1.887,-1.8878,-1.8815,-1.8696,-1.8629,-1.8579,-1.8569,-1.8522,-1.8475,-2.6283,-2.6225,-2.5851,-2.515,-2.4255,-2.4258,-2.453,-2.4978,-2.4971,-2.5259,-2.5706,-2.5704,-2.5699,-2.5694,-2.5694,-2.5692,-2.5689,-2.5689,-2.5692,-2.5694,-2.5694,-2.5694,-2.5694,-2.5689,-2.5447,-2.4971,-2.4573,-2.4154,-2.364,-2.2795,-2.2382,-2.2375,-2.1889,-2.145,-2.1017,-2.065,-2.0463,-2.0506,-2.0506,-2.0075,-1.9233,-1.8295,-1.7651,-1.7279,-1.6821,-1.6553,-1.6537,-1.6191,-1.598,-1.5964,-1.561,-1.5412,-1.5409,-1.5771,-1.6169,0.0,0.0,0.0,0.0,0.0,0.0,0.0,0.0,0.0,0.0,0.0,-1.9503,0.0,-1.9387,0.0,-1.9967,-2.0723,-2.1375,-2.1771,-2.2239,-2.2634,-2.295,-2.2993,-2.3106,-2.3419,-2.3143,-2.2923,-2.2942,-2.2621,-2.2401,-2.2401,-2.157,-2.0822,-2.0421,-2.0101,-1.9819,-1.9757,-1.9782,-1.9801,-1.9732,-1.9745,-1.9719,-1.9667,-1.9626,-1.9539,-1.9394,-1.9308,-1.9206,-1.9135,-1.906,-1.8966,-1.8931,-1.8923,-1.8861,-1.8806,-1.8705,-1.8629,-1.8588,-1.8559,-1.8532,-2.7159,-2.71,-2.622,-2.5872,-2.5856,-2.5742,-2.5703,-2.5702,-2.5698,-2.5694,-2.5694,-2.5689,-2.5705,-2.5701,-2.5701,-2.5697,-2.5692,-2.5693,-2.5696,-2.5699,-2.5701,-2.5699,-2.5699,-2.5699,-2.5692,-2.5657,-2.4914,-2.4574,-2.4538,-2.3679,-2.3266,-2.3258,-2.316,-2.271,-2.1971,-2.1095,-2.0609,-2.0509,-2.0501,-2.012,-1.9389,-1.9253,-1.886,-1.8196,-1.8067,-1.8012,-1.7994,-1.7279,-1.6873,-1.6856,-1.6135,-1.5743,-1.576,-1.6457,-1.6917,0.0,-1.8401,0.0,0.0,0.0,0.0,0.0,0.0,0.0,0.0,-2.0577,-2.0608,-2.0558,-2.1233,-2.163,-2.1584,-2.2296,-2.2767,-2.2778,-2.2823,-2.3113,-2.3777,-2.3865,-2.4128,-2.474,-2.4219,-2.3791,-2.3761,-2.3163,-2.2754,-2.281,-2.264,-2.218,-2.1419,-2.0613,-2.0042,-1.9862,-1.98,-1.98,-1.9788,-1.9801,-1.977,-1.9707,-1.9656,-1.9582,-1.9525,-1.9413,-1.9308,-1.9232,-1.9152,-1.9095,-1.9027,-1.8958,-1.8923,-1.8905,-1.8797,-1.8705,-1.8629,-1.8608,-1.8561,-2.8056,-2.7977,-2.7136,-2.6746,-2.6691,-2.5989,-2.5702,-2.5702,-2.57,-2.5698,-2.5694,-2.5693,-2.569,-2.5706,-2.5706,-2.5705,-2.5705,-2.5704,-2.5704,-2.5705,-2.5706,-2.5705,-2.5705,-2.5702,-2.5696,-2.5686,-2.552,-2.5453,-2.5422,-2.4585,-2.4158,-2.4136,-2.3455,-2.3026,0.0,0.0,0.0,0.0,-2.0511,-2.042,-2.0247,-1.9564,-1.9134,-1.8959,-1.8354,0.0,-1.7994,-1.784,-1.7744,-1.7766,-1.7591,0.0,0.0,0.0,0.0,0.0,0.0,0.0,0.0,0.0,0.0,0.0,-2.2511,-2.2165,-2.1455,-2.1998,-2.2412,-2.2408,-2.2495,-2.2534,-2.2564,-2.3208,-2.3654,-2.3659,-2.4236,-2.4651,-2.4765,-2.4752,-2.4808,-2.4933,-2.4812,-2.4718,-2.468,-2.4592,-2.4478,-2.4364,-2.391,-2.3146,-2.2325,-2.1399,-2.0626,-2.0035,-1.9836,-1.9806,-1.9807,-1.9801,-1.9776,-1.9713,-1.9682,-1.9649,-1.9585,-1.9511,-1.942,-1.9315,-1.929,-1.9211,-1.9104,-1.908,-1.9037,-1.8932,-1.8878,-1.8824,-1.8715,-1.8631,-1.8592,-2.8881,0.0,-2.7943,-2.7614,0.0,-2.6703,-2.6339,-2.6307,-2.5879,-2.5701,-2.5697,-2.5695,-2.5927,-2.6335,-2.6353,-2.6585,-2.6976,-2.6995,-2.6976,-2.6976,-2.6976,-2.6995,-2.6976,-2.6544,-2.6344,-2.6317,-2.59,-2.5697,-2.5668,-2.5253,-2.5036,-2.5036,-2.4608,-2.416,-2.3712,-2.2876,-2.1802,-2.0511,-2.0516,-2.0498,-2.0498,-2.007,-1.9837,-1.9837,0.0,0.0,0.0,0.0,0.0,0.0,0.0,0.0,0.0,0.0,0.0,-1.923,-2.0026,-2.0852,-2.1669,-2.2148,-2.2586,-2.302,-2.3428,-2.3276,-2.2375,-2.2691,-2.2926,-2.2928,-2.3246,-2.348,-2.3475,-2.414,-2.4574,-2.4558,-2.4906,-2.5119,-2.507,-2.5044,-2.5025,-2.4999,-2.4985,-2.5004,-2.4984,-2.4984,-2.4984,-2.4984,-2.4643,-2.3878,-2.2703,-2.1713,-2.0857,-2.0053,-1.9842,-1.9806,-1.9813,-1.9801,-1.9801,-1.9745,-1.972,-1.97,-1.964,-1.9585,-1.9522,-1.9413,-1.9338,-1.9253,-1.9216,-1.9153,-1.907,-1.9002,-1.895,-1.8878,-1.8807,-1.8706,-1.8641,-2.9723,-2.9645,-2.8787,-2.8478,-2.8445,-2.7592,-2.7227,-2.7176,0.0,0.0,0.0,-2.6166,-2.6555,-2.7237,-2.7234,-2.7622,-2.8263,-2.8282,-2.8282,-2.8282,-2.8282,-2.8282,-2.8263,-2.7582,-2.7149,-2.6965,-2.6278,-2.5842,-2.5696,-2.5689,-2.5703,-2.5701,-2.5701,-2.5272,-2.4417,-2.3696,-2.2548,-2.1031,-2.0813,-2.0657,-2.05,-2.0501,-2.0503,-2.0501,-2.0506,-2.0509,-2.0489,-1.9875,-1.9509,-1.9489,-1.8827,-1.8516,-1.8672,-1.9352,-1.9814,-2.0024,-2.1266,-2.2096,-2.2259,-2.2933,-2.3394,-2.3526,-2.4148,-2.4226,-2.3514,-2.3472,-2.3457,-2.3385,-2.401,-2.4401,-2.4373,-2.4913,-2.5283,-2.522,-2.5201,-2.5166,-2.5125,-2.5107,-2.5076,-2.5044,-2.5012,-2.5005,-2.4998,-2.4991,-2.4984,-2.4984,-2.4946,-2.4397,-2.2804,-2.1585,-2.0672,-2.004,-1.9854,-1.9831,-1.9801,-1.9807,-1.9801,-1.9795,-1.9745,-1.9726,-1.9706,-1.9658,-1.9585,-1.9518,-1.9413,-1.9346,-1.9289,-1.9224,-1.9129,-1.9104,-1.901,-1.8932,-1.8905,-1.8797,-1.8715,-3.0622,-3.0544,-2.9684,-2.9333,-2.9255,-2.84,-2.8058,-2.8051,-2.7204,-2.7246,-2.793,-2.7948,-2.8004,-2.8116,-2.8115,-2.8191,-2.8283,-2.8282,-2.8282,0.0,-2.8282,-2.8282,-2.8282,-2.8166,-2.7734,-2.7025,-2.6887,-2.6434,-2.5767,-2.5705,-2.5701,-2.5692,-2.5691,-2.5262,-2.4445,-2.4289,-2.3727,-2.274,-2.1975,-2.1248,-2.0524,-2.0511,-2.0515,-2.0515,-2.0535,-2.0516,-2.0496,-2.04,-2.0343,-2.0322,-2.0225,-2.048,-2.1223,-2.136,-2.1788,-2.2489,-2.278,-2.3241,-2.3965,-2.4156,-2.4518,-2.5162,-2.5355,-2.5347,-2.5246,-2.5251,-2.522,-2.5221,-2.5235,-2.5314,-2.5298,-2.5302,-2.5303,-2.5269,-2.5231,-2.5195,-2.518,-2.515,-2.5088,-2.5076,-2.505,-2.4993,-2.4986,-2.5004,-2.4991,-2.4984,-2.4814,-2.434,-2.2722,-2.1149,-2.0204,-1.9943,-1.9896,-1.9848,-1.9812,-1.9801,-1.9801,-1.9801,-1.9795,-1.9763,-1.9719,-1.9699,-1.9665,-1.9597,-1.9529,-1.9453,-1.9335,-1.9282,-1.9214,-1.9153,-1.9078,-1.9037,-1.8923,-1.887,-1.8833,-3.08,-3.0761,-3.0369,-3.0213,-3.0135,-2.9264,-2.8925,-2.8916,-2.8562,-2.8355,-2.828,-2.8281,-2.8554,-2.8982,-2.8999,-2.9269,-2.9713,-2.9713,-2.9712,-2.965,-2.9649,-2.9668,-2.9611,-2.922,-2.8809,-2.8397,-2.7925,-2.7238,-2.6455,-2.6412,-2.6175,-2.5722,-2.5702,-2.5488,-2.5117,-2.5098,-2.467,-2.3815,-2.2954,-2.2309,-2.1918,-2.1902,-2.1903,-2.1902,-2.1907,-2.1908,-2.1908,-2.1912,-2.1914,-2.1914,-2.1914,-2.2089,-2.2481,-2.252,-2.2693,-2.308,-2.3547,-2.397,-2.4363,-2.4844,-2.5266,-2.5609,-2.5645,-2.5639,-2.5608,-2.5604,-2.5601,-2.5599,-2.5573,-2.5545,-2.5511,-2.5423,-2.5351,-2.5308,-2.5252,-2.5204,-2.5195,-2.5185,-2.5144,-2.5114,-2.5076,-2.5051,-2.4999,-2.4999,-2.5004,-2.4934,-2.4321,-2.3354,-2.2571,-2.1074,-1.9977,-1.9925,-1.9902,-1.9879,-1.9824,-1.9807,-1.9801,-1.9801,-1.9801,-1.977,-1.9738,-1.9713,-1.9706,-1.9665,-1.9611,-1.9536,-1.9453,-1.9368,-1.9285,-1.923,-1.9145,-1.908,-1.8976,-1.8914,-1.8815,-3.0801,-3.0801,-3.0801,-3.0801,-3.0743,-3.0092,-2.9808,-2.9817,-2.9853,-2.9494,-2.8917,-2.8885,-2.9258,-2.9844,-2.9882,-3.025,-3.0851,-3.091,-3.0868,-3.0825,-3.0823,-3.0822,-3.0764,-3.0158,-2.9768,-2.9552,-2.8905,-2.8159,-2.7377,-2.7295,-2.6863,-2.6043,-2.5807,-2.569,-2.5692,-2.5692,-2.536,-2.4697,-2.4014,-2.3508,-2.3115,-2.3097,-2.3098,-2.3098,-2.3083,-2.3106,-2.3105,-2.3109,-2.3112,-2.3112,-2.3112,-2.317,-2.3384,-2.3384,-2.3481,-2.371,-2.4314,-2.4699,-2.4724,-2.5295,-2.5699,-2.5699,-2.5699,-2.5675,-2.5604,-2.5605,-2.5596,-2.5612,-2.5602,-2.5576,-2.5515,-2.546,-2.538,-2.5332,-2.5259,-2.5222,-2.5204,-2.5201,-2.5166,-2.5125,-2.5113,-2.5063,-2.5038,-2.5012,-2.4999,-2.4801,-2.3563,-2.2558,-2.233,-2.1074,-2.0053,-1.9936,-1.9908,-1.9884,-1.983,-1.9813,-1.9807,-1.9801,-1.9801,-1.9795,-1.9738,-1.9732,-1.9719,-1.9706,-1.9665,-1.9611,-1.9602,-1.9493,-1.9368,-1.9308,-1.9216,-1.912,-1.8984,-1.8905,-1.8815,-3.0821,-3.0801,-3.0801,-3.0801,-3.0782,-3.0684,-3.0655,-3.0646,-3.0669,-3.0656,-3.0476,-3.0615,-3.0663,-3.0781,-3.0762,-3.08,-3.0914,-3.0913,-3.0894,-3.0893,-3.0889,-3.0888,-3.0887,-3.0726,-3.0294,-2.9709,-2.9513,-2.9024,-2.8223,-2.8145,-2.7732,-2.6868,-2.6103,-2.5732,-2.5718,-2.5698,-2.5661,-2.5569,-2.5511,-2.4689,-2.3201,-2.3107,-2.311,-2.311,-2.311,-2.311,-2.3208,-2.3111,-2.3112,-2.3112,-2.3151,-2.35,-2.4163,-2.4281,-2.4632,-2.5335,-2.5511,-2.5585,-2.5572,-2.5652,-2.5699,-2.5699,-2.5699,-2.5675,-2.5607,-2.5612,-2.56,-2.5599,-2.5612,-2.559,-2.5511,-2.5491,-2.5448,-2.5406,-2.5313,-2.5264,-2.5212,-2.5204,-2.5214,-2.5191,-2.5131,-2.5095,-2.5082,-2.505,-2.4999,-2.4972,-2.3657,-2.2596,-2.2368,-2.1187,-2.0064,-2.0015,-1.9925,-1.989,-1.9873,-1.9844,-1.9807,-1.9801,-1.9801,-1.9795,-1.977,-1.9738,-1.9707,-1.9719,-1.9687,-1.9672,-1.9625,-1.9569,-1.9508,-1.9387,-1.9287,-1.9202,-1.8983,-1.8896,-1.8852,-3.1583,-3.1525,-3.1016,-3.0801,-3.0801,-3.0801,-3.0784,-3.0789,-3.0798,-3.0784,-3.0888,-3.1376,-3.1332,-3.0853,-3.0876,-3.0917,-3.0918,-3.0918,-3.0917,-3.0915,-3.0913,-3.0911,-3.0892,-3.0867,-3.067,-3.0377,-3.0335,-2.9884,-2.9123,-2.8557,-2.8107,-2.7714,-2.6892,-2.6483,-2.6427,-2.5958,-2.5705,-2.5687,-2.5687,-2.5335,-2.4748,-2.4632,-2.4653,-2.4633,-2.4633,-2.4633,-2.4633,-2.4633,-2.4653,-2.4633,-2.4633,-2.479,-2.5141,-2.518,-2.5317,-2.5667,-2.5701,-2.5696,-2.569,-2.5692,-2.5699,-2.5699,-2.5699,-2.5677,-2.5654,-2.5626,-2.5612,-2.5598,-2.561,-2.5586,-2.5551,-2.551,-2.5476,-2.5464,-2.536,-2.5293,-2.5257,-2.5215,-2.5201,-2.5216,-2.5174,-2.515,-2.5107,-2.5044,-2.5005,-2.4877,-2.3923,-2.3082,-2.2533,-2.1453,-2.06,-2.0115,-1.9955,-1.9908,-1.989,-1.985,-1.9807,-1.9801,-1.9801,-1.9801,-1.9795,-1.9795,-1.977,-1.9751,-1.9726,-1.97,-1.9674,-1.9625,-1.9562,-1.9457,-1.9303,-1.9194,-1.9052,-1.894,-1.8887,-3.2462,-3.2365,-3.1758,-3.1503,-3.1522,-3.1503,-3.1522,-3.1525,-3.1514,-3.1517,-3.1577,-3.2173,-3.2126,-3.1573,-3.1569,-3.1595,-3.1579,-3.1581,-3.1582,-3.1582,-3.1581,-3.1463,-3.1248,-3.1224,-3.1105,-3.0929,-3.0846,-3.051,-2.9885,-2.9064,-2.8654,-2.8537,-2.7797,-2.725,-2.6958,-2.6352,-2.5923,-2.5707,-2.5687,-2.5687,-2.5668,-2.5687,-2.5687,-2.5687,-2.5687,-2.5687,-2.5687,-2.5687,-2.5687,-2.5687,-2.5687,-2.5687,-2.5687,-2.5687,-2.5687,-2.5707,-2.5697,-2.5689,-2.5689,-2.5692,-2.5699,-2.5699,-2.5699,-2.5699,-2.5677,-2.563,-2.5602,-2.5608,-2.5604,-2.5598,-2.5596,-2.5547,-2.5518,-2.5488,-2.5397,-2.5322,-2.5302,-2.5255,-2.5212,-2.5208,-2.5197,-2.5168,-2.5101,-2.5044,-2.4999,-2.4896,-2.4245,-2.3556,-2.2817,-2.1926,-2.0954,-2.0424,-2.0112,-1.9894,-1.9896,-1.9843,-1.9801,-1.9801,-1.9801,-1.9801,-1.9801,-1.9801,-1.9801,-1.9776,-1.9745,-1.9713,-1.9694,-1.9641,-1.9578,-1.9496,-1.9372,-1.92,-1.9104,-1.901,-1.8941,-3.3339,-3.3339,-3.3281,-3.3183,-3.3242,-3.3203,-3.3222,-3.3105,-3.3183,-3.3225,-3.3166,-3.329,-3.3314,-3.3241,-3.3271,-3.3284,-3.3231,-3.3157,-3.312,-3.3141,-3.3163,-3.2812,-3.209,-3.2029,-3.1656,-3.105,-3.1007,-3.0865,-3.0665,-2.9944,-2.9553,-2.9495,-2.8674,-2.7854,-2.723,-2.6978,-2.6508,-2.5884,-2.5726,-2.5687,-2.5687,-2.5687,-2.5687,-2.5687,-2.5687,-2.5687,-2.5687,-2.5687,-2.5687,-2.5687,-2.5687,-2.5687,-2.5687,-2.5687,-2.5687,-2.5706,-2.5697,-2.5689,-2.5687,-2.5691,-2.5699,-2.5699,-2.5699,-2.5699,-2.5699,-2.5632,-2.5602,-2.5608,-2.5612,-2.561,-2.5602,-2.5544,-2.5517,-2.5499,-2.5436,-2.5388,-2.5313,-2.5243,-2.5206,-2.5212,-2.5208,-2.5187,-2.5095,-2.5031,-2.5005,-2.4865,-2.4264,-2.3695,-2.3405,-2.2249,-2.1466,-2.1068,-2.0553,-1.9932,-1.9915,-1.9836,-1.98,-1.9813,-1.9801,-1.9801,-1.9801,-1.9801,-1.9801,-1.9801,-1.9795,-1.9751,-1.9713,-1.965,-1.9596,-1.9513,-1.9398,-1.9272,-1.917,-1.9112,-1.9036,-3.3865,-3.3417,-3.3378,-3.3378,-3.3378,-3.3378,-3.3378,-3.3378,-3.3378,-3.3378,-3.3495,-3.3946,-3.4182,-3.4201,-3.4768,-3.4412,-3.3445,-3.3394,-3.338,-3.3385,-3.3391,-3.3238,-3.2967,-3.293,-3.248,-3.1777,-3.1676,-3.138,-3.089,-3.0575,-3.0437,-3.028,-2.9574,-2.8948,-2.8519,-2.7544,-2.6822,-2.6508,-2.602,-2.5687,-2.5687,-2.5687,-2.5687,-2.5687,-2.5687,-2.5687,-2.5687,-2.5687,-2.5687,-2.5687,-2.5687,-2.5687,-2.5687,-2.5687,-2.5687,-2.5706,-2.5697,-2.5689,-2.5707,-2.5692,-2.5699,-2.5699,-2.5699,-2.5699,-2.5699,-2.5675,-2.5648,-2.5612,-2.5603,-2.5607,-2.5598,-2.558,-2.5541,-2.5513,-2.5476,-2.5447,-2.537,-2.5303,-2.5238,-2.5209,-2.5208,-2.5168,-2.512,-2.5082,-2.505,-2.498,-2.4713,-2.4302,-2.3771,-2.3108,-2.2571,-2.2034,-2.1327,-2.0742,-2.0713,-2.0137,-1.9806,-1.9801,-1.9801,-1.9801,-1.9801,-1.9801,-1.9801,-1.9801,-1.9801,-1.9795,-1.9745,-1.9688,-1.9623,-1.956,-1.9446,-1.9341,-1.9261,-1.917,-1.9087,-3.4703,-3.4255,-3.4216,-3.4196,-3.4194,-3.4194,-3.4196,-3.4216,-3.4196,-3.4213,-3.4333,-3.4798,-3.5015,-3.5112,-3.5646,-3.5342,-3.4278,-3.4252,-3.4241,-3.4248,-3.4237,-3.4087,-3.3838,-3.3805,-3.3378,-3.2578,-3.2226,-3.1677,-3.0972,-3.0911,-3.091,-3.0851,-3.0283,-2.9872,-2.9441,-2.8405,-2.7643,-2.7037,-2.6412,-2.602,-2.5766,-2.5687,-2.5687,-2.5687,-2.5687,-2.5687,-2.5687,-2.5687,-2.5687,-2.5687,-2.5687,-2.5687,-2.5687,-2.5687,-2.5687,-2.5706,-2.5697,-2.5689,-2.5687,-2.5692,-2.5699,-2.5699,-2.5699,-2.5699,-2.5699,-2.5699,-2.5669,-2.5634,-2.561,-2.5598,-2.5607,-2.5612,-2.5577,-2.5534,-2.5518,-2.5472,-2.5421,-2.5337,-2.5278,-2.5228,-2.522,-2.5166,-2.5119,-2.5088,-2.5057,-2.4999,-2.4992,-2.4713,-2.427,-2.3821,-2.3556,-2.2931,-2.2173,-2.1719,-2.1468,-2.0934,-2.0138,-1.9994,-1.9826,-1.9807,-1.9801,-1.9801,-1.9801,-1.9801,-1.9801,-1.9801,-1.9782,-1.9738,-1.968,-1.9618,-1.9522,-1.9409,-1.9314,-1.9211,-1.9274,-3.585,-3.5752,-3.5869,-3.5713,-3.5655,-3.5655,-3.5811,-3.5713,-3.5733,-3.5636,-3.558,-3.5811,-3.5752,-3.583,-3.5853,-3.5833,-3.5702,-3.5702,-3.5711,-3.5734,-3.5761,-3.538,-3.4742,-3.4711,-3.425,-3.3374,-3.2499,-3.1718,-3.1052,-3.0954,-3.0915,-3.0894,-3.0855,-3.0405,-2.9663,-2.9445,-2.8642,-2.7432,-2.698,-2.6509,-2.5825,-2.5688,-2.5688,-2.5687,-2.5687,-2.5687,-2.5687,-2.5687,-2.5687,-2.5687,-2.5687,-2.5687,-2.5687,-2.5687,-2.5706,-2.5705,-2.5696,-2.569,-2.5707,-2.5691,-2.5699,-2.5699,-2.5699,-2.5699,-2.5699,-2.5699,-2.5671,-2.5612,-2.5608,-2.5598,-2.561,-2.5601,-2.557,-2.5518,-2.5503,-2.5468,-2.5417,-2.5355,-2.5278,-2.522,-2.5198,-2.5184,-2.5131,-2.5107,-2.5088,-2.5025,-2.4993,-2.498,-2.4789,-2.4283,-2.3828,-2.3594,-2.3044,-2.252,-2.2161,-2.1739,-2.089,-2.0213,-1.9945,-1.9813,-1.9813,-1.9813,-1.9801,-1.9801,-1.9801,-1.9801,-1.9801,-1.9751,-1.9694,-1.9621,-1.9546,-1.9479,-1.9393,-1.9376,-1.9714,-3.5889,-3.5889,-3.5889,-3.5889,-3.5889,-3.5889,-3.5889,-3.5889,-3.5889,-3.5889,-3.5889,-3.5889,-3.5889,-3.5889,-3.5889,-3.5889,-3.5892,-3.5919,-3.5926,-3.5934,-3.5938,-3.583,-3.5623,-3.5575,-3.5136,-3.417,-3.2808,-3.199,-3.1659,-3.1191,-3.0918,-3.0918,-3.0916,-3.0759,-3.0446,-2.9897,-2.8979,-2.7982,-2.7299,-2.6575,-2.579,-2.5692,-2.569,-2.5687,-2.5687,-2.5687,-2.5687,-2.5687,-2.5687,-2.5687,-2.5687,-2.5687,-2.5687,-2.5687,-2.5705,-2.5702,-2.5694,-2.5705,-2.5697,-2.5687,-2.5699,-2.5699,-2.5699,-2.5699,-2.5699,-2.5699,-2.5669,-2.5612,-2.5608,-2.5595,-2.561,-2.5601,-2.5592,-2.5573,-2.5531,-2.5499,-2.5456,-2.5364,-2.5303,-2.5273,-2.5222,-2.5204,-2.5189,-2.5166,-2.5131,-2.5082,-2.5044,-2.5012,-2.4923,-2.4751,-2.4605,-2.4529,-2.3878,-2.3329,-2.3089,-2.2691,-2.1947,-2.1098,-2.0596,-2.0126,-2.0026,-1.9801,-1.9807,-1.9801,-1.9801,-1.9801,-1.9782,-1.9763,-1.9707,-1.968,-1.9662,-1.9589,-1.9479,-1.9761,-2.0228,-3.6863,-3.6863,-3.6863,-3.6844,-3.6863,-3.6877,-3.6665,-3.6415,-3.639,-3.6195,-3.5947,-3.5889,-3.5889,-3.5889,-3.5889,-3.5889,-3.5889,-3.5889,-3.5894,-3.5883,-3.5883,-3.5929,-3.596,-3.597,-3.5554,-3.4666,-3.36,-3.2704,-3.2082,-3.1597,-3.1189,-3.0956,-3.0918,-3.0898,-3.0879,-3.0351,-2.9648,-2.8787,-2.7928,-2.7048,-2.6303,-2.5853,-2.5694,-2.5691,-2.569,-2.5689,-2.5688,-2.5687,-2.5687,-2.5687,-2.5687,-2.5687,-2.5687,-2.5687,-2.5705,-2.5699,-2.5693,-2.5705,-2.5694,-2.5705,-2.5699,-2.5699,-2.5699,-2.5699,-2.5699,-2.5699,-2.5669,-2.5612,-2.5608,-2.5598,-2.561,-2.5601,-2.5595,-2.5609,-2.5573,-2.5524,-2.5496,-2.5395,-2.5346,-2.5322,-2.5288,-2.5252,-2.5245,-2.5198,-2.5184,-2.5137,-2.5101,-2.5044,-2.5006,-2.4992,-2.5004,-2.4934,-2.4548,-2.4207,-2.4106,-2.3626,-2.2981,-2.218,-2.1412,-2.0853,-2.0477,-2.0013,-1.9807,-1.9807,-1.9801,-1.9801,-1.9801,-1.9776,-1.9751,-1.9749,-1.9889,-2.0073,-2.02,-2.0633,-2.1101,-3.85,-3.8519,-3.85,-3.8383,-3.838,-3.8368,-3.79,-3.7341,-3.7151,-3.6709,-3.6137,-3.5945,-3.5889,-3.5889,-3.5889,-3.5889,-3.5889,-3.5889,-3.5889,-3.5892,-3.5892,-3.5899,-3.5909,-3.596,-3.558,-3.4942,-3.4619,-3.3787,-3.2581,-3.2137,-3.1732,-3.1127,-3.0972,-3.0894,-3.0876,-3.0857,-3.0351,-2.9473,-2.873,-2.7949,-2.697,-2.6247,-2.5757,-2.5714,-2.5694,-2.5693,-2.5689,-2.5688,-2.5687,-2.5687,-2.5687,-2.5687,-2.5687,-2.5687,-2.5704,-2.5698,-2.5693,-2.5702,-2.5692,-2.5705,-2.5699,-2.5699,-2.5699,-2.5699,-2.5699,-2.5699,-2.5671,-2.5612,-2.561,-2.5598,-2.561,-2.5601,-2.5601,-2.5598,-2.5605,-2.5554,-2.5503,-2.5433,-2.5404,-2.5388,-2.5351,-2.5303,-2.5321,-2.5252,-2.5215,-2.5195,-2.5191,-2.5113,-2.5044,-2.5031,-2.5005,-2.491,-2.4801,-2.4738,-2.4548,-2.434,-2.3777,-2.3423,-2.2546,-2.1803,-2.1092,-2.0533,-1.9882,-1.9857,-1.9932,-1.9895,-1.9876,-1.9926,-2.0014,-2.0106,-2.0352,-2.0706,-2.109,-2.148,-2.1885,-3.8519,-3.8519,-3.8519,-3.8513,-3.8523,-3.8517,-3.8374,-3.8013,-3.7423,-3.7099,-3.6722,-3.6164,-3.5919,-3.5889,-3.5889,-3.5889,-3.5889,-3.5889,-3.5889,-3.5889,-3.5889,-3.5892,-3.5897,-3.5909,-3.5799,-3.549,-3.5012,-3.4454,-3.3929,-3.2783,-3.2064,-3.1776,-3.1156,-3.0847,-3.0851,-3.0874,-3.0446,-2.9705,-2.9412,-2.8496,-2.7265,-2.6816,-2.6327,-2.5738,-2.5699,-2.5697,-2.5693,-2.5689,-2.5687,-2.5687,-2.5687,-2.5687,-2.5687,-2.5704,-2.5699,-2.5693,-2.5704,-2.5694,-2.5705,-2.5701,-2.5699,-2.5699,-2.5699,-2.5699,-2.5699,-2.5699,-2.5673,-2.5622,-2.5615,-2.56,-2.5599,-2.5607,-2.5604,-2.5598,-2.5609,-2.557,-2.5501,-2.5484,-2.5456,-2.5464,-2.541,-2.5384,-2.5361,-2.5332,-2.5278,-2.5261,-2.5217,-2.5185,-2.5125,-2.5044,-2.5031,-2.5005,-2.4929,-2.4953,-2.4908,-2.4795,-2.4624,-2.4504,-2.379,-2.288,-2.2086,-2.1312,-2.0565,-2.0013,-2.0289,-2.0339,-2.0295,-2.027,-2.037,-2.0657,-2.1216,-2.1745,-2.1923,-2.2255,-2.2606,-3.9565,-3.9559,-3.9562,-3.9552,-3.9555,-3.9544,-3.9326,-3.8891,-3.8432,-3.7739,-3.717,-3.6651,-3.6213,-3.5919,-3.59,-3.5883,-3.5889,-3.5889,-3.5889,-3.5889,-3.5889,-3.5889,-3.5892,-3.5899,-3.5883,-3.5863,-3.5427,-3.5041,-3.4595,-3.3624,-3.2869,-3.2133,-3.1609,-3.1165,-3.0799,-3.0822,-3.0632,-3.0126,-2.9795,-2.9018,-2.8163,-2.7343,-2.6797,-2.621,-2.5956,-2.5701,-2.5697,-2.5693,-2.5689,-2.5688,-2.5687,-2.5687,-2.5687,-2.5703,-2.5697,-2.569,-2.5699,-2.5689,-2.5701,-2.5699,-2.5699,-2.5699,-2.5699,-2.5699,-2.5699,-2.5699,-2.5675,-2.5607,-2.56,-2.5605,-2.5604,-2.561,-2.5604,-2.5598,-2.5612,-2.558,-2.5548,-2.552,-2.5503,-2.5488,-2.5464,-2.5432,-2.5438,-2.5388,-2.5356,-2.5327,-2.5282,-2.5234,-2.5189,-2.5125,-2.507,-2.5044,-2.5012,-2.5018,-2.4998,-2.4903,-2.4877,-2.4814,-2.4617,-2.3771,-2.2931,-2.2092,-2.1532,-2.0979,-2.0897,-2.0859,-2.0903,-2.1046,-2.134,-2.1739,-2.2311,-2.2641,-2.2808,-2.2996,-2.3349,-4.1059,-4.0986,-4.0986,-4.0991,-4.0914,-4.0956,-4.0431,-3.989,-3.9427,-3.8576,-3.7463,-3.7058,-3.643,-3.5905,-3.5885,-3.5894,-3.5886,-3.5886,-3.5889,-3.5889,-3.5889,-3.5889,-3.5889,-3.5892,-3.5892,-3.5894,-3.5883,-3.5495,-3.4971,-3.471,-3.3758,-3.2647,-3.2179,-3.1576,-3.0955,-3.0801,-3.0788,-3.0621,-3.0134,-2.9672,-2.9152,-2.8158,-2.7399,-2.6777,-2.6055,-2.5722,-2.5701,-2.5698,-2.5694,-2.569,-2.5688,-2.5687,-2.5706,-2.5702,-2.5696,-2.569,-2.5699,-2.5689,-2.5701,-2.5699,-2.5699,-2.5699,-2.5699,-2.5699,-2.5699,-2.5699,-2.5675,-2.563,-2.5607,-2.5612,-2.5612,-2.5613,-2.5607,-2.5604,-2.5601,-2.5612,-2.558,-2.5548,-2.5518,-2.5518,-2.5522,-2.5519,-2.5488,-2.5448,-2.541,-2.5393,-2.5351,-2.5283,-2.5236,-2.5176,-2.5137,-2.5126,-2.5076,-2.5025,-2.5005,-2.4985,-2.4972,-2.4946,-2.4927,-2.439,-2.3587,-2.2892,-2.2539,-2.2173,-2.1727,-2.1663,-2.1874,-2.2074,-2.233,-2.2654,-2.3082,-2.3356,-2.3571,-2.3797,-2.4085,-4.1022,-4.098,-4.0984,-4.0992,-4.0995,-4.0987,-4.0861,-4.0533,-3.925,-3.854,-3.7872,-3.6744,-3.6098,-3.5889,-3.5889,-3.5895,-3.5891,-3.5894,-3.5897,-3.5889,-3.5889,-3.5889,-3.5889,-3.5889,-3.5889,-3.5892,-3.5892,-3.5777,-3.5505,-3.4925,-3.4145,-3.3232,-3.2459,-3.1662,-3.0981,-3.0831,-3.0799,-3.0764,-3.0588,-3.0165,-2.9666,-2.9181,-2.8248,-2.7122,-2.621,-2.5762,-2.5703,-2.5701,-2.5699,-2.5697,-2.5692,-2.5689,-2.5707,-2.5702,-2.5697,-2.5689,-2.5699,-2.5689,-2.5701,-2.5699,-2.5699,-2.5699,-2.5699,-2.5699,-2.5699,-2.5699,-2.5697,-2.5675,-2.563,-2.5619,-2.5605,-2.5607,-2.5599,-2.5596,-2.5607,-2.5598,-2.5592,-2.5583,-2.5577,-2.557,-2.5534,-2.552,-2.552,-2.5495,-2.5468,-2.5468,-2.5415,-2.5351,-2.5284,-2.5228,-2.5212,-2.5174,-2.5145,-2.5076,-2.5044,-2.5018,-2.5004,-2.4991,-2.4984,-2.4965,-2.4149,-2.3713,-2.3365,-2.2879,-2.2338,-2.2475,-2.2842,-2.3004,-2.3256,-2.3539,-2.3799,-2.4005,-2.4228,-2.4499,-2.4507,-4.098,-4.0984,-4.0984,-4.0987,-4.095,-4.095,-4.0941,-4.0674,-3.9587,-3.878,-3.8186,-3.6961,-3.6231,-3.5864,-3.5849,-3.5878,-3.5885,-3.5894,-3.588,-3.5889,-3.5889,-3.5889,-3.5889,-3.5889,-3.5889,-3.5889,-3.5889,-3.5889,-3.5733,-3.5402,-3.482,-3.3963,-3.311,-3.2333,-3.1417,-3.1034,-3.0804,-3.079,-3.079,-3.0542,-3.016,-2.9694,-2.8727,-2.7309,-2.6537,-2.617,-2.5741,-2.5703,-2.5702,-2.5702,-2.5698,-2.5693,-2.5689,-2.5703,-2.5697,-2.5689,-2.5699,-2.5689,-2.5701,-2.5699,-2.5699,-2.5699,-2.5699,-2.5699,-2.5699,-2.5699,-2.5699,-2.5697,-2.5673,-2.5628,-2.5617,-2.5605,-2.5595,-2.5609,-2.5599,-2.561,-2.5607,-2.5598,-2.5609,-2.5605,-2.5573,-2.5567,-2.5557,-2.5524,-2.5513,-2.5495,-2.548,-2.5423,-2.5345,-2.5298,-2.5262,-2.5228,-2.5191,-2.5144,-2.5095,-2.5051,-2.4999,-2.4998,-2.4984,-2.4984,-2.4674,-2.4396,-2.4193,-2.3744,-2.3346,-2.3577,-2.3901,-2.4044,-2.4049,-2.4227,-2.4403,-2.4625,-2.4706,-2.465,-2.4576,-4.098,-4.0982,-4.0982,-4.095,-4.0888,-4.0907,-4.081,-4.0558,-3.9858,-3.8829,-3.813,-3.7275,-3.6312,-3.5916,-3.5803,-3.5826,-3.5872,-3.5894,-3.5897,-3.5883,-3.5883,-3.5886,-3.5889,-3.5889,-3.5889,-3.5889,-3.5889,-3.5889,-3.5889,-3.583,-3.5265,-3.4583,-3.3943,-3.2971,-3.2111,-3.1447,-3.0984,-3.0856,-3.0798,-3.0782,-3.0636,-3.0051,-2.8969,-2.7613,-2.6958,-2.6475,-2.5874,-2.5702,-2.5703,-2.5703,-2.5702,-2.57,-2.5696,-2.5687,-2.5698,-2.5692,-2.5702,-2.5692,-2.5705,-2.5701,-2.5699,-2.5699,-2.5699,-2.5699,-2.5699,-2.5699,-2.5699,-2.5699,-2.5677,-2.5656,-2.5628,-2.5598,-2.5612,-2.5608,-2.5595,-2.5607,-2.5604,-2.5613,-2.561,-2.5598,-2.5589,-2.5583,-2.558,-2.5551,-2.5544,-2.5515,-2.5522,-2.5492,-2.5417,-2.5359,-2.5332,-2.5278,-2.5245,-2.5197,-2.5143,-2.5095,-2.5044,-2.4999,-2.4998,-2.4991,-2.4991,-2.4826,-2.4623,-2.473,-2.4596,-2.4643,-2.4566,-2.454,-2.4613,-2.4821,-2.4791,-2.4768,-2.4737,-2.4717,-2.4652,-4.0958,-4.0912,-4.0917,-4.0912,-4.0888,-4.0888,-4.0538,-3.982,-3.9062,-3.8149,-3.7294,-3.642,-3.6012,-3.5818,-3.5799,-3.5815,-3.5845,-3.5866,-3.5882,-3.5888,-3.5891,-3.5897,-3.5883,-3.5883,-3.5886,-3.5889,-3.5886,-3.5886,-3.5889,-3.585,-3.548,-3.4759,-3.4428,-3.3629,-3.2599,-3.1878,-3.1447,-3.1003,-3.0845,-3.0789,-3.0715,-3.0507,-2.9718,-2.8189,-2.7495,-2.6682,-2.5964,-2.5718,-2.5702,-2.5703,-2.5703,-2.5703,-2.5701,-2.5696,-2.5688,-2.5698,-2.569,-2.5701,-2.5691,-2.5703,-2.5699,-2.5699,-2.5699,-2.5699,-2.5699,-2.5699,-2.5699,-2.5699,-2.5699,-2.5677,-2.5697,-2.5648,-2.5604,-2.56,-2.5612,-2.5603,-2.5603,-2.5598,-2.5607,-2.5613,-2.5604,-2.5595,-2.5592,-2.5586,-2.5583,-2.5554,-2.5557,-2.5549,-2.5499,-2.5448,-2.541,-2.5365,-2.5293,-2.5245,-2.5203,-2.5132,-2.5089,-2.5025,-2.5005,-2.4985,-2.5004,-2.4991,-2.4977,-2.4971,-2.4945,-2.4855,-2.4861,-2.4903,-2.4875,-2.4839,-2.4809,-2.478,-2.4768,-2.4745,-2.4725,-4.0921,-4.0888,-4.0888,-4.0888,-4.0888,-4.0888,-4.0441,-3.9621,-3.8775,-3.7916,-3.7042,-3.6222,-3.5795,-3.5795,-3.5795,-3.5807,-3.5807,-3.5872,-3.5885,-3.5892,-3.5895,-3.5898,-3.5888,-3.5885,-3.5885,-3.5885,-3.5885,-3.5897,-3.5886,-3.5889,-3.5636,-3.5288,-3.4876,-3.4155,-3.3339,-3.2501,-3.1995,-3.1447,-3.1055,-3.0801,-3.0801,-3.0789,-3.0057,-2.9055,-2.8067,-2.7215,-2.648,-2.5846,-2.5715,-2.5698,-2.5701,-2.5703,-2.5703,-2.5702,-2.5698,-2.5687,-2.5698,-2.5689,-2.5696,-2.5687,-2.5705,-2.5699,-2.5699,-2.5699,-2.5699,-2.5699,-2.5699,-2.5699,-2.5699,-2.5699,-2.5699,-2.5673,-2.5654,-2.563,-2.5624,-2.5619,-2.5598,-2.5612,-2.5603,-2.5607,-2.5599,-2.561,-2.5601,-2.5598,-2.5595,-2.5612,-2.5602,-2.5583,-2.5556,-2.5507,-2.5476,-2.5415,-2.5341,-2.5273,-2.5228,-2.5191,-2.5139,-2.5082,-2.5038,-2.5025,-2.4992,-2.5004,-2.4991,-2.4984,-2.4977,-2.4971,-2.4971,-2.4957,-2.491,-2.4882,-2.4861,-2.4839,-2.4802,-2.4772,-2.4745,-4.0888,-4.0888,-4.0888,-4.0888,-4.0888,-4.0713,-4.0169,-3.9373,-3.8484,-3.761,-3.6809,-3.6144,-3.5795,-3.5795,-3.5795,-3.5803,-3.5799,-3.5861,-3.5868,-3.5856,-3.5856,-3.5875,-3.5882,-3.5882,-3.5885,-3.5889,-3.5885,-3.5895,-3.5891,-3.5897,-3.588,-3.5669,-3.5124,-3.472,-3.4252,-3.3358,-3.2657,-3.1917,-3.1486,-3.1055,-3.084,-3.0762,-3.0397,-2.957,-2.8811,-2.8,-2.6955,-2.6381,-2.592,-2.5788,-2.5696,-2.57,-2.5703,-2.5703,-2.5702,-2.5694,-2.5706,-2.5694,-2.5704,-2.5692,-2.5689,-2.5703,-2.5699,-2.5699,-2.5699,-2.5699,-2.5699,-2.5699,-2.5699,-2.5699,-2.5699,-2.5699,-2.5699,-2.5697,-2.5652,-2.5628,-2.5626,-2.5624,-2.5619,-2.5627,-2.5617,-2.5604,-2.5615,-2.5607,-2.5607,-2.5598,-2.5609,-2.5602,-2.558,-2.554,-2.5511,-2.5472,-2.5402,-2.5313,-2.5252,-2.5234,-2.5191,-2.5151,-2.5114,-2.5076,-2.5057,-2.5018,-2.5011,-2.5004,-2.4984,-2.4984,-2.4984,-2.4984,-2.4957,-2.4943,-2.4917,-2.4896,-2.4861,-2.4798,-2.4772,-4.0888,-4.0888,-4.0888,-4.0888,-4.0791,-4.0189,-3.9353,-3.8538,-3.7702,-3.677,-3.6067,-3.5892,-3.5795,-3.5795,-3.5795,-3.5795,-3.5803,-3.5807,-3.5819,-3.5811,-3.5811,-3.5841,-3.5895,-3.5882,-3.5895,-3.5891,-3.5875,-3.5882,-3.5889,-3.5889,-3.5898,-3.583,-3.5716,-3.5407,-3.4753,-3.4191,-3.3553,-3.2384,-3.1975,-3.1505,-3.0938,-3.0801,-3.0336,-2.9773,-2.9275,-2.8657,-2.7431,-2.6915,-2.6476,-2.5861,-2.5726,-2.5694,-2.57,-2.5703,-2.5703,-2.5702,-2.5696,-2.5704,-2.5696,-2.5704,-2.5696,-2.5691,-2.5705,-2.5701,-2.5699,-2.5699,-2.5699,-2.5699,-2.5699,-2.5699,-2.5699,-2.5699,-2.5699,-2.5699,-2.5697,-2.5675,-2.5675,-2.5652,-2.5648,-2.5645,-2.5634,-2.5622,-2.5609,-2.5601,-2.5596,-2.5607,-2.5618,-2.5631,-2.5602,-2.5564,-2.5543,-2.5488,-2.5464,-2.5364,-2.5288,-2.5273,-2.5258,-2.521,-2.5156,-2.5119,-2.5101,-2.5063,-2.5018,-2.5005,-2.5011,-2.4998,-2.4998,-2.4991,-2.5003,-2.4971,-2.4938,-2.4924,-2.4903,-2.4849,-2.4805,-4.0893,-4.0888,-4.0888,-4.0888,-4.0791,-4.0033,-3.9217,-3.8328,-3.7469,-3.6595,-3.5911,-3.5795,-3.5795,-3.5795,-3.5795,-3.5795,-3.5795,-3.5795,-3.5799,-3.5807,-3.5811,-3.5838,-3.5842,-3.5827,-3.5846,-3.5846,-3.5865,-3.5842,-3.5873,-3.5891,-3.5889,-3.5889,-3.5892,-3.5739,-3.5207,-3.4823,-3.3927,-3.2861,-3.1909,-3.1191,-3.0899,-3.0762,-3.0606,-3.0214,-2.9775,-2.9096,-2.8416,-2.7349,-2.691,-2.6353,-2.6047,-2.5706,-2.5694,-2.57,-2.5703,-2.5703,-2.57,-2.5693,-2.5704,-2.5696,-2.5689,-2.5701,-2.5694,-2.5705,-2.5701,-2.5699,-2.5699,-2.5699,-2.5699,-2.5699,-2.5699,-2.5699,-2.5699,-2.5718,-2.5816,-2.5874,-2.5855,-2.5718,-2.5675,-2.5675,-2.573,-2.5892,-2.5977,-2.5934,-2.5848,-2.5618,-2.569,-2.5782,-2.5712,-2.5599,-2.556,-2.5517,-2.548,-2.5432,-2.5369,-2.5332,-2.5321,-2.5278,-2.5197,-2.5174,-2.5144,-2.5114,-2.507,-2.5063,-2.5069,-2.5056,-2.5018,-2.4998,-2.4991,-2.4977,-2.4971,-2.4945,-2.4931,-2.4891,-2.4849,-4.0888,-4.0869,-4.0903,-4.0888,-4.0791,-3.982,-3.9004,-3.8328,-3.7197,-3.6397,-3.595,-3.5795,-3.5795,-3.5795,-3.5795,-3.5795,-3.5795,-3.5795,-3.5795,-3.5795,-3.5795,-3.5795,-3.5799,-3.5799,-3.5799,-3.5795,-3.5818,-3.5822,-3.583,-3.5846,-3.5864,-3.5872,-3.5872,-3.584,-3.571,-3.5272,-3.4461,-3.3201,-3.1946,-3.121,-3.086,-3.0801,-3.0782,-3.0587,-3.0217,-2.973,-2.9303,-2.8178,-2.7344,-2.6807,-2.6115,-2.5716,-2.5706,-2.5694,-2.57,-2.5703,-2.5703,-2.57,-2.5693,-2.5705,-2.5698,-2.5692,-2.5704,-2.5696,-2.5691,-2.5705,-2.5703,-2.5703,-2.5701,-2.5699,-2.5699,-2.5699,-2.5874,-2.5991,-2.6108,-2.6167,-2.6264,-2.642,-2.6595,-2.6788,-2.6825,-2.6628,-2.6639,-2.6459,-2.6177,-2.5751,-2.574,-2.5971,-2.6073,-2.612,-2.6256,-2.6394,-2.6431,-2.6277,-2.5889,-2.5768,-2.5625,-2.5403,-2.534,-2.5201,-2.5184,-2.5168,-2.5132,-2.5133,-2.512,-2.5089,-2.5044,-2.5018,-2.4991,-2.4984,-2.4977,-2.4984,-2.4971,-2.4931,-2.4891,-4.0812,-4.0818,-4.0869,-4.0883,-4.0771,-3.9179,-3.8484,-3.8251,-3.6653,-3.5931,-3.5814,-3.5795,-3.5795,-3.5795,-3.5795,-3.5795,-3.5795,-3.5795,-3.5795,-3.5795,-3.5795,-3.5795,-3.5795,-3.5795,-3.5795,-3.5795,-3.5795,-3.5795,-3.5795,-3.5803,-3.5819,-3.5807,-3.583,-3.5841,-3.5774,-3.5489,-3.4627,-3.3429,-3.2255,-3.1444,-3.0996,-3.0801,-3.0801,-3.0801,-3.0684,-3.0353,-2.9535,-2.8621,-2.7788,-2.7209,-2.6378,-2.5743,-2.5736,-2.5707,-2.5695,-2.57,-2.5703,-2.5702,-2.5699,-2.569,-2.5701,-2.5697,-2.5693,-2.5707,-2.5702,-2.5696,-2.5692,-2.5731,-2.5825,-2.5878,-2.5818,-2.5796,-2.6363,-2.6634,-2.6907,-2.7061,-2.7275,-2.7548,-2.7723,-2.7957,-2.782,-2.7487,-2.7409,-2.7247,-2.6967,-2.6564,-2.667,-2.6898,-2.7273,-2.7394,-2.7534,-2.7656,-2.7727,-2.7446,-2.6765,-2.6554,-2.6379,-2.5972,-2.5687,-2.5435,-2.5231,-2.5193,-2.5191,-2.5162,-2.5144,-2.5107,-2.5076,-2.5057,-2.5012,-2.4998,-2.4991,-2.4991,-2.4984,-2.4945,-2.4931,-4.0798,-4.0804,-4.0823,-4.0849,-4.0767,-3.9096,-3.8387,-3.8115,-3.6572,-3.5795,-3.5795,-3.5795,-3.5795,-3.5795,-3.5795,-3.5795,-3.5795,-3.5795,-3.5795,-3.5795,-3.5795,-3.5795,-3.5795,-3.5795,-3.5795,-3.5795,-3.5795,-3.5795,-3.5795,-3.5795,-3.5799,-3.5807,-3.5807,-3.5811,-3.5745,-3.541,-3.4478,-3.3523,-3.2503,-3.1629,-3.0977,-3.0801,-3.0801,-3.0801,-3.0801,-3.0665,-3.0217,-2.9457,-2.8602,-2.7768,-2.6956,-2.6359,-2.5861,-2.5797,-2.5766,-2.5773,-2.578,-2.582,-2.58,-2.5755,-2.5706,-2.5699,-2.5697,-2.5714,-2.577,-2.5725,-2.5704,-2.5819,-2.6226,-2.6476,-2.6527,-2.6936,-2.7462,-2.763,-2.7803,-2.7959,-2.823,-2.8522,-2.8561,-2.8658,-2.8366,-2.8015,-2.8035,-2.8072,-2.7753,-2.7452,-2.762,-2.7845,-2.826,-2.8475,-2.8537,-2.8563,-2.8595,-2.8355,-2.7675,-2.7373,-2.7151,-2.6648,-2.6121,-2.5876,-2.5644,-2.5276,-2.5258,-2.5231,-2.5172,-2.5143,-2.5113,-2.5063,-2.5057,-2.5044,-2.5018,-2.4992,-2.4979,-2.4996,-2.5103,-4.0028,-4.0033,-4.0034,-4.0241,-4.0306,-3.8986,-3.8222,-3.7761,-3.644,-3.5795,-3.5795,-3.5795,-3.5795,-3.5795,-3.5795,-3.5795,-3.5795,-3.5795,-3.5795,-3.5795,-3.5795,-3.5795,-3.5795,-3.5795,-3.5795,-3.5795,-3.5795,-3.5795,-3.5795,-3.5795,-3.5795,-3.5795,-3.5795,-3.5795,-3.5686,-3.5251,-3.4519,-3.3703,-3.2842,-3.1991,-3.13,-3.0916,-3.0801,-3.0801,-3.0801,-3.0782,-3.049,-2.9866,-2.9223,-2.8524,-2.7807,-2.6954,-2.6421,-2.6082,-2.6074,-2.6082,-2.6109,-2.6172,-2.6328,-2.5934,-2.575,-2.5704,-2.5702,-2.5836,-2.599,-2.6104,-2.6296,-2.6688,-2.7114,-2.7383,-2.7394,-2.7766,-2.823,-2.842,-2.8552,-2.8745,-2.9148,-2.9457,-2.936,-2.9301,-2.9106,-2.9165,-2.9204,-2.9282,-2.889,-2.8588,-2.8525,-2.8848,-2.9344,-2.9443,-2.9327,-2.9318,-2.9269,-2.8948,-2.8546,-2.8384,-2.8144,-2.7453,-2.6951,-2.6534,-2.6232,-2.5847,-2.5417,-2.5271,-2.5215,-2.5181,-2.5153,-2.513,-2.5126,-2.5101,-2.5063,-2.5018,-2.517,-2.5232,-2.5465,-3.8334,-3.8243,-3.8401,-3.8884,-3.9432,-3.8671,-3.7874,-3.7197,-3.6246,-3.5795,-3.5795,-3.5795,-3.5795,-3.5795,-3.5795,-3.5795,-3.5795,-3.5795,-3.5795,-3.5795,-3.5795,-3.5795,-3.5795,-3.5795,-3.5795,-3.5795,-3.5795,-3.5795,-3.5795,-3.5795,-3.5795,-3.5795,-3.5795,-3.5795,-3.5795,-3.5776,-3.5341,-3.4547,-3.3628,-3.2842,-3.1893,-3.1242,-3.1035,-3.0801,-3.0801,-3.0801,-3.0606,-3.0178,-2.9613,-2.9165,-2.858,-2.7807,-2.7094,-2.697,-2.6964,-2.6976,-2.6966,-2.7342,-2.7949,-2.6578,-2.6122,-2.6097,-2.631,-2.6408,-2.6817,-2.7029,-2.7181,-2.7573,-2.8115,-2.8249,-2.8285,-2.842,-2.8941,-2.9246,-2.9398,-2.9552,-2.9955,-3.0143,-3.0007,-2.9929,-3.0353,-3.0684,-3.0645,-3.0548,-3.01,-2.9783,-2.9564,-2.9771,-3.0192,-3.0239,-3.0027,-2.9949,-2.9881,-2.9754,-2.9472,-2.9407,-2.9094,-2.8369,-2.7833,-2.7456,-2.6938,-2.6482,-2.602,-2.5519,-2.5248,-2.5231,-2.5209,-2.5206,-2.518,-2.5132,-2.5095,-2.5108,-2.5272,-2.5525,-2.5841,-3.8202,-3.8208,-3.8271,-3.8147,-3.7875,-3.7622,-3.7325,-3.6984,-3.6222,-3.5795,-3.5795,-3.5795,-3.5795,-3.5795,-3.5795,-3.5795,-3.5795,-3.5795,-3.5795,-3.5795,-3.5795,-3.5795,-3.5795,-3.5795,-3.5795,-3.5795,-3.5795,-3.5795,-3.5795,-3.5795,-3.5795,-3.5795,-3.5795,-3.5795,-3.5795,-3.5749,-3.5399,-3.4699,-3.414,-3.3517,-3.218,-3.1768,-3.1366,-3.0877,-3.0838,-3.0799,-3.0801,-3.0353,-3.008,-2.9691,-2.9126,-2.866,-2.7985,-2.78,-2.7812,-2.7843,-2.7874,-2.7964,-2.8222,-2.7634,-2.7491,-2.7429,-2.7308,-2.7405,-2.7833,-2.7871,-2.8085,-2.8417,-2.8942,-2.9056,-2.9131,-2.9716,-3.018,-3.025,-3.0363,-3.0384,-3.0574,-3.0624,-3.0581,-3.054,-3.0769,-3.0784,-3.0784,-3.0801,-3.049,-3.0412,-3.0173,-3.0207,-3.055,-3.0623,-3.0514,-3.049,-3.0455,-3.0445,-3.0341,-3.0097,-2.9799,-2.9175,-2.876,-2.8485,-2.7933,-2.7303,-2.6756,-2.6314,-2.5755,-2.5273,-2.5275,-2.528,-2.5214,-2.5155,-2.5386,-2.5558,-2.578,-2.6071,-2.6394,-3.7348,-3.7334,-3.7409,-3.7124,-3.6692,-3.6923,-3.6932,-3.6591,-3.6047,-3.5795,-3.5795,-3.5795,-3.5795,-3.5795,-3.5795,-3.5795,-3.5795,-3.5795,-3.5795,-3.5795,-3.5795,-3.5795,-3.5795,-3.5795,-3.5795,-3.5795,-3.5795,-3.5795,-3.5795,-3.5795,-3.5795,-3.5795,-3.5795,-3.5795,-3.5795,-3.5721,-3.5585,-3.5038,-3.4671,-3.4098,-3.308,-3.2414,-3.1785,-3.1317,-3.1028,-3.0796,-3.0799,-3.0704,-3.0548,-3.0078,-2.9808,-2.9515,-2.8935,-2.8649,-2.8681,-2.8712,-2.908,-2.9173,-2.9277,-2.9277,-2.9215,-2.9186,-2.8733,-2.8498,-2.8654,-2.8752,-2.9005,-2.9336,-2.9689,-2.9843,-3.0034,-3.0698,-3.0714,-3.0765,-3.0764,-3.0764,-3.0778,-3.079,-3.0788,-3.0784,-3.08,-3.0795,-3.0786,-3.0801,-3.0704,-3.0723,-3.0762,-3.0794,-3.0791,-3.0786,-3.08,-3.0761,-3.072,-3.063,-3.06,-3.0551,-3.0256,-2.9899,-2.9629,-2.9369,-2.8884,-2.8255,-2.767,-2.7046,-2.6468,-2.5923,-2.5507,-2.5373,-2.5666,-2.5904,-2.6148,-2.6282,-2.6365,-2.6758,-2.7215,-3.5727,-3.5718,-3.5766,-3.5862,-3.5959,-3.6599,-3.6492,-3.5834,-3.5834,-3.5795,-3.5795,-3.5795,-3.5795,-3.5795,-3.5795,-3.5795,-3.5795,-3.5795,-3.5795,-3.5795,-3.5795,-3.5795,-3.5795,-3.5795,-3.5795,-3.5795,-3.5795,-3.5795,-3.5795,-3.5795,-3.5795,-3.5795,-3.5795,-3.5795,-3.5795,-3.5775,-3.5721,-3.5438,-3.51,-3.4605,-3.3955,-3.3074,-3.2369,-3.183,-3.1365,-3.0984,-3.0872,-3.0757,-3.074,-3.0662,-3.0665,-3.0217,-2.9812,-2.9546,-2.9538,-2.9749,-3.0371,-3.0501,-3.0566,-3.0508,-3.0546,-3.0247,-2.9342,-2.9184,-2.9338,-2.9611,-2.9826,-3.0138,-3.0449,-3.0586,-3.0781,-3.078,-3.0778,-3.0795,-3.0792,-3.0789,-3.0783,-3.0799,-3.0798,-3.0798,-3.0796,-3.079,-3.0798,-3.0793,-3.0786,-3.0801,-3.0801,-3.0799,-3.0796,-3.0791,-3.0789,-3.08,-3.0739,-3.0701,-3.0707,-3.0697,-3.0613,-3.024,-3.0326,-3.0114,-2.9648,-2.9144,-2.8545,-2.7907,-2.7185,-2.6675,-2.6388,-2.6335,-2.6481,-2.6725,-2.6969,-2.7192,-2.7344,-2.7897,-2.8374,-3.5728,-3.5766,-3.5793,-3.5806,-3.5825,-3.6039,-3.5985,-3.5814,-3.5795,-3.5795,-3.5795,-3.5795,-3.5795,-3.5795,-3.5795,-3.5795,-3.5795,-3.5795,-3.5795,-3.5795,-3.5791,-3.5795,-3.5791,-3.5791,-3.5795,-3.5795,-3.5795,-3.5795,-3.5795,-3.5795,-3.5795,-3.5795,-3.5795,-3.5795,-3.5795,-3.5795,-3.5795,-3.5741,-3.5461,-3.5139,-3.4757,-3.3978,-3.3151,-3.236,-3.1818,-3.1379,-3.1,-3.0828,-3.0811,-3.0799,-3.0801,-3.0548,-3.0509,-3.0416,-3.0425,-3.0448,-3.0699,-3.0809,-3.0896,-3.0918,-3.0918,-3.0915,-3.0285,-3.0318,-3.0412,-3.0411,-3.0509,-3.0683,-3.08,-3.08,-3.08,-3.08,-3.0799,-3.0799,-3.0798,-3.0795,-3.0791,-3.0789,-3.0788,-3.0786,-3.0786,-3.0798,-3.0788,-3.08,-3.0793,-3.0786,-3.0801,-3.0801,-3.0799,-3.0796,-3.0794,-3.0789,-3.0778,-3.0739,-3.0701,-3.0711,-3.0701,-3.0655,-3.0664,-3.0637,-3.0273,-2.9788,-2.9334,-2.8735,-2.8005,-2.7619,-2.7376,-2.7385,-2.7416,-2.7618,-2.7854,-2.8103,-2.8407,-2.884,-2.9221,-3.5742,-3.5803,-3.5806,-3.5795,-3.5795,-3.5795,-3.5795,-3.5795,-3.5795,-3.5795,-3.5795,-3.5795,-3.5795,-3.5795,-3.5795,-3.5795,-3.5795,-3.5795,-3.5795,-3.5791,-3.5806,-3.5801,-3.5801,-3.5801,-3.5801,-3.5806,-3.5791,-3.5795,-3.5795,-3.5795,-3.5795,-3.5795,-3.5795,-3.5795,-3.5795,-3.5795,-3.5795,-3.5799,-3.569,-3.5481,-3.5162,-3.4761,-3.3835,-3.3103,-3.2542,-3.1734,-3.1259,-3.1068,-3.0784,-3.0791,-3.0794,-3.0796,-3.0782,-3.0786,-3.0774,-3.0755,-3.077,-3.0821,-3.085,-3.0896,-3.0898,-3.0917,-3.0915,-3.0832,-3.0768,-3.0725,-3.0723,-3.08,-3.08,-3.08,-3.08,-3.08,-3.08,-3.08,-3.08,-3.08,-3.0799,-3.0796,-3.0796,-3.0795,-3.0791,-3.0785,-3.0796,-3.0788,-3.08,-3.0793,-3.0786,-3.0801,-3.0801,-3.0799,-3.0799,-3.0794,-3.0786,-3.0776,-3.0739,-3.0704,-3.0711,-3.0704,-3.0694,-3.0644,-3.0579,-3.0366,-2.9854,-2.9367,-2.8834,-2.8459,-2.8105,-2.8264,-2.8353,-2.8516,-2.8734,-2.9052,-2.9249,-2.9452,-2.9796,-3.5645,-3.5672,-3.5767,-3.5795,-3.5795,-3.5795,-3.5795,-3.5795,-3.5795,-3.5795,-3.5795,-3.5795,-3.5795,-3.5795,-3.5795,-3.5795,-3.5795,-3.5795,-3.5791,-3.5791,-3.5797,-3.5784,-3.578,-3.5799,-3.5788,-3.5793,-3.5801,-3.5795,-3.5795,-3.5795,-3.5795,-3.5795,-3.5795,-3.5795,-3.5795,-3.5795,-3.5795,-3.5795,-3.5795,-3.5682,-3.5546,-3.5104,-3.4564,-3.4209,-3.3183,-3.2062,-3.1747,-3.1306,-3.0728,-3.0759,-3.0784,-3.0786,-3.0799,-3.0789,-3.0795,-3.0786,-3.0799,-3.0794,-3.0823,-3.0851,-3.0877,-3.0898,-3.0917,-3.0896,-3.0872,-3.0846,-3.0844,-3.0801,-3.08,-3.08,-3.08,-3.08,-3.08,-3.08,-3.08,-3.08,-3.08,-3.0799,-3.0799,-3.0798,-3.0795,-3.0791,-3.0786,-3.0799,-3.0788,-3.0802,-3.0793,-3.0786,-3.0801,-3.0801,-3.0799,-3.0799,-3.0794,-3.0786,-3.0778,-3.0742,-3.0704,-3.0695,-3.0704,-3.0694,-3.0644,-3.0529,-3.037,-2.995,-2.9543,-2.91,-2.8806,-2.9019,-2.9189,-2.9262,-2.9526,-2.9978,-3.0148,-3.0039,-3.007,-3.4786,-3.4878,-3.5523,-3.5795,-3.5795,-3.5795,-3.5795,-3.5795,-3.5795,-3.5795,-3.5795,-3.5795,-3.5795,-3.5795,-3.5795,-3.5795,-3.5795,-3.5791,-3.5806,-3.5793,-3.5799,-3.5766,-3.5742,-3.577,-3.578,-3.5788,-3.5801,-3.5795,-3.5795,-3.5795,-3.5795,-3.5795,-3.5795,-3.5795,-3.5795,-3.5795,-3.5795,-3.5795,-3.5795,-3.5795,-3.5698,-3.5581,-3.5259,-3.4544,-3.3479,-3.2651,-3.2117,-3.1268,-3.0869,-3.0725,-3.0709,-3.0737,-3.0789,-3.0799,-3.0791,-3.08,-3.0788,-3.0803,-3.0795,-3.0824,-3.0851,-3.0877,-3.0898,-3.0917,-3.0915,-3.089,-3.0865,-3.0823,-3.08,-3.08,-3.08,-3.08,-3.08,-3.08,-3.08,-3.08,-3.08,-3.08,-3.08,-3.08,-3.0799,-3.0796,-3.0792,-3.0786,-3.0798,-3.079,-3.0802,-3.0793,-3.0786,-3.0801,-3.0801,-3.0799,-3.0799,-3.0794,-3.0786,-3.0778,-3.0742,-3.0704,-3.0695,-3.0704,-3.0694,-3.0618,-3.0521,-3.0536,-3.0275,-2.9814,-2.9646,-2.9941,-3.0063,-2.9945,-2.9896,-3.0177,-3.0219,-3.0129,-3.0154,-3.3928,-3.4035,-3.4862,-3.5445,-3.5756,-3.5795,-3.5795,-3.5795,-3.5795,-3.5795,-3.5795,-3.5795,-3.5795,-3.5795,-3.5795,-3.5795,-3.5791,-3.5806,-3.5797,-3.5803,-3.5761,-3.5723,-3.5723,-3.5732,-3.5742,-3.577,-3.5801,-3.5795,-3.5795,-3.5795,-3.5795,-3.5795,-3.5795,-3.5795,-3.5795,-3.5795,-3.5795,-3.5795,-3.5795,-3.5795,-3.5795,-3.5717,-3.5639,-3.4905,-3.4249,-3.3417,-3.2605,-3.1734,-3.1142,-3.0843,-3.0697,-3.0706,-3.0737,-3.0767,-3.0796,-3.0786,-3.0798,-3.0788,-3.0785,-3.0796,-3.0823,-3.0852,-3.0877,-3.0898,-3.0917,-3.0895,-3.089,-3.0848,-3.0801,-3.08,-3.08,-3.08,-3.08,-3.08,-3.08,-3.08,-3.08,-3.08,-3.08,-3.08,-3.08,-3.0799,-3.0796,-3.0792,-3.0786,-3.0801,-3.0794,-3.0802,-3.0793,-3.0784,-3.0804,-3.0801,-3.0801,-3.0799,-3.0794,-3.0786,-3.0778,-3.0742,-3.0704,-3.0707,-3.0697,-3.0703,-3.0688,-3.0649,-3.0629,-3.0522,-3.0492,-3.0485,-3.0419,-3.0225,-3.0177,-3.0241,-3.0227,-3.0239,-3.0263,-3.3119,-3.33,-3.4043,-3.475,-3.5445,-3.5581,-3.56,-3.562,-3.5756,-3.5795,-3.5795,-3.5795,-3.5795,-3.5795,-3.5795,-3.5795,-3.5806,-3.5793,-3.5803,-3.5761,-3.5713,-3.5718,-3.5698,-3.5713,-3.5732,-3.5756,-3.5778,-3.5791,-3.5795,-3.5795,-3.5795,-3.5795,-3.5795,-3.5795,-3.5795,-3.5795,-3.5795,-3.5795,-3.5795,-3.5795,-3.5795,-3.5795,-3.5756,-3.5465,-3.4964,-3.4167,-3.339,-3.2617,-3.1766,-3.1154,-3.0821,-3.0694,-3.0722,-3.0753,-3.0784,-3.0794,-3.0784,-3.0795,-3.0788,-3.0785,-3.0794,-3.0804,-3.0853,-3.0877,-3.0898,-3.0898,-3.0895,-3.0871,-3.0826,-3.0801,-3.0801,-3.08,-3.08,-3.08,-3.08,-3.08,-3.08,-3.08,-3.08,-3.08,-3.08,-3.08,-3.0799,-3.0796,-3.0794,-3.0789,-3.0803,-3.0792,-3.08,-3.0793,-3.0789,-3.0784,-3.0801,-3.0799,-3.0799,-3.0794,-3.0786,-3.0778,-3.0742,-3.072,-3.0701,-3.0694,-3.0706,-3.0688,-3.0688,-3.0664,-3.063,-3.0554,-3.0479,-3.0419,-3.0367,-3.0299,-3.0247,-3.0252,-3.0347,-3.2563,-3.3222,-3.346,-3.3662,-3.3895,-3.4459,-3.4754,-3.4886,-3.5484,-3.5795,-3.5655,-3.5756,-3.5795,-3.5775,-3.5795,-3.5806,-3.5793,-3.5799,-3.5752,-3.5723,-3.5713,-3.5711,-3.5716,-3.5708,-3.5727,-3.5754,-3.5786,-3.5791,-3.5795,-3.5795,-3.5795,-3.5795,-3.5795,-3.5795,-3.5795,-3.5795,-3.5795,-3.5795,-3.5795,-3.5795,-3.5795,-3.5795,-3.5795,-3.5445,-3.4944,-3.4556,-3.407,-3.3448,-3.2633,-3.1844,-3.1154,-3.0892,-3.0805,-3.0794,-3.0748,-3.0778,-3.0789,-3.0784,-3.0798,-3.0788,-3.0799,-3.0795,-3.0826,-3.0852,-3.0857,-3.0898,-3.0898,-3.0896,-3.0872,-3.0846,-3.0824,-3.0801,-3.08,-3.08,-3.08,-3.08,-3.08,-3.08,-3.08,-3.08,-3.08,-3.08,-3.08,-3.0798,-3.0798,-3.0794,-3.0791,-3.0801,-3.0788,-3.0802,-3.0793,-3.0789,-3.0804,-3.0801,-3.0801,-3.0799,-3.0794,-3.0786,-3.0776,-3.0755,-3.072,-3.0711,-3.0701,-3.0706,-3.0688,-3.0665,-3.0632,-3.0597,-3.055,-3.0493,-3.0414,-3.0361,-3.0343,-3.0585,-3.0917]},{"header":{"parameterUnit":"m.s-1","parameterCategory":1,"la1":31.0,"la2":29.5877,"lo1":-88.7671,"lo2":-86.6584,"dy":0.0162,"dx":0.0185,"nx":115,"ny":88,"refTime":"2023-06-05T06:00:00:Z","depth":0,"parameterNumber":3,"parameterNumberName":"V-component_of_WINDS"},"data":[0.0,0.0,0.0,0.0,0.0,0.0,0.0,0.0,0.0,0.0,0.0,0.0,0.0,0.0,0.0,0.0,0.0,0.0,0.0,0.0,0.0,0.0,0.0,0.0,0.0,0.0,0.0,0.0,0.0,0.0,0.0,0.0,0.0,0.0,0.0,0.0,0.0,0.0,0.0,0.0,0.0,0.0,0.0,0.0,0.0,0.0,0.0,0.0,0.0,0.0,0.0,0.0,0.0,0.0,0.0,0.0,0.0,0.0,0.0,0.0,0.0,0.0,0.0,0.0,0.0,0.0,0.0,0.0,0.0,0.0,0.0,0.0,0.0,0.0,0.0,0.0,0.0,0.0,0.0,0.0,0.0,0.0,0.0,0.0,0.0,0.0,0.0,0.0,0.0,0.0,0.0,0.0,0.0,0.0,0.0,0.0,0.0,0.0,0.0,0.0,0.0,0.0,0.0,0.0,0.0,0.0,0.0,0.0,0.0,0.0,0.0,0.0,0.0,0.0,0.0,0.0,0.0,0.0,0.0,0.0,0.0,0.0,0.0,0.0,0.0,0.0,0.0,0.0,0.0,0.0,0.0,0.0,0.0,0.0,0.0,0.0,0.0,0.0,0.0,0.0,0.0,0.0,0.0,0.0,0.0,0.0,0.0,0.0,0.0,0.0,0.0,0.0,0.0,0.0,0.0,0.0,0.0,0.0,0.0,0.0,0.0,0.0,0.0,0.0,0.0,0.0,0.0,0.0,0.0,0.0,0.0,0.0,0.0,0.0,0.0,0.0,0.0,0.0,0.0,0.0,0.0,0.0,0.0,0.0,0.0,0.0,0.0,0.0,0.0,0.0,0.0,0.0,0.0,0.0,0.0,0.0,0.0,0.0,0.0,0.0,0.0,0.0,0.0,0.0,0.0,0.0,0.0,0.0,0.0,0.0,0.0,0.0,0.0,0.0,0.0,0.0,0.0,0.0,0.0,0.0,0.0,0.0,0.0,0.0,0.0,0.0,0.0,0.0,0.0,0.0,0.0,0.0,0.0,0.0,0.0,0.0,0.0,0.0,0.0,0.0,0.0,0.0,0.0,0.0,0.0,0.0,0.0,0.0,0.0,0.0,0.0,0.0,0.0,0.0,0.0,0.0,0.0,0.0,0.0,0.0,0.0,0.0,0.0,0.0,0.0,0.0,0.0,0.0,0.0,0.0,0.0,0.0,0.0,0.0,0.0,0.0,0.0,0.0,0.0,0.0,0.0,0.0,0.0,0.0,0.0,0.0,0.0,0.0,0.0,0.0,0.0,0.0,0.0,0.0,0.0,0.0,0.0,0.0,0.0,0.0,0.0,0.0,0.0,0.0,0.0,0.0,0.0,0.0,0.0,0.0,0.0,0.0,0.0,0.0,0.0,0.0,0.0,0.0,0.0,0.0,0.0,0.0,0.0,0.0,0.0,0.0,0.0,0.0,0.0,0.0,0.0,0.0,0.0,0.0,0.0,0.0,0.0,0.0,0.0,0.0,0.0,0.0,0.0,0.0,0.0,0.0,0.0,0.0,0.0,0.0,0.0,0.0,0.0,0.0,0.0,0.0,0.0,0.0,0.0,0.0,0.0,0.0,0.0,0.0,0.0,0.0,0.0,0.0,0.0,0.0,0.0,0.0,0.0,0.0,0.0,0.0,0.0,0.0,0.0,0.0,0.0,0.0,0.0,0.0,0.0,0.0,0.0,0.0,0.0,0.0,0.0,0.0,0.0,0.0,0.0,0.0,0.0,0.0,0.0,0.0,0.0,0.0,0.0,0.0,0.0,0.0,0.0,0.0,0.0,0.0,0.0,0.0,0.0,0.0,0.0,0.0,0.0,0.0,0.0,0.0,0.0,0.0,0.0,0.0,0.0,0.0,0.0,0.0,0.0,0.0,0.0,0.0,0.0,0.0,0.0,0.0,0.0,0.0,0.0,0.0,0.0,0.0,0.0,0.0,0.0,0.0,0.0,0.0,0.0,0.0,0.0,0.0,0.0,0.0,0.0,0.0,0.0,0.0,0.0,0.0,0.0,0.0,0.0,0.0,0.0,0.0,0.0,0.0,0.0,0.0,0.0,0.0,0.0,0.0,0.0,0.0,0.0,0.0,0.0,0.0,0.0,0.0,0.0,0.0,0.0,0.0,0.0,0.0,0.0,0.0,0.0,0.0,0.0,0.0,0.0,0.0,0.0,0.0,0.0,0.0,0.0,0.0,0.0,0.0,0.0,0.0,0.0,0.0,0.0,0.0,0.0,0.0,0.0,0.0,0.0,0.0,0.0,0.0,0.0,0.0,0.0,0.0,0.0,0.0,0.0,0.0,0.0,0.0,0.0,0.0,0.0,0.0,0.0,0.0,0.0,0.0,0.0,0.0,0.0,0.0,0.0,0.0,0.0,0.0,0.0,0.0,0.0,0.0,0.0,0.0,0.0,0.0,0.0,0.0,0.0,0.0,0.0,0.0,0.0,0.0,0.0,0.0,0.0,0.0,0.0,0.0,0.0,0.0,0.0,0.0,0.0,0.0,0.0,0.0,0.0,0.0,0.0,0.0,0.0,0.0,0.0,0.0,0.0,0.0,0.0,0.0,0.0,0.0,0.0,0.0,0.0,0.0,0.0,0.0,0.0,0.0,0.0,0.0,0.0,0.0,0.0,0.0,0.0,0.0,0.0,0.0,0.0,0.0,0.0,0.0,0.0,0.0,0.0,0.0,0.0,0.0,0.0,0.0,0.0,0.0,0.0,0.0,0.0,0.0,0.0,0.0,0.0,0.0,0.0,0.0,0.0,0.0,0.0,0.0,0.0,0.0,0.0,0.0,0.0,0.0,0.0,0.0,0.0,0.0,0.0,0.0,0.0,0.0,0.0,0.0,0.0,0.0,0.0,0.0,0.0,0.0,0.0,0.0,0.0,0.0,0.0,0.0,0.0,0.0,0.0,0.0,0.0,0.0,0.0,0.0,0.0,0.0,0.0,0.0,0.0,0.0,0.0,0.0,0.0,0.0,0.0,0.0,0.0,0.0,0.0,0.0,0.0,0.0,0.0,0.0,0.0,0.0,0.0,0.0,0.0,0.0,0.0,0.0,0.0,0.0,0.0,0.0,0.0,0.0,0.0,0.0,0.0,0.0,0.0,0.0,0.0,0.0,0.0,0.0,0.0,0.0,0.0,0.0,0.0,0.0,0.0,0.0,0.0,0.0,0.0,0.0,0.0,0.0,0.0,0.0,0.0,0.0,0.0,0.0,0.0,0.0,0.0,0.0,0.0,0.0,0.0,0.0,0.0,0.0,0.0,0.0,0.0,0.0,0.0,0.0,0.0,0.0,0.0,0.0,0.0,0.0,0.0,0.0,0.0,0.0,0.0,0.0,0.0,0.0,0.0,0.0,0.0,0.0,0.0,0.0,0.0,0.0,0.0,0.0,0.0,0.0,0.0,0.0,0.0,0.0,0.0,0.0,0.0,0.0,0.0,0.0,0.0,0.0,0.0,0.0,0.0,0.0,0.0,0.0,0.0,0.0,0.0,0.0,0.0,0.0,0.0,0.0,0.0,0.0,0.0,0.0,0.0,0.0,0.0,0.0,0.0,0.0,0.0,0.0,0.0,0.0,0.0,0.0,0.0,0.0,0.0,0.0,0.0,0.0,0.0,0.0,0.0,0.0,0.0,0.0,0.0,0.0,0.0,0.0,0.0,0.0,0.0,0.0,0.0,0.0,0.0,0.0,0.0,0.0,0.0,0.0,0.0,0.0,0.0,0.0,0.0,0.0,0.0,0.0,0.0,0.0,0.0,0.0,0.0,0.0,0.0,0.0,0.0,0.0,0.0,0.0,0.0,0.0,0.0,0.0,0.0,0.0,0.0,0.0,0.0,0.0,0.0,0.0,0.0,0.0,0.0,0.0,0.0,0.0,0.0,0.0,0.0,0.0,0.0,0.0,0.0,0.0,0.0,0.0,0.0,0.0,0.0,0.0,0.0,0.0,0.0,0.0,0.0,0.0,0.0,0.0,0.0,0.0,0.0,0.0,0.0,0.0,0.0,0.0,0.0,0.0,0.0,0.0,0.0,0.0,0.0,0.0,0.0,0.0,0.0,0.0,0.0,0.0,0.0,0.0,0.0,0.0,0.0,0.0,0.0,0.0,0.0,0.0,0.0,0.0,0.0,0.0,0.0,0.0,0.0,0.0,0.0,0.0,0.0,0.0,0.0,0.0,0.0,0.0,0.0,0.0,0.0,0.0,0.0,0.0,0.0,0.0,0.0,0.0,0.0,0.0,-0.4796,0.0,0.0,0.0,0.0,0.0,0.0,0.0,0.0,0.0,0.0,0.0,0.0,0.0,0.0,0.0,0.0,0.0,0.0,0.0,0.0,0.0,0.0,0.0,0.0,0.0,0.0,0.0,0.0,0.0,0.0,0.0,0.0,0.0,0.0,0.0,0.0,0.0,0.0,0.0,0.0,0.0,0.0,0.0,0.0,0.0,0.0,0.0,0.0,0.0,0.0,0.0,0.0,0.0,0.0,0.0,0.0,0.0,0.0,0.0,0.0,0.0,0.0,0.0,0.0,0.0,0.0,0.0,0.0,0.0,0.0,0.0,0.0,0.0,0.0,0.0,0.0,0.0,0.0,0.0,0.0,0.0,0.0,0.0,0.0,0.0,0.0,0.0,0.0,0.0,0.0,0.0,0.0,0.0,0.0,0.0,0.0,0.0,0.0,0.0,0.0,0.0,0.0,0.0,0.0,0.0,0.0,0.0,0.0,0.0,0.0,-0.4796,-0.4796,-0.4796,-0.4764,-0.471,0.0,0.0,0.0,0.0,0.0,0.0,0.0,0.0,0.0,0.0,0.0,0.0,0.0,0.0,0.0,0.0,0.0,0.0,0.0,0.0,0.0,0.0,0.0,0.0,0.0,0.0,0.0,0.0,0.0,0.0,0.0,0.0,0.0,0.0,0.0,0.0,0.0,0.0,0.0,0.0,0.0,0.0,0.0,0.0,0.0,0.0,0.0,0.0,0.0,0.0,0.0,0.0,0.0,0.0,0.0,0.0,0.0,0.0,0.0,0.0,0.0,0.0,0.0,0.0,0.0,0.0,0.0,0.0,0.0,0.0,0.0,0.0,0.0,0.0,0.0,0.0,0.0,0.0,0.0,0.0,0.0,0.0,0.0,0.0,0.0,0.0,0.0,0.0,0.0,0.0,0.0,0.0,0.0,0.0,0.0,0.0,0.0,0.0,0.0,0.0,0.0,0.0,0.0,0.0,0.0,0.0,0.0,0.0,0.0,0.0,0.0,0.0,-0.478,-0.4694,-0.4586,0.0,0.0,0.0,0.0,0.0,0.0,0.0,0.0,0.0,0.0,0.0,0.0,0.0,0.0,0.0,0.0,0.0,0.0,0.0,0.0,0.0,0.0,0.0,0.0,0.0,0.0,0.0,0.0,0.0,0.0,0.0,0.0,0.0,0.0,0.0,0.0,0.0,0.0,0.0,0.0,0.0,0.0,0.0,0.0,0.0,0.0,0.0,0.0,0.0,0.0,0.0,0.0,0.0,0.0,0.0,0.0,0.0,0.0,0.0,0.0,0.0,0.0,0.0,0.0,0.0,0.0,0.0,0.0,0.0,0.0,0.0,0.0,0.0,0.0,0.0,0.0,0.0,0.0,0.0,0.0,0.0,0.0,0.0,0.0,0.0,0.0,0.0,0.0,0.0,0.0,0.0,0.0,0.0,0.0,0.0,0.0,0.0,0.0,0.0,0.0,0.0,0.0,0.0,0.0,0.0,0.0,0.0,0.0,0.0,0.0,-0.4796,-0.4796,-0.4688,0.0,-0.4523,0.0,0.0,0.0,0.0,0.0,0.0,0.0,0.0,0.0,0.0,0.0,0.0,0.0,0.0,0.0,0.0,0.0,0.0,0.0,0.0,0.0,0.0,0.0,0.0,0.0,0.0,0.0,0.0,0.0,0.0,0.0,0.0,0.0,0.0,0.0,0.0,0.0,0.0,0.0,0.0,0.0,0.0,0.0,0.0,0.0,0.0,0.0,0.0,0.0,0.0,0.0,0.0,0.0,0.0,0.0,0.0,0.0,0.0,0.0,0.0,0.0,0.0,0.0,0.0,0.0,0.0,0.0,0.0,0.0,0.0,0.0,0.0,0.0,0.0,0.0,0.0,0.0,0.0,0.0,0.0,0.0,0.0,0.0,0.0,0.0,0.0,0.0,0.0,0.0,0.0,0.0,0.0,0.0,0.0,0.0,0.0,0.0,0.0,0.0,0.0,0.0,0.0,0.0,0.0,0.0,0.0,0.0,0.0,0.0,0.0,-0.4672,-0.4688,-0.4543,-0.4463,0.0,0.0,0.0,0.0,0.0,0.0,0.0,0.0,0.0,0.0,0.0,0.0,0.0,0.0,0.0,0.0,0.0,0.0,0.0,0.0,0.0,0.0,0.0,0.0,0.0,0.0,0.0,0.0,0.0,0.0,0.0,0.0,0.0,0.0,0.0,0.0,0.0,0.0,0.0,0.0,0.0,0.0,0.0,0.0,0.0,0.0,0.0,0.0,0.0,0.0,0.0,0.0,0.0,0.0,0.0,0.0,0.0,0.0,0.0,0.0,0.0,0.0,0.0,0.0,0.0,0.0,0.0,0.0,0.0,0.0,0.0,0.0,0.0,0.0,0.0,0.0,0.0,0.0,0.0,0.0,0.0,0.0,0.0,0.0,0.0,0.0,0.0,0.0,0.0,0.0,0.0,0.0,0.0,0.0,0.0,0.0,0.0,0.0,0.0,0.0,0.0,0.0,0.0,0.0,0.0,0.0,0.0,0.0,0.0,0.0,-0.4656,-0.4586,-0.4543,-0.4431,-0.4366,-0.4323,0.0,0.0,0.0,0.0,0.0,0.0,0.0,0.0,0.0,0.0,0.0,0.0,0.0,0.0,0.0,0.0,0.0,0.0,0.0,0.0,0.0,0.0,0.0,0.0,0.0,0.0,0.0,0.0,0.0,0.0,0.0,0.0,0.0,0.0,0.0,0.0,0.0,0.0,0.0,0.0,0.0,0.0,0.0,0.0,0.0,0.0,0.0,0.0,0.0,0.0,0.0,0.0,0.0,0.0,0.0,0.0,0.0,0.0,0.0,0.0,0.0,0.0,0.0,0.0,0.0,0.0,0.0,0.0,0.0,0.0,0.0,0.0,0.0,0.0,0.0,0.0,0.0,0.0,0.0,0.0,0.0,0.0,0.0,0.0,0.0,0.0,0.0,0.0,0.0,0.0,0.0,0.0,0.0,0.0,0.0,0.0,0.0,0.0,0.0,0.0,0.0,0.0,0.0,0.0,0.0,0.0,0.0,0.0,0.0,-0.4602,-0.4522,-0.442,-0.4334,-0.4237,0.0,0.0,0.0,0.0,0.0,0.0,0.0,0.0,0.0,0.0,0.0,0.0,0.0,0.0,0.0,0.0,0.0,0.0,0.0,0.0,0.0,0.0,0.0,0.0,0.0,0.0,0.0,0.0,0.0,0.0,0.0,0.0,0.0,0.0,0.0,0.0,0.0,0.0,0.0,0.0,0.0,0.0,0.0,0.0,0.0,0.0,0.0,0.0,0.0,0.0,0.0,0.0,0.0,0.0,0.0,0.0,0.0,0.0,0.0,0.0,0.0,0.0,0.0,0.0,0.0,0.0,0.0,0.0,0.0,0.0,0.0,0.0,0.0,0.0,0.0,0.0,0.0,0.0,0.0,0.0,0.0,0.0,0.0,0.0,0.0,0.0,0.0,0.0,0.0,0.0,0.0,0.0,0.0,0.0,0.0,0.0,0.0,0.0,0.0,0.0,0.0,0.0,0.0,0.0,0.0,0.0,0.0,0.0,0.0,-0.4602,-0.4473,-0.4344,-0.421,-0.414,-0.4053,0.0,0.0,0.0,0.0,0.0,0.0,0.0,0.0,0.0,0.0,0.0,0.0,0.0,0.0,0.0,0.0,0.0,0.0,0.0,0.0,0.0,0.0,0.0,0.0,0.0,0.0,0.0,0.0,0.0,0.0,0.0,0.0,0.0,0.0,0.0,0.0,0.0,0.0,0.0,0.0,0.0,0.0,0.0,0.0,0.0,0.0,0.0,0.0,0.0,0.0,0.0,0.0,0.0,0.0,0.0,0.0,0.0,0.0,0.0,0.0,0.0,0.0,0.0,0.0,0.0,0.0,0.0,0.0,0.0,0.0,0.0,0.0,0.0,0.0,0.0,0.0,0.0,0.0,0.0,0.0,0.0,0.0,0.0,0.0,0.0,0.0,0.0,0.0,0.0,0.0,0.0,0.0,0.0,0.0,0.0,0.0,0.0,0.0,0.0,0.0,0.0,0.0,0.0,0.0,0.0,0.0,0.0,0.0,0.0,-0.4543,0.0,-0.4177,0.0,-0.3945,-0.3875,0.0,0.0,0.0,0.0,0.0,0.0,0.0,0.0,0.0,0.0,0.0,0.0,0.0,0.0,0.0,0.0,0.0,0.0,0.0,0.0,0.0,0.0,0.0,0.0,0.0,0.0,0.0,0.0,0.0,0.0,0.0,0.0,0.0,0.0,0.0,0.0,0.0,0.0,0.0,0.0,0.0,0.0,0.0,0.0,0.0,0.0,0.0,0.0,0.0,0.0,0.0,0.0,0.0,0.0,0.0,0.0,0.0,0.0,0.0,0.0,0.0,0.0,0.0,0.0,0.0,0.0,0.0,0.0,0.0,0.0,0.0,0.0,0.0,0.0,0.0,0.0,0.0,0.0,0.0,0.0,0.0,0.0,0.0,0.0,0.0,0.0,0.0,0.0,0.0,0.0,0.0,0.0,0.0,0.0,0.0,0.0,0.0,0.0,0.0,0.0,0.0,0.0,0.0,0.0,0.0,0.0,0.0,0.0,-0.4543,-0.4404,-0.4194,-0.408,-0.3993,-0.3798,-0.3672,0.0,0.0,0.0,0.0,0.0,0.0,0.0,0.0,0.0,0.0,0.0,0.0,0.0,0.0,0.0,0.0,0.0,0.0,0.0,0.0,0.0,0.0,0.0,0.0,0.0,0.0,0.0,0.0,0.0,0.0,0.0,0.0,0.0,0.0,0.0,0.0,0.0,0.0,0.0,0.0,0.0,0.0,0.0,0.0,0.0,0.0,0.0,0.0,0.0,0.0,0.0,0.0,0.0,0.0,0.0,0.0,0.0,0.0,0.0,0.0,0.0,0.0,0.0,0.0,0.0,0.0,0.0,0.0,0.0,0.0,0.0,0.0,0.0,0.0,0.0,0.0,0.0,0.0,0.0,0.0,0.0,0.0,0.0,0.0,0.0,0.0,0.0,0.0,0.0,0.0,0.0,0.0,0.0,0.0,0.0,0.0,0.0,0.0,0.0,0.0,0.0,0.0,0.0,0.0,0.0,0.0,0.0,0.0,0.0,-0.4183,-0.408,-0.3945,-0.3782,-0.3635,-0.3483,0.0,0.0,0.0,0.0,0.0,0.0,0.0,0.0,0.0,0.0,0.0,0.0,0.0,0.0,0.0,0.0,0.0,0.0,0.0,0.0,0.0,0.0,0.0,0.0,0.0,0.0,0.0,0.0,0.0,0.0,0.0,0.0,0.0,0.0,0.0,0.0,0.0,0.0,0.0,0.0,0.0,0.0,0.0,0.0,0.0,0.0,0.0,0.0,0.0,0.0,0.0,0.0,0.0,0.0,0.0,0.0,0.0,0.0,0.0,0.0,0.0,0.0,0.0,0.0,0.0,0.0,0.0,0.0,0.0,0.0,0.0,0.0,0.0,0.0,0.0,0.0,0.0,0.0,0.0,0.0,0.0,0.0,0.0,0.0,0.0,0.0,0.0,0.0,0.0,0.0,0.0,0.0,0.0,0.0,0.0,0.0,0.0,0.0,0.0,0.0,0.0,0.0,0.0,0.0,0.0,0.0,0.0,0.0,0.0,-0.4338,-0.4224,-0.4081,-0.3878,-0.3629,-0.342,-0.3259,0.0,0.0,0.0,0.0,0.0,0.0,0.0,0.0,0.0,0.0,0.0,0.0,0.0,0.0,0.0,0.0,0.0,0.0,0.0,0.0,0.0,0.0,0.0,0.0,0.0,0.0,0.0,0.0,0.0,0.0,0.0,0.0,0.0,0.0,0.0,0.0,0.0,0.0,0.0,0.0,0.0,0.0,0.0,0.0,0.0,0.0,0.0,0.0,0.0,0.0,0.0,0.0,0.0,0.0,0.0,0.0,0.0,0.0,0.0,0.0,0.0,0.0,0.0,0.0,0.0,0.0,0.0,0.0,0.0,0.0,0.0,0.0,0.0,0.0,0.0,0.0,0.0,0.0,0.0,0.0,0.0,0.0,0.0,0.0,0.0,0.0,0.0,0.0,0.0,0.0,0.0,0.0,0.0,0.0,0.0,0.0,0.0,0.0,0.0,0.0,0.0,0.0,0.0,0.0,0.0,0.0,0.0,0.0,-0.4695,-0.4591,-0.4404,-0.419,-0.3734,-0.3444,0.0,0.0,0.0,0.0,0.0,0.0,0.0,0.0,0.0,0.0,0.0,0.0,0.0,0.0,0.0,0.0,0.0,0.0,0.0,0.0,0.0,0.0,0.0,0.0,0.0,0.0,0.0,0.0,0.0,0.0,0.0,0.0,0.0,0.0,0.0,0.0,0.0,0.0,0.0,0.0,0.0,0.0,0.0,0.0,0.0,0.0,0.0,0.0,0.0,0.0,0.0,0.0,0.0,0.0,0.0,0.0,0.0,0.0,0.0,0.0,0.0,0.0,0.0,0.0,0.0,0.0,0.0,0.0,0.0,0.0,0.0,0.0,0.0,0.0,0.0,0.0,0.0,0.0,0.0,0.0,0.0,0.0,0.0,0.0,0.0,0.0,0.0,0.0,0.0,0.0,0.0,0.0,0.0,0.0,0.0,0.0,0.0,0.0,0.0,0.0,0.0,0.0,0.0,0.0,0.0,0.0,0.0,0.0,0.0,-0.4634,-0.4668,-0.4521,-0.407,-0.3744,-0.3435,0.0,0.0,0.0,0.0,0.0,0.0,0.0,0.0,0.0,0.0,0.0,0.0,0.0,0.0,0.0,0.0,0.0,0.0,0.0,0.0,0.0,0.0,0.0,0.0,0.0,0.0,0.0,0.0,0.0,0.0,0.0,0.0,0.0,0.0,0.0,0.0,0.0,0.0,0.0,0.0,0.0,0.0,0.0,0.0,0.0,0.0,0.0,0.0,0.0,0.0,0.0,0.0,0.0,0.0,0.0,0.0,0.0,0.0,0.0,0.0,0.0,0.0,0.0,0.0,0.0,0.0,0.0,0.0,0.0,0.0,0.0,0.0,0.0,0.0,0.0,0.0,0.0,0.0,0.0,0.0,0.0,0.0,0.0,0.0,0.0,0.0,0.0,0.0,0.0,0.0,0.0,0.0,0.0,0.0,0.0,0.0,0.0,0.0,0.0,0.0,0.0,0.0,0.0,0.0,0.0,0.0,0.0,0.0,-0.4764,-0.4845,-0.4799,-0.4591,-0.4228,-0.385,-0.3474,0.0,0.0,0.0,0.0,0.0,0.0,0.0,0.0,0.0,0.0,0.0,0.0,0.0,0.0,0.0,0.0,0.0,0.0,0.0,0.0,0.0,0.0,0.0,0.0,0.0,0.0,0.0,0.0,0.0,0.0,0.0,0.0,0.0,0.0,0.0,0.0,0.0,0.0,0.0,0.0,0.0,0.0,0.0,0.0,0.0,0.0,0.0,0.0,0.0,0.0,0.0,0.0,0.0,0.0,0.0,0.0,0.0,0.0,0.0,0.0,0.0,0.0,0.0,0.0,0.0,0.0,0.0,0.0,0.0,0.0,0.0,0.0,0.0,0.0,0.0,0.0,0.0,0.0,0.0,0.0,0.0,0.0,0.0,0.0,0.0,0.0,0.0,0.0,0.0,0.0,0.0,0.0,0.0,0.0,0.0,0.0,0.0,0.0,0.0,0.0,0.0,0.0,0.0,0.0,0.0,0.0,0.0,0.0,-0.4767,-0.5116,-0.4831,-0.4581,-0.4396,-0.3959,-0.3548,0.0,0.0,0.0,0.0,0.0,0.0,0.0,0.0,0.0,0.0,0.0,0.0,0.0,0.0,0.0,0.0,0.0,0.0,0.0,0.0,0.0,0.0,0.0,0.0,0.0,0.0,0.0,0.0,0.0,0.0,0.0,0.0,0.0,0.0,0.0,0.0,0.0,0.0,0.0,0.0,0.0,0.0,0.0,0.0,0.0,0.0,0.0,0.0,0.0,0.0,0.0,0.0,0.0,0.0,0.0,0.0,0.0,0.0,0.0,0.0,0.0,0.0,0.0,0.0,0.0,0.0,0.0,0.0,0.0,0.0,0.0,0.0,0.0,0.0,0.0,0.0,0.0,0.0,0.0,0.0,0.0,0.0,0.0,0.0,0.0,0.0,0.0,0.0,0.0,0.0,0.0,0.0,0.0,0.0,0.0,0.0,0.0,0.0,0.0,0.0,0.0,0.0,0.0,0.0,0.0,0.0,0.0,0.0,-0.4463,-0.4631,-0.4488,-0.4199,-0.3805,-0.3787,-0.3557,0.0,0.0,0.0,0.0,0.0,0.0,0.0,0.0,0.0,0.0,0.0,0.0,0.0,0.0,0.0,0.0,0.0,0.0,0.0,0.0,0.0,0.0,0.0,0.0,0.0,0.0,0.0,0.0,0.0,0.0,0.0,0.0,0.0,0.0,0.0,0.0,0.0,0.0,0.0,0.0,0.0,0.0,0.0,0.0,0.0,0.0,0.0,0.0,-0.5096,0.0,0.0,0.0,0.0,0.0,0.0,0.0,0.0,0.0,0.0,0.0,0.0,0.0,0.0,0.0,0.0,0.0,0.0,0.0,0.0,0.0,0.0,0.0,0.0,0.0,0.0,0.0,0.0,0.0,0.0,0.0,0.0,0.0,0.0,0.0,0.0,0.0,0.0,0.0,0.0,0.0,0.0,0.0,0.0,0.0,0.0,0.0,0.0,0.0,0.0,0.0,0.0,0.0,0.0,0.0,0.0,0.0,0.0,0.0,-0.4369,-0.4476,-0.4311,-0.4044,-0.3706,-0.3592,-0.3334,0.0,0.0,0.0,0.0,0.0,0.0,0.0,0.0,0.0,0.0,0.0,0.0,0.0,0.0,0.0,0.0,0.0,0.0,0.0,0.0,0.0,0.0,0.0,0.0,0.0,0.0,0.0,0.0,0.0,0.0,0.0,0.0,0.0,0.0,0.0,0.0,0.0,0.0,0.0,0.0,0.0,0.0,0.0,0.0,0.0,0.0,0.0,0.0,0.0,0.0,0.0,0.0,0.0,0.0,0.0,0.0,0.0,0.0,0.0,0.0,0.0,0.0,0.0,0.0,0.0,0.0,0.0,0.0,0.0,0.0,0.0,0.0,0.0,0.0,0.0,0.0,0.0,0.0,0.0,0.0,0.0,0.0,0.0,0.0,0.0,0.0,0.0,0.0,0.0,0.0,0.0,0.0,0.0,0.0,0.0,0.0,0.0,0.0,0.0,0.0,0.0,0.0,0.0,0.0,0.0,0.0,0.0,-0.4247,-0.4278,-0.4387,-0.416,-0.3904,-0.3665,-0.3367,-0.3033,-0.264,0.0,0.0,0.0,0.0,0.0,0.0,0.0,0.0,0.0,0.0,0.0,0.0,0.0,0.0,0.0,0.0,0.0,0.0,0.0,0.0,0.0,0.0,0.0,0.0,0.0,0.0,0.0,0.0,0.0,0.0,0.0,0.0,0.0,0.0,0.0,0.0,0.0,0.0,-0.4207,-0.4496,0.0,0.0,0.0,0.0,0.0,0.0,0.0,0.0,-0.6115,0.0,0.0,0.0,0.0,0.0,0.0,0.0,0.0,0.0,0.0,0.0,0.0,0.0,0.0,0.0,0.0,0.0,0.0,0.0,0.0,0.0,0.0,0.0,0.0,0.0,0.0,0.0,0.0,0.0,0.0,0.0,0.0,0.0,0.0,0.0,0.0,0.0,0.0,0.0,0.0,0.0,0.0,0.0,0.0,0.0,0.0,0.0,0.0,0.0,0.0,0.0,0.0,0.0,0.0,0.0,0.0,-0.4295,-0.4013,-0.3931,-0.3998,-0.3791,-0.3481,-0.3072,-0.2881,-0.2649,-0.2307,0.0,0.0,0.0,0.0,0.0,0.0,0.0,0.0,0.0,0.0,0.0,0.0,0.0,0.0,0.0,0.0,0.0,0.0,0.0,0.0,0.0,0.0,0.0,0.0,0.0,0.0,0.0,0.0,0.0,0.0,0.0,0.0,0.0,0.0,0.0,0.0,0.0,0.0,0.0,-0.4496,-0.481,0.0,0.0,0.0,0.0,0.0,0.0,0.0,0.0,-0.6291,0.0,0.0,0.0,0.0,0.0,0.0,0.0,0.0,0.0,0.0,0.0,0.0,0.0,0.0,0.0,0.0,0.0,0.0,0.0,0.0,0.0,0.0,0.0,0.0,0.0,0.0,0.0,0.0,0.0,0.0,0.0,0.0,0.0,0.0,0.0,0.0,0.0,0.0,0.0,0.0,0.0,0.0,0.0,0.0,0.0,0.0,0.0,0.0,0.0,0.0,0.0,0.0,0.0,0.0,0.0,-0.3925,-0.3805,-0.3668,-0.3544,-0.3415,-0.3143,-0.2701,-0.2521,-0.2342,0.0,0.0,0.0,0.0,0.0,0.0,0.0,0.0,0.0,0.0,0.0,0.0,0.0,0.0,0.0,0.0,0.0,0.0,0.0,0.0,0.0,0.0,0.0,0.0,0.0,0.0,0.0,0.0,0.0,0.0,0.0,0.0,0.0,0.0,0.0,0.0,0.0,0.0,0.0,0.0,-0.5033,-0.532,-0.5492,0.0,0.0,0.0,0.0,0.0,0.0,-0.6276,-0.6276,0.0,0.0,0.0,0.0,0.0,0.0,0.0,0.0,0.0,0.0,0.0,0.0,0.0,0.0,0.0,0.0,0.0,0.0,0.0,0.0,0.0,0.0,0.0,0.0,0.0,0.0,0.0,0.0,0.0,0.0,0.0,0.0,0.0,0.0,0.0,0.0,0.0,0.0,0.0,0.0,0.0,0.0,0.0,0.0,0.0,0.0,0.0,0.0,0.0,0.0,0.0,0.0,0.0,0.0,0.0,-0.361,-0.3596,-0.346,-0.3146,-0.3038,-0.28,-0.2428,-0.2231,-0.2088,0.0,0.0,0.0,0.0,0.0,0.0,0.0,0.0,0.0,0.0,0.0,0.0,0.0,0.0,0.0,0.0,0.0,0.0,0.0,0.0,0.0,0.0,0.0,0.0,0.0,0.0,0.0,0.0,0.0,0.0,0.0,0.0,0.0,0.0,0.0,0.0,0.0,0.0,0.0,0.0,0.0,-0.578,-0.5802,-0.6083,0.0,0.0,0.0,0.0,-0.6276,-0.6276,0.0,0.0,0.0,0.0,0.0,0.0,0.0,0.0,0.0,0.0,0.0,0.0,0.0,0.0,0.0,0.0,0.0,0.0,0.0,0.0,0.0,0.0,0.0,0.0,0.0,0.0,0.0,0.0,0.0,0.0,0.0,0.0,0.0,0.0,0.0,0.0,0.0,0.0,0.0,0.0,0.0,0.0,0.0,0.0,0.0,0.0,0.0,0.0,0.0,0.0,0.0,0.0,0.0,0.0,0.0,0.0,-0.3588,-0.3367,-0.3143,-0.2927,-0.2696,-0.2419,-0.2156,-0.2011,-0.1885,0.0,0.0,0.0,0.0,0.0,0.0,0.0,0.0,0.0,0.0,0.0,0.0,0.0,0.0,0.0,0.0,0.0,0.0,0.0,0.0,0.0,0.0,0.0,0.0,0.0,0.0,0.0,0.0,0.0,0.0,0.0,0.0,0.0,0.0,0.0,0.0,0.0,0.0,0.0,0.0,0.0,-0.5675,-0.578,-0.6032,-0.623,0.0,0.0,0.0,-0.6276,-0.6276,0.0,0.0,0.0,0.0,0.0,0.0,0.0,0.0,0.0,0.0,0.0,0.0,0.0,0.0,0.0,0.0,0.0,0.0,0.0,0.0,0.0,0.0,0.0,0.0,0.0,0.0,0.0,0.0,0.0,0.0,0.0,0.0,0.0,0.0,0.0,0.0,0.0,0.0,0.0,0.0,0.0,0.0,0.0,0.0,0.0,0.0,0.0,0.0,0.0,0.0,0.0,0.0,0.0,0.0,0.0,-0.3394,-0.3305,-0.3124,-0.2857,-0.2561,-0.2407,-0.2168,-0.1837,-0.1776,-0.1687,0.0,0.0,0.0,0.0,0.0,0.0,0.0,0.0,0.0,0.0,0.0,0.0,0.0,0.0,0.0,0.0,0.0,0.0,0.0,0.0,0.0,0.0,0.0,0.0,0.0,0.0,0.0,0.0,0.0,0.0,0.0,0.0,0.0,0.0,0.0,0.0,0.0,0.0,0.0,0.0,0.0,0.0,-0.5912,-0.6013,0.0,0.0,0.0,-0.6253,-0.6276,0.0,0.0,0.0,0.0,0.0,0.0,0.0,0.0,0.0,0.0,0.0,0.0,0.0,0.0,0.0,0.0,0.0,0.0,0.0,0.0,0.0,0.0,0.0,0.0,0.0,0.0,0.0,0.0,0.0,0.0,0.0,0.0,0.0,0.0,0.0,0.0,0.0,0.0,0.0,0.0,0.0,0.0,0.0,0.0,0.0,0.0,0.0,0.0,0.0,0.0,0.0,0.0,0.0,0.0,0.0,0.0,0.0,-0.3142,-0.2895,-0.259,-0.2242,-0.2115,-0.1907,-0.1596,-0.1542,0.0,0.0,0.0,0.0,0.0,0.0,0.0,0.0,0.0,0.0,0.0,0.0,0.0,0.0,0.0,0.0,0.0,0.0,0.0,0.0,0.0,0.0,0.0,0.0,0.0,0.0,0.0,-0.327,0.0,0.0,0.0,0.0,0.0,0.0,0.0,0.0,0.0,0.0,0.0,0.0,0.0,0.0,-0.5967,-0.5982,-0.5967,-0.5998,0.0,0.0,-0.634,-0.6403,-0.6498,-0.6625,0.0,0.0,0.0,0.0,0.0,0.0,0.0,0.0,0.0,0.0,0.0,0.0,0.0,0.0,0.0,0.0,0.0,0.0,0.0,0.0,0.0,0.0,0.0,0.0,0.0,0.0,0.0,0.0,0.0,0.0,0.0,0.0,0.0,0.0,0.0,0.0,0.0,0.0,0.0,0.0,0.0,0.0,0.0,0.0,0.0,0.0,0.0,0.0,0.0,0.0,0.0,0.0,0.0,0.0,0.0,-0.3185,-0.2686,-0.2323,-0.2014,-0.1766,-0.1602,-0.1514,-0.138,-0.1378,0.0,0.0,0.0,0.0,0.0,0.0,0.0,0.0,0.0,0.0,0.0,0.0,0.0,0.0,0.0,0.0,0.0,0.0,0.0,0.0,0.0,0.0,0.0,0.0,0.0,0.0,0.0,0.0,0.0,0.0,0.0,0.0,0.0,0.0,0.0,0.0,0.0,0.0,0.0,0.0,0.0,-0.5827,-0.5904,-0.585,-0.5874,0.0,0.0,-0.6661,-0.6677,-0.6971,-0.7237,-0.7261,0.0,0.0,0.0,0.0,0.0,0.0,0.0,0.0,0.0,0.0,0.0,0.0,0.0,0.0,0.0,0.0,0.0,0.0,0.0,0.0,0.0,0.0,0.0,0.0,0.0,0.0,0.0,0.0,0.0,0.0,0.0,0.0,0.0,0.0,0.0,0.0,0.0,0.0,0.0,0.0,0.0,0.0,0.0,0.0,0.0,0.0,0.0,0.0,0.0,0.0,0.0,0.0,0.0,-0.3329,-0.3129,-0.2618,-0.2231,-0.1997,-0.1726,-0.1525,-0.1382,-0.1318,-0.1315,0.0,0.0,0.0,0.0,0.0,0.0,0.0,0.0,0.0,0.0,0.0,0.0,0.0,0.0,0.0,0.0,0.0,0.0,0.0,0.0,0.0,0.0,0.0,0.0,0.0,0.0,0.0,0.0,-0.3653,-0.4068,-0.4705,0.0,0.0,0.0,0.0,0.0,0.0,0.0,0.0,0.0,0.0,-0.6176,-0.62,-0.6259,0.0,0.0,-0.6642,-0.6855,-0.6873,-0.7087,-0.7315,-0.7509,-0.7688,0.0,0.0,0.0,0.0,0.0,0.0,0.0,0.0,0.0,0.0,0.0,0.0,0.0,0.0,0.0,0.0,0.0,0.0,0.0,0.0,0.0,0.0,0.0,0.0,0.0,0.0,0.0,0.0,0.0,0.0,0.0,0.0,0.0,0.0,0.0,0.0,0.0,0.0,0.0,0.0,0.0,0.0,0.0,0.0,0.0,0.0,0.0,0.0,0.0,0.0,0.0,0.0,-0.335,-0.3071,-0.2577,-0.2202,-0.1978,-0.1661,-0.1444,-0.1313,-0.1263,-0.1228,0.0,0.0,0.0,0.0,0.0,0.0,0.0,0.0,0.0,0.0,0.0,0.0,0.0,0.0,0.0,0.0,0.0,0.0,0.0,0.0,0.0,0.0,0.0,0.0,0.0,0.0,0.0,0.0,-0.3847,-0.4346,-0.508,0.0,0.0,0.0,0.0,0.0,0.0,0.0,0.0,0.0,0.0,-0.6274,-0.6293,-0.6398,-0.6497,-0.6655,-0.6845,-0.7015,-0.7096,-0.7284,-0.7524,-0.7764,0.0,0.0,0.0,0.0,0.0,0.0,0.0,0.0,0.0,0.0,0.0,0.0,0.0,0.0,0.0,0.0,0.0,0.0,0.0,0.0,0.0,0.0,0.0,0.0,0.0,0.0,0.0,0.0,0.0,0.0,0.0,0.0,0.0,0.0,0.0,0.0,0.0,0.0,0.0,0.0,0.0,0.0,0.0,0.0,0.0,0.0,0.0,0.0,0.0,0.0,0.0,0.0,0.0,0.0,-0.2995,-0.2594,-0.2224,-0.19,-0.1512,-0.1315,-0.1281,-0.1176,-0.1142,-0.1194,0.0,0.0,0.0,0.0,0.0,0.0,0.0,0.0,0.0,0.0,0.0,0.0,0.0,0.0,0.0,0.0,0.0,0.0,0.0,0.0,0.0,0.0,0.0,0.0,0.0,0.0,-0.3428,-0.4003,-0.4707,0.0,0.0,0.0,0.0,0.0,0.0,0.0,0.0,0.0,0.0,-0.5993,-0.5956,-0.6085,-0.6122,-0.626,-0.6562,-0.6936,-0.7241,-0.737,-0.7704,-0.7977,0.0,0.0,0.0,0.0,0.0,0.0,0.0,0.0,0.0,0.0,0.0,0.0,0.0,0.0,0.0,0.0,0.0,0.0,0.0,0.0,0.0,0.0,0.0,0.0,0.0,0.0,0.0,0.0,0.0138,0.0,0.0,0.0,0.0,0.0,0.0,0.0,0.0,0.0,0.0,0.0,-0.2299,-0.2435,0.0,0.0,0.0,0.0,0.0,0.0,0.0,0.0,0.0,0.0,0.0,0.0,-0.3317,-0.2933,-0.2482,-0.2091,-0.1713,-0.1445,-0.1281,-0.1227,-0.1103,-0.1034,-0.1064,0.0,0.0,0.0,0.0,0.0,0.0,0.0,0.0,0.0,0.0,0.0,0.0,0.0,0.0,0.0,0.0,0.0,0.0,0.0,0.0,0.0,0.0,0.0,0.0,0.0,-0.3694,0.0,0.0,0.0,0.0,0.0,0.0,0.0,0.0,0.0,0.0,0.0,-0.6727,-0.6525,-0.6463,-0.6402,-0.6369,-0.6565,-0.6734,0.0,0.0,0.0,0.0,0.0,0.0,0.0,0.0,0.0,0.0,0.0,0.0,0.0,0.0,-0.9053,-0.9268,-0.9377,-0.9496,-0.9753,0.0,0.0,0.0,0.0,0.0,0.0,0.0,0.0,0.0,0.0,0.0,0.0,0.0,0.0,0.0,0.0,-0.0309,0.0,0.0,0.0,0.0,0.0,0.0,0.0,0.0,-0.1975,-0.2085,-0.2125,-0.2215,-0.2395,0.0,-0.2818,-0.3126,0.0,0.0,0.0,0.0,0.0,0.0,0.0,0.0,-0.323,-0.2831,-0.2452,-0.2056,-0.1643,-0.1409,-0.1281,-0.1212,-0.1054,-0.097,-0.097,-0.099,-0.1044,0.0,0.0,0.0,0.0,0.0,0.0,0.0,0.0,0.0,0.0,0.0,0.0,0.0,0.0,0.0,0.0,0.0,0.0,0.0,0.0,0.0,0.0,0.0,-0.3959,0.0,0.0,0.0,0.0,0.0,0.0,0.0,0.0,0.0,-0.7097,-0.6929,-0.6738,-0.6626,-0.6511,-0.6474,-0.6462,0.0,0.0,0.0,0.0,0.0,0.0,0.0,-0.7524,-0.7524,-0.7704,-0.7897,-0.8098,-0.8283,-0.8427,-0.848,0.0,0.0,-0.9044,-0.9177,-0.9328,-0.9486,-0.9675,-0.9833,-0.9883,-1.002,-1.0127,0.0,0.0,0.0,0.0,0.0,0.0,0.0,0.0,-0.0157,-0.0293,0.0,-0.0609,0.0,0.0,0.0,0.0,0.0,0.0,0.0,0.0,-0.1737,-0.1803,-0.1825,-0.2056,-0.2187,-0.2227,-0.2538,-0.2759,-0.2934,-0.3417,0.0,0.0,0.0,0.0,0.0,0.0,-0.3287,-0.2704,-0.2484,-0.2159,-0.1689,-0.1439,-0.1283,-0.1195,-0.0992,-0.089,-0.0892,-0.0841,-0.0875,-0.1078,-0.1094,0.0,0.0,0.0,0.0,0.0,0.0,0.0,0.0,0.0,0.0,0.0,0.0,0.0,0.0,0.0,0.0,0.0,0.0,0.0,0.0,-0.3802,0.0,0.0,0.0,0.0,0.0,0.0,0.0,0.0,0.0,0.0,-0.6943,-0.666,-0.6389,-0.6367,0.0,0.0,0.0,0.0,-0.6517,-0.6851,-0.6872,-0.6914,-0.6979,-0.7097,-0.7195,-0.7195,0.0,0.0,-0.7931,-0.8098,-0.827,-0.8447,-0.85,-0.859,-0.8851,-0.9044,-0.9177,-0.9197,-0.9377,-0.9487,-0.9518,-0.9655,-0.9774,0.0649,0.0,0.0,0.0,0.0,0.027,0.0091,-0.0023,-0.0352,-0.0596,-0.0757,-0.0855,0.0,0.0,0.0,0.0,0.0,0.0,-0.1735,-0.1759,-0.1883,-0.1932,-0.1956,-0.2029,-0.2097,-0.2135,-0.229,-0.2438,-0.262,-0.2862,-0.3173,-0.3527,0.0,0.0,0.0,0.0,-0.296,-0.2626,-0.23,-0.1925,-0.1572,-0.1403,-0.1244,-0.113,-0.0926,-0.0858,-0.0892,-0.0791,-0.0774,-0.0875,-0.101,0.0,0.0,0.0,0.0,0.0,0.0,0.0,0.0,0.0,0.0,0.0,0.0,0.0,0.0,0.0,0.0,0.0,0.0,0.0,-0.3552,-0.3774,-0.4115,0.0,0.0,0.0,0.0,0.0,0.0,0.0,0.0,0.0,-0.6413,-0.6404,-0.6303,0.0,0.0,-0.5997,-0.597,-0.6142,-0.634,-0.6517,0.0,0.0,0.0,-0.6774,-0.6838,-0.6838,-0.7175,-0.7517,-0.7746,-0.7933,-0.8118,-0.827,-0.8406,-0.8521,-0.861,-0.8822,-0.8984,-0.9065,-0.9177,-0.9288,-0.9348,-0.9419,-0.9448,0.0535,0.0697,0.0575,0.0518,0.0424,0.0071,-0.0119,-0.0195,-0.0537,-0.0767,-0.0857,-0.0958,-0.1059,-0.1185,-0.1337,0.0,0.0,0.0,-0.1691,-0.1641,-0.1717,-0.1767,-0.1767,-0.1817,-0.1897,-0.1977,-0.2038,-0.2184,-0.2383,-0.246,-0.2687,-0.304,0.0,0.0,-0.3109,-0.2932,-0.272,-0.2475,-0.216,-0.1864,-0.1589,-0.138,-0.121,-0.1097,-0.0908,-0.0824,-0.0858,-0.0707,-0.0673,-0.0757,-0.0875,-0.0977,0.0,0.0,0.0,0.0,0.0,0.0,0.0,0.0,0.0,0.0,0.0,-0.3844,-0.3902,0.0,0.0,0.0,-0.3591,-0.3517,-0.3698,-0.3941,0.0,0.0,0.0,0.0,0.0,0.0,0.0,-0.65,-0.638,-0.6249,-0.6205,-0.619,-0.6077,-0.583,-0.5841,-0.5868,-0.5793,0.0,-0.6099,-0.6218,-0.6239,-0.626,-0.6291,-0.6413,-0.6541,-0.6626,-0.695,-0.7286,-0.7545,-0.7746,-0.7953,-0.8147,-0.8291,-0.8386,-0.8447,-0.861,-0.8802,-0.8943,-0.9024,-0.9096,-0.9177,-0.9228,-0.9268,0.0481,0.0587,0.0619,0.0532,0.0353,-0.0025,-0.0303,-0.043,-0.0684,-0.0812,-0.0839,-0.0966,-0.1017,-0.1044,-0.1298,0.0,0.0,-0.1579,-0.1504,-0.1401,-0.1399,-0.1374,-0.1401,-0.1528,-0.1652,-0.1773,-0.186,-0.199,-0.2168,-0.2186,-0.2274,-0.2451,-0.2692,-0.2779,-0.2684,-0.2662,-0.2529,-0.2279,-0.2068,-0.1878,-0.1656,-0.1363,-0.116,-0.1103,-0.0911,-0.0808,-0.0791,-0.0606,-0.0572,-0.069,-0.0707,-0.0808,-0.1061,0.0,0.0,0.0,0.0,0.0,0.0,0.0,0.0,0.0,0.0,0.0,0.0,0.0,0.0,0.0,-0.3771,0.0,-0.3884,-0.4213,0.0,0.0,0.0,-0.5509,-0.5938,-0.6103,-0.6306,-0.6607,0.0,0.0,0.0,0.0,-0.5804,-0.5804,-0.5739,-0.5717,-0.5793,-0.5814,-0.5841,-0.5976,-0.5981,-0.5981,-0.6019,-0.6099,-0.6243,-0.6483,-0.6702,-0.6977,-0.7307,-0.7545,-0.7795,-0.8072,-0.8155,-0.8229,-0.8353,-0.8427,-0.8549,-0.881,-0.89,-0.8911,-0.9004,-0.9096,-0.9177,0.0415,0.0443,0.0632,0.0584,0.0378,-0.0126,-0.0384,-0.042,-0.0736,-0.0934,-0.1012,-0.1067,-0.1149,-0.1232,-0.1315,-0.1342,-0.1369,-0.1369,-0.1369,-0.1315,-0.1315,-0.1315,-0.1342,-0.1506,-0.1594,-0.158,-0.1801,-0.1896,-0.1891,-0.1941,-0.1998,-0.204,-0.2071,-0.2217,-0.2526,-0.2457,-0.235,-0.2221,-0.1975,-0.1695,-0.1403,-0.1266,-0.1198,-0.1182,-0.0981,-0.0858,-0.0791,-0.0707,-0.0623,-0.0555,-0.0639,-0.0757,-0.0875,-0.1027,0.0,0.0,0.0,0.0,0.0,0.0,0.0,0.0,0.0,-0.3873,-0.3894,0.0,-0.3765,0.0,-0.366,-0.3676,-0.3814,-0.4215,0.0,0.0,-0.5325,-0.562,-0.5909,-0.5938,-0.5983,-0.6083,-0.6041,-0.6011,-0.5987,-0.5917,-0.5881,-0.5876,-0.5771,-0.5701,-0.5712,-0.5717,-0.5761,-0.582,-0.5804,-0.5782,-0.5863,-0.5879,-0.6007,-0.6389,-0.6474,-0.6638,-0.7034,-0.7286,-0.7566,-0.7774,-0.7946,-0.807,-0.8229,-0.8258,-0.8353,-0.857,-0.8761,-0.8911,-0.8932,-0.8984,-0.9036,0.0545,0.0544,0.0649,0.0576,0.037,-0.0053,-0.0241,-0.0327,-0.0681,-0.0854,-0.0926,-0.0982,-0.1094,-0.1206,-0.1206,-0.1262,-0.1318,-0.1318,-0.1262,-0.1206,-0.1206,-0.1206,-0.1206,-0.1318,-0.1445,-0.1555,-0.1664,-0.1768,-0.1835,-0.1869,-0.1884,-0.1958,-0.1915,-0.1995,-0.2209,-0.2148,-0.2061,-0.202,-0.1817,-0.158,-0.1303,-0.1279,-0.1254,-0.1246,-0.1084,-0.0976,-0.0921,-0.0795,-0.0715,-0.0645,-0.0682,-0.074,-0.0791,-0.0965,-0.1166,0.0,0.0,0.0,0.0,0.0,0.0,0.0,0.0,0.0,0.0,0.0,-0.3659,0.0,-0.3747,0.0,-0.404,-0.4429,-0.4739,-0.5026,-0.5339,-0.5617,-0.5882,-0.5947,-0.6056,-0.6248,-0.6147,-0.6062,-0.6067,-0.5982,-0.5898,-0.5898,-0.583,-0.575,-0.5663,-0.5574,-0.5566,-0.5642,-0.5626,-0.5631,-0.5728,-0.5755,-0.5841,-0.6083,-0.6212,-0.6419,-0.6725,-0.7027,-0.7301,-0.7538,-0.7725,-0.7904,-0.8036,-0.8155,-0.825,-0.8373,-0.8549,-0.8761,-0.8891,-0.8952,-0.8964,0.0711,0.071,0.0744,0.0593,0.0423,0.0168,0.0,-0.0224,-0.0533,-0.0673,-0.0701,-0.0841,-0.0954,-0.1066,-0.1066,-0.115,-0.1262,-0.1234,-0.1178,-0.1094,-0.1066,-0.1094,-0.1094,-0.1094,-0.1262,-0.1541,-0.1524,-0.1638,-0.1877,-0.1838,-0.1857,-0.1958,-0.195,-0.1937,-0.1874,-0.1799,-0.1758,-0.1772,-0.1636,-0.1495,-0.1313,-0.1304,-0.1319,-0.1292,-0.1184,-0.1121,-0.1101,-0.0943,-0.0847,-0.081,-0.0757,-0.0773,-0.0826,-0.0952,-0.1109,0.0,-0.1671,0.0,0.0,0.0,0.0,0.0,0.0,0.0,0.0,-0.3536,-0.3587,-0.3648,-0.3864,-0.4082,-0.4318,-0.4638,-0.4865,-0.4998,-0.5243,-0.5549,-0.5873,-0.6006,-0.624,-0.66,-0.6433,-0.6292,-0.6256,-0.6071,-0.5937,-0.5952,-0.5908,-0.5814,-0.5639,-0.5475,-0.5417,-0.5485,-0.5491,-0.5561,-0.5674,-0.5701,-0.5739,-0.5814,-0.5986,-0.6221,-0.6462,-0.6732,-0.7027,-0.7286,-0.7496,-0.7691,-0.7857,-0.8023,-0.8155,-0.8196,-0.8345,-0.8549,-0.8761,-0.8851,-0.8903,0.0765,0.0794,0.0829,0.0788,0.0641,0.0595,0.028,-0.0224,-0.0393,-0.0533,-0.0701,-0.0729,-0.0813,-0.0926,-0.0926,-0.0954,-0.0954,-0.0982,-0.0982,-0.0954,-0.0926,-0.0954,-0.0954,-0.1038,-0.1178,-0.1374,-0.1533,-0.1668,-0.1833,-0.1773,-0.1716,-0.1741,-0.1692,-0.1661,0.0,0.0,0.0,0.0,-0.1502,-0.1406,-0.1371,-0.1325,-0.1317,-0.1305,-0.1283,0.0,-0.1101,-0.1052,-0.1027,-0.097,-0.096,0.0,0.0,0.0,0.0,0.0,0.0,0.0,0.0,0.0,0.0,0.0,-0.2889,-0.2967,-0.3111,-0.3312,-0.345,-0.3474,-0.379,-0.4024,-0.408,-0.4564,-0.492,-0.5083,-0.5373,-0.5663,-0.5946,-0.6,-0.6099,-0.6245,-0.6244,-0.622,-0.6211,-0.616,-0.6131,-0.6103,-0.5989,-0.5824,-0.5644,-0.5559,-0.5503,-0.5368,-0.5431,-0.5539,-0.568,-0.5701,-0.5717,-0.5793,-0.583,-0.6007,-0.634,-0.6505,-0.6711,-0.7006,-0.7188,-0.7398,-0.767,-0.7781,-0.7885,-0.8134,-0.8209,-0.8332,-0.8529,-0.8663,-0.8793,0.1198,0.0,0.1189,0.1115,0.0,0.0903,0.0661,0.0287,-0.0056,-0.0336,-0.0561,-0.0645,-0.0736,-0.0805,-0.0863,-0.0928,-0.0942,-0.0943,-0.0942,-0.0942,-0.0942,-0.0943,-0.0942,-0.0985,-0.1093,-0.1264,-0.1386,-0.1515,-0.1682,-0.1738,-0.1751,-0.1751,-0.1721,-0.1689,-0.1658,-0.1575,-0.1525,-0.1502,-0.1435,-0.1411,-0.1411,-0.1381,-0.1344,-0.1344,0.0,0.0,0.0,0.0,0.0,0.0,0.0,0.0,0.0,0.0,0.0,-0.1345,-0.1444,-0.1664,-0.1967,-0.2084,-0.2225,-0.2394,-0.2437,-0.2575,-0.2871,-0.3013,-0.3171,-0.3299,-0.3552,-0.3824,-0.4086,-0.4474,-0.4804,-0.508,-0.5322,-0.554,-0.5759,-0.5868,-0.595,-0.6059,-0.6114,-0.6119,-0.62,-0.62,-0.62,-0.62,-0.6116,-0.5954,-0.5661,-0.5514,-0.5394,-0.5303,-0.541,-0.5539,-0.5658,-0.5701,-0.5701,-0.5755,-0.5771,-0.5906,-0.6169,-0.634,-0.6532,-0.6732,-0.6943,-0.7175,-0.7328,-0.7545,-0.7753,-0.7919,-0.8093,-0.8209,-0.8324,-0.85,-0.8643,0.159,0.1586,0.154,0.1461,0.1335,0.1175,0.101,0.0801,0.0,0.0,0.0,-0.0542,-0.0637,-0.0713,-0.0802,-0.0904,-0.1018,-0.1019,-0.1019,-0.1019,-0.1019,-0.1019,-0.1018,-0.0933,-0.1007,-0.1207,-0.1262,-0.1383,-0.1543,-0.1656,-0.1741,-0.1769,-0.1769,-0.174,-0.1654,-0.1605,-0.1503,-0.1355,-0.1387,-0.1377,-0.1389,-0.1366,-0.1344,-0.1366,-0.1299,-0.1254,-0.1253,-0.1042,-0.0937,-0.0936,-0.0884,-0.0849,-0.0856,-0.0951,-0.1082,-0.1181,-0.1347,-0.1521,-0.1703,-0.1855,-0.197,-0.2032,-0.2086,-0.2306,-0.2731,-0.2752,-0.288,-0.3131,-0.3321,-0.362,-0.4051,-0.4365,-0.4629,-0.4959,-0.5156,-0.5321,-0.5513,-0.5681,-0.5818,-0.5955,-0.6005,-0.6032,-0.6146,-0.6173,-0.62,-0.62,-0.6191,-0.6054,-0.5659,-0.5382,-0.525,-0.5276,-0.5366,-0.5523,-0.5631,-0.568,-0.5701,-0.5723,-0.5755,-0.582,-0.5954,-0.6175,-0.634,-0.6483,-0.6732,-0.6922,-0.7021,-0.7307,-0.7607,-0.767,-0.7899,-0.8134,-0.8196,-0.8345,-0.848,0.1605,0.1601,0.1588,0.1569,0.1565,0.1457,0.1256,0.0918,0.0415,0.0089,-0.0061,-0.0213,-0.0428,-0.0706,-0.0736,-0.0831,-0.0988,-0.1019,-0.1019,0.0,-0.1019,-0.1019,-0.1019,-0.0984,-0.1059,-0.118,-0.1203,-0.127,-0.1322,-0.1375,-0.1459,-0.16,-0.1628,-0.16,-0.1522,-0.1512,-0.1425,-0.1241,-0.1272,-0.1323,-0.1323,-0.121,-0.1142,-0.1142,-0.1144,-0.112,-0.1141,-0.1091,-0.1066,-0.1087,-0.1082,-0.1073,-0.1066,-0.1073,-0.1118,-0.1179,-0.1219,-0.1371,-0.1676,-0.1742,-0.1876,-0.2146,-0.219,-0.2273,-0.2514,-0.2654,-0.2762,-0.2929,-0.3294,-0.3586,-0.3696,-0.4177,-0.4519,-0.4598,-0.4904,-0.5183,-0.5352,-0.5489,-0.5677,-0.5818,-0.5927,-0.6,-0.6028,-0.6119,-0.6173,-0.62,-0.6158,-0.604,-0.5665,-0.5273,-0.5108,-0.5181,-0.5285,-0.5388,-0.5518,-0.5631,-0.5701,-0.5701,-0.5723,-0.5761,-0.5841,-0.5976,-0.6153,-0.6367,-0.6511,-0.6675,-0.6894,-0.7042,-0.728,-0.7545,-0.7732,-0.7885,-0.8106,-0.8229,-0.8311,0.1918,0.1915,0.1924,0.1914,0.1909,0.1758,0.1516,0.1294,0.0841,0.0495,0.0247,0.0,-0.0187,-0.0348,-0.0506,-0.0703,-0.0908,-0.0908,-0.094,-0.1035,-0.1068,-0.1068,-0.1034,-0.102,-0.1038,-0.1085,-0.1158,-0.1219,-0.1242,-0.1326,-0.1372,-0.1432,-0.1431,-0.1419,-0.1399,-0.1398,-0.1347,-0.1248,-0.1253,-0.1242,-0.1245,-0.1172,-0.1148,-0.1172,-0.1076,-0.1052,-0.1052,-0.0981,-0.0933,-0.0933,-0.0933,-0.094,-0.0932,-0.0934,-0.0991,-0.1083,-0.1131,-0.1282,-0.157,-0.171,-0.1822,-0.1959,-0.199,-0.2074,-0.2212,-0.2465,-0.2691,-0.2888,-0.3112,-0.3335,-0.3585,-0.3913,-0.4242,-0.4491,-0.4794,-0.5042,-0.5183,-0.5325,-0.5517,-0.5654,-0.5732,-0.5841,-0.5973,-0.6059,-0.6119,-0.6159,-0.6036,-0.5796,-0.5628,-0.5254,-0.505,-0.5176,-0.5263,-0.535,-0.5474,-0.5609,-0.5701,-0.5701,-0.5701,-0.5739,-0.5777,-0.5863,-0.5954,-0.6153,-0.6325,-0.6489,-0.6675,-0.6859,-0.7091,-0.7238,-0.7566,-0.7781,-0.7981,-0.8175,-0.8353,0.2188,0.2188,0.2188,0.2188,0.2183,0.1972,0.1823,0.1661,0.1336,0.103,0.0726,0.0315,0.0064,-0.0033,-0.0261,-0.0495,-0.0707,-0.0708,-0.0808,-0.0942,-0.1009,-0.1043,-0.1041,-0.102,-0.1007,-0.1032,-0.1104,-0.1168,-0.1165,-0.1251,-0.129,-0.1279,-0.1296,-0.129,-0.1262,-0.1262,-0.1246,-0.1213,-0.118,-0.1129,-0.1161,-0.1135,-0.1109,-0.1109,-0.1008,-0.0933,-0.0958,-0.0857,-0.0782,-0.0782,-0.0782,-0.0784,-0.0817,-0.0817,-0.0846,-0.0983,-0.1035,-0.1159,-0.1431,-0.1686,-0.1797,-0.1797,-0.1797,-0.1852,-0.2015,-0.224,-0.2549,-0.2777,-0.286,-0.3084,-0.3416,-0.3663,-0.3935,-0.4353,-0.4653,-0.4846,-0.5042,-0.5156,-0.5321,-0.5513,-0.5567,-0.57,-0.5896,-0.6005,-0.6059,-0.6126,-0.5848,-0.5598,-0.5542,-0.5254,-0.5069,-0.5133,-0.5241,-0.5328,-0.5453,-0.5588,-0.568,-0.5701,-0.5701,-0.5723,-0.5777,-0.5798,-0.5841,-0.5954,-0.6153,-0.6325,-0.6416,-0.6617,-0.6859,-0.7027,-0.7328,-0.7628,-0.7912,-0.8147,-0.8353,0.2189,0.2188,0.2188,0.2188,0.2186,0.2179,0.2043,0.1874,0.1809,0.1707,0.1397,0.0768,0.0301,0.0034,-0.0034,-0.0202,-0.0506,-0.054,-0.0539,-0.0573,-0.0741,-0.0809,-0.0843,-0.1006,-0.1058,-0.1005,-0.1031,-0.1045,-0.1047,-0.1044,-0.109,-0.1202,-0.1254,-0.1236,-0.1123,-0.1122,-0.1064,-0.0921,-0.0919,-0.0943,-0.1013,-0.0908,-0.0832,-0.0832,-0.0832,-0.0832,-0.0836,-0.0807,-0.0782,-0.0782,-0.0783,-0.0846,-0.0897,-0.0874,-0.0887,-0.0912,-0.0919,-0.1033,-0.1312,-0.1625,-0.1797,-0.1797,-0.1797,-0.1852,-0.1987,-0.2156,-0.2296,-0.2521,-0.2777,-0.2972,-0.3132,-0.3441,-0.3747,-0.4024,-0.4349,-0.4625,-0.4901,-0.5042,-0.5187,-0.5297,-0.5485,-0.565,-0.5791,-0.5927,-0.6059,-0.6168,-0.5871,-0.5608,-0.5551,-0.5283,-0.5026,-0.506,-0.5176,-0.5306,-0.5371,-0.555,-0.568,-0.5701,-0.5701,-0.5723,-0.5739,-0.5777,-0.5814,-0.5841,-0.5949,-0.6132,-0.6282,-0.6453,-0.6575,-0.6865,-0.7139,-0.7419,-0.7863,-0.8118,-0.827,0.2208,0.2204,0.2203,0.2188,0.2188,0.2188,0.2153,0.2085,0.1951,0.1849,0.1754,0.137,0.0991,0.064,0.0404,0.0169,-0.0034,-0.0135,-0.027,-0.0405,-0.054,-0.0641,-0.064,-0.0842,-0.0904,-0.0895,-0.0993,-0.1044,-0.1017,-0.0997,-0.1012,-0.1059,-0.1086,-0.1041,-0.0981,-0.0992,-0.0954,-0.0897,-0.0897,-0.0912,-0.0945,-0.0887,-0.0861,-0.086,-0.086,-0.086,-0.086,-0.086,-0.0861,-0.086,-0.086,-0.0866,-0.0878,-0.0879,-0.0884,-0.0924,-0.1066,-0.1178,-0.129,-0.16,-0.1797,-0.1797,-0.1797,-0.1824,-0.1878,-0.1989,-0.2156,-0.2324,-0.2607,-0.283,-0.2968,-0.3302,-0.3552,-0.3777,-0.4187,-0.4574,-0.4767,-0.4987,-0.5156,-0.5274,-0.538,-0.5489,-0.5681,-0.5868,-0.6032,-0.6145,-0.5937,-0.5755,-0.5618,-0.5349,-0.5136,-0.5062,-0.5137,-0.5241,-0.5306,-0.5528,-0.568,-0.5701,-0.5701,-0.5701,-0.5723,-0.5723,-0.5739,-0.5734,-0.582,-0.5906,-0.5992,-0.6282,-0.6474,-0.6723,-0.7097,-0.744,-0.7746,-0.8015,-0.8188,0.2234,0.2228,0.2221,0.2237,0.2239,0.2237,0.2239,0.2204,0.2066,0.2031,0.2001,0.1862,0.1648,0.1344,0.0896,0.062,0.0448,0.0241,0.0069,-0.0069,-0.0276,-0.0378,-0.0375,-0.0613,-0.0713,-0.0742,-0.0909,-0.1032,-0.1011,-0.1015,-0.1001,-0.0997,-0.094,-0.0922,-0.0883,-0.0891,-0.0877,-0.0898,-0.0897,-0.0897,-0.0896,-0.0897,-0.0897,-0.0897,-0.0897,-0.0897,-0.0897,-0.0897,-0.0897,-0.0897,-0.0897,-0.0897,-0.0897,-0.0897,-0.0897,-0.0898,-0.115,-0.1318,-0.1318,-0.16,-0.1797,-0.1797,-0.1797,-0.1797,-0.1824,-0.1933,-0.2043,-0.2212,-0.2465,-0.2719,-0.2916,-0.3165,-0.3388,-0.361,-0.4079,-0.4408,-0.4632,-0.4881,-0.5101,-0.5215,-0.527,-0.5407,-0.5622,-0.5868,-0.6059,-0.615,-0.6017,-0.5873,-0.5689,-0.5467,-0.5249,-0.5116,-0.5154,-0.5215,-0.5285,-0.548,-0.5631,-0.5701,-0.5701,-0.5701,-0.5701,-0.5701,-0.5701,-0.5717,-0.5755,-0.5793,-0.5857,-0.6099,-0.6361,-0.6547,-0.6907,-0.737,-0.767,-0.7899,-0.8064,0.2295,0.2295,0.2291,0.2284,0.2288,0.2285,0.2287,0.2279,0.2284,0.225,0.2247,0.2145,0.2074,0.1997,0.1416,0.1053,0.087,0.0687,0.0578,0.0506,0.0181,0.0,-0.0035,-0.0349,-0.0518,-0.0508,-0.071,-0.0909,-0.1071,-0.1013,-0.1,-0.0998,-0.1001,-0.0973,-0.0921,-0.0883,-0.0897,-0.0876,-0.0898,-0.0897,-0.0897,-0.0897,-0.0897,-0.0897,-0.0897,-0.0897,-0.0897,-0.0897,-0.0897,-0.0897,-0.0897,-0.0897,-0.0897,-0.0897,-0.0897,-0.0926,-0.115,-0.1318,-0.1346,-0.1628,-0.1797,-0.1797,-0.1797,-0.1797,-0.1797,-0.1905,-0.2043,-0.2212,-0.2382,-0.2607,-0.286,-0.3023,-0.3246,-0.3527,-0.383,-0.4135,-0.4463,-0.4736,-0.4928,-0.5101,-0.5215,-0.5411,-0.5736,-0.5923,-0.6032,-0.6113,-0.6022,-0.588,-0.5835,-0.5547,-0.5377,-0.5277,-0.5244,-0.5224,-0.529,-0.5431,-0.5561,-0.5658,-0.5701,-0.5701,-0.5701,-0.5701,-0.5701,-0.5701,-0.5723,-0.5734,-0.5793,-0.5937,-0.6179,-0.6435,-0.6774,-0.7181,-0.7503,-0.7649,-0.7836,0.2331,0.23,0.2297,0.2297,0.2297,0.2297,0.2297,0.2297,0.2297,0.2297,0.2305,0.2299,0.2278,0.2279,0.1974,0.1691,0.146,0.1276,0.1093,0.0947,0.0692,0.0508,0.036,0.0,-0.0177,-0.0208,-0.0449,-0.065,-0.0708,-0.0801,-0.0863,-0.0892,-0.0968,-0.0979,-0.0965,-0.0902,-0.0878,-0.0897,-0.088,-0.0897,-0.0897,-0.0897,-0.0897,-0.0897,-0.0897,-0.0897,-0.0897,-0.0897,-0.0897,-0.0897,-0.0897,-0.0897,-0.0897,-0.0897,-0.0897,-0.0926,-0.115,-0.1318,-0.1347,-0.16,-0.1797,-0.1797,-0.1797,-0.1797,-0.1797,-0.1852,-0.1962,-0.2156,-0.2268,-0.2437,-0.2719,-0.2886,-0.3051,-0.3274,-0.3552,-0.3888,-0.4245,-0.4519,-0.4763,-0.5014,-0.5215,-0.5407,-0.5626,-0.5791,-0.5927,-0.6055,-0.6076,-0.6031,-0.5899,-0.5735,-0.5628,-0.5519,-0.5367,-0.5292,-0.5405,-0.5443,-0.5539,-0.5631,-0.5701,-0.5701,-0.5701,-0.5701,-0.5701,-0.5701,-0.5701,-0.5723,-0.5755,-0.5879,-0.6093,-0.6355,-0.6696,-0.6992,-0.7321,-0.7503,-0.7712,0.2389,0.2358,0.2355,0.2354,0.2391,0.2391,0.2354,0.2355,0.2354,0.2392,0.2363,0.2433,0.241,0.2417,0.2336,0.22,0.1984,0.1758,0.157,0.142,0.1196,0.1004,0.0812,0.0479,0.0255,0.0142,-0.0176,-0.038,-0.0507,-0.0641,-0.0708,-0.0707,-0.0793,-0.0815,-0.0835,-0.0868,-0.0845,-0.0856,-0.0865,-0.088,-0.0872,-0.0897,-0.0897,-0.0897,-0.0897,-0.0897,-0.0897,-0.0897,-0.0897,-0.0897,-0.0897,-0.0897,-0.0897,-0.0897,-0.0897,-0.0926,-0.115,-0.1318,-0.1346,-0.16,-0.1797,-0.1797,-0.1797,-0.1797,-0.1797,-0.1797,-0.1936,-0.213,-0.2184,-0.2324,-0.2635,-0.2777,-0.2914,-0.3107,-0.3388,-0.3722,-0.4055,-0.4325,-0.4656,-0.5018,-0.516,-0.5321,-0.554,-0.5677,-0.5814,-0.5973,-0.6087,-0.6076,-0.5995,-0.5939,-0.5873,-0.5717,-0.5528,-0.5491,-0.5527,-0.556,-0.5514,-0.5592,-0.5685,-0.568,-0.5701,-0.5701,-0.5701,-0.5701,-0.5701,-0.5701,-0.5766,-0.5847,-0.604,-0.6303,-0.6532,-0.6802,-0.7125,-0.7398,-0.7665,0.2507,0.25,0.2508,0.2497,0.2493,0.2493,0.2504,0.2497,0.2499,0.2492,0.2449,0.2504,0.25,0.2506,0.2468,0.2466,0.2379,0.2066,0.1911,0.1834,0.1679,0.1467,0.1289,0.1023,0.0747,0.0583,0.0213,-0.0138,-0.0373,-0.0405,-0.0438,-0.0506,-0.0505,-0.0531,-0.0518,-0.0707,-0.075,-0.0718,-0.0795,-0.0868,-0.0874,-0.0869,-0.0869,-0.0897,-0.0897,-0.0897,-0.0897,-0.0897,-0.0897,-0.0897,-0.0897,-0.0897,-0.0897,-0.0897,-0.0926,-0.0954,-0.1178,-0.129,-0.1347,-0.1628,-0.1797,-0.1797,-0.1797,-0.1797,-0.1797,-0.1797,-0.1908,-0.2156,-0.2212,-0.2324,-0.2607,-0.2691,-0.28,-0.3077,-0.3357,-0.3608,-0.3827,-0.4215,-0.4656,-0.4959,-0.5069,-0.5238,-0.5485,-0.5595,-0.5677,-0.5864,-0.6,-0.6055,-0.6095,-0.6026,-0.5913,-0.5883,-0.5746,-0.5667,-0.5654,-0.5647,-0.5573,-0.5534,-0.5625,-0.5658,-0.5658,-0.5658,-0.5701,-0.5701,-0.5701,-0.5701,-0.5701,-0.5804,-0.5927,-0.6163,-0.6398,-0.666,-0.6963,-0.7293,-0.7666,0.251,0.251,0.251,0.251,0.251,0.251,0.251,0.251,0.251,0.251,0.251,0.251,0.251,0.251,0.251,0.251,0.247,0.2354,0.2237,0.2119,0.2041,0.1878,0.1711,0.1475,0.1189,0.082,0.0537,0.0349,0.0242,0.0102,0.0,-0.0135,-0.0304,-0.0403,-0.0465,-0.0554,-0.0569,-0.058,-0.0566,-0.0609,-0.0732,-0.0757,-0.0813,-0.0897,-0.0897,-0.0897,-0.0897,-0.0897,-0.0897,-0.0897,-0.0897,-0.0897,-0.0897,-0.0897,-0.0954,-0.1038,-0.1206,-0.1375,-0.1515,-0.1684,-0.1797,-0.1797,-0.1797,-0.1797,-0.1797,-0.1797,-0.1936,-0.2156,-0.2212,-0.2352,-0.2607,-0.2691,-0.2775,-0.2942,-0.3135,-0.3385,-0.3691,-0.4159,-0.4519,-0.4684,-0.4846,-0.5042,-0.5211,-0.5321,-0.5485,-0.5704,-0.5868,-0.6005,-0.6041,-0.6085,-0.6106,-0.6087,-0.5954,-0.5817,-0.581,-0.5789,-0.5701,-0.5629,-0.5615,-0.5629,-0.5624,-0.5631,-0.568,-0.5701,-0.5701,-0.5701,-0.5696,-0.5761,-0.5884,-0.604,-0.6294,-0.6578,-0.6898,-0.7266,-0.7689,0.2578,0.2578,0.2578,0.2576,0.2578,0.266,0.2604,0.2546,0.2624,0.261,0.2514,0.251,0.251,0.251,0.251,0.251,0.251,0.251,0.2431,0.2313,0.2313,0.2198,0.2003,0.1806,0.1513,0.1211,0.0953,0.0821,0.07,0.0517,0.034,0.0169,0.0034,-0.0034,-0.0135,-0.0166,-0.0226,-0.0314,-0.0335,-0.0413,-0.0545,-0.0592,-0.0673,-0.0785,-0.0813,-0.0841,-0.0869,-0.0897,-0.0897,-0.0897,-0.0897,-0.0897,-0.0897,-0.0897,-0.0954,-0.1094,-0.1234,-0.1375,-0.1572,-0.1713,-0.1797,-0.1797,-0.1797,-0.1797,-0.1797,-0.1797,-0.1936,-0.2156,-0.2212,-0.2324,-0.2607,-0.2691,-0.2747,-0.2805,-0.2942,-0.319,-0.3555,-0.3965,-0.427,-0.4408,-0.4601,-0.4794,-0.4936,-0.5069,-0.5238,-0.5458,-0.5622,-0.5868,-0.5946,-0.6087,-0.6119,-0.6159,-0.6092,-0.6007,-0.601,-0.5918,-0.5837,-0.5736,-0.5662,-0.5636,-0.5607,-0.5597,-0.5609,-0.568,-0.5701,-0.5701,-0.5701,-0.5717,-0.5804,-0.6014,-0.6223,-0.6546,-0.6906,-0.7383,-0.7811,0.2692,0.2694,0.2692,0.2684,0.2726,0.2893,0.2858,0.2734,0.2924,0.2808,0.2606,0.2553,0.251,0.251,0.251,0.251,0.251,0.251,0.251,0.247,0.247,0.2353,0.2196,0.2003,0.1787,0.164,0.1436,0.1217,0.1031,0.0842,0.0623,0.0577,0.0541,0.0506,0.0438,0.037,0.0166,0.0032,-0.0063,-0.0183,-0.0353,-0.0372,-0.0478,-0.0673,-0.0673,-0.0729,-0.0841,-0.0869,-0.0897,-0.0897,-0.0897,-0.0897,-0.0897,-0.0897,-0.0982,-0.1122,-0.1234,-0.1431,-0.16,-0.1713,-0.1797,-0.1797,-0.1797,-0.1797,-0.1797,-0.1797,-0.1908,-0.2156,-0.2184,-0.2324,-0.2607,-0.2691,-0.2691,-0.2719,-0.2833,-0.3109,-0.3499,-0.3716,-0.391,-0.4135,-0.4356,-0.4519,-0.4636,-0.4794,-0.4987,-0.5183,-0.5297,-0.5567,-0.5782,-0.5923,-0.6032,-0.6095,-0.6126,-0.6139,-0.6092,-0.604,-0.5956,-0.5922,-0.5805,-0.5715,-0.5652,-0.5622,-0.556,-0.5647,-0.5739,-0.5728,-0.5723,-0.5761,-0.581,-0.598,-0.6247,-0.6554,-0.6954,-0.7448,-0.7884,0.2694,0.2694,0.2694,0.2778,0.2905,0.2989,0.3062,0.3159,0.3192,0.3083,0.289,0.2767,0.263,0.251,0.251,0.251,0.251,0.251,0.251,0.251,0.251,0.247,0.2392,0.2196,0.2072,0.2015,0.1797,0.1617,0.1556,0.1395,0.1295,0.1144,0.0986,0.0875,0.0707,0.0573,0.0432,0.0356,0.0353,0.0155,-0.0059,-0.0088,-0.023,-0.0449,-0.0477,-0.0561,-0.0729,-0.0841,-0.0897,-0.0897,-0.0897,-0.0897,-0.0897,-0.0982,-0.1094,-0.1234,-0.1403,-0.1572,-0.1713,-0.1769,-0.1797,-0.1797,-0.1797,-0.1797,-0.1797,-0.1797,-0.188,-0.2045,-0.2128,-0.2296,-0.2521,-0.2635,-0.2663,-0.2719,-0.2805,-0.297,-0.3216,-0.3497,-0.3691,-0.3777,-0.3996,-0.4162,-0.4301,-0.4467,-0.4656,-0.4853,-0.5073,-0.5325,-0.5513,-0.5782,-0.5923,-0.6032,-0.61,-0.6164,-0.6182,-0.6153,-0.6111,-0.6109,-0.5987,-0.5837,-0.5789,-0.5735,-0.5655,-0.5597,-0.577,-0.5808,-0.582,-0.5836,-0.5913,-0.6045,-0.636,-0.67,-0.7044,-0.7473,-0.7895,0.2853,0.294,0.2897,0.3026,0.3243,0.3373,0.3397,0.3445,0.3531,0.3385,0.317,0.3045,0.289,0.263,0.2628,0.2588,0.251,0.251,0.251,0.251,0.251,0.251,0.247,0.2353,0.2313,0.2311,0.2089,0.199,0.1927,0.1799,0.1651,0.1508,0.1415,0.1293,0.1143,0.1043,0.0869,0.0789,0.0748,0.057,0.0246,0.0209,0.0029,-0.0172,-0.0227,-0.0336,-0.0561,-0.0729,-0.0841,-0.0869,-0.0897,-0.0897,-0.0897,-0.101,-0.115,-0.129,-0.1487,-0.1656,-0.1769,-0.1797,-0.1797,-0.1797,-0.1797,-0.1797,-0.1797,-0.1797,-0.1852,-0.1987,-0.2071,-0.224,-0.2465,-0.2607,-0.2663,-0.2719,-0.2777,-0.2886,-0.2996,-0.3218,-0.3357,-0.3469,-0.3635,-0.3858,-0.3944,-0.4135,-0.4328,-0.4494,-0.4743,-0.4991,-0.5211,-0.5513,-0.5759,-0.5868,-0.6005,-0.6064,-0.6146,-0.6122,-0.6145,-0.6158,-0.6138,-0.5982,-0.5877,-0.5842,-0.582,-0.5769,-0.5844,-0.5907,-0.5969,-0.6035,-0.6144,-0.6311,-0.6582,-0.6841,-0.7164,-0.7472,-0.7897,0.3051,0.3226,0.3226,0.3406,0.3624,0.3808,0.376,0.3665,0.3796,0.3672,0.3401,0.3324,0.3107,0.2826,0.2824,0.2707,0.2549,0.2549,0.251,0.251,0.251,0.251,0.251,0.247,0.247,0.2431,0.2313,0.2249,0.2177,0.1971,0.1843,0.1782,0.1757,0.1689,0.1588,0.1547,0.1412,0.1203,0.1151,0.0971,0.0668,0.0584,0.0418,0.0175,-0.0028,-0.014,-0.0336,-0.0533,-0.0701,-0.0813,-0.0869,-0.0897,-0.0926,-0.1038,-0.1178,-0.129,-0.1487,-0.1656,-0.1769,-0.1797,-0.1797,-0.1797,-0.1797,-0.1797,-0.1797,-0.1797,-0.1852,-0.1933,-0.1987,-0.2156,-0.2382,-0.2579,-0.2635,-0.2663,-0.2691,-0.2777,-0.2886,-0.2996,-0.3077,-0.3077,-0.336,-0.353,-0.361,-0.3747,-0.3996,-0.4107,-0.4356,-0.4629,-0.4877,-0.5179,-0.5458,-0.5686,-0.5818,-0.595,-0.6032,-0.6114,-0.6168,-0.6191,-0.6186,-0.6081,-0.599,-0.5947,-0.5987,-0.5993,-0.5923,-0.6008,-0.6195,-0.6278,-0.6377,-0.6523,-0.6728,-0.6974,-0.7206,-0.7532,-0.7913,0.3274,0.354,0.3496,0.3631,0.3812,0.3901,0.3979,0.4126,0.3996,0.3838,0.3647,0.3538,0.3317,0.3022,0.3022,0.2943,0.2746,0.2707,0.2668,0.251,0.251,0.251,0.251,0.251,0.251,0.247,0.247,0.2423,0.2405,0.2289,0.2238,0.2142,0.1985,0.1902,0.1827,0.1717,0.158,0.1511,0.1503,0.135,0.1133,0.1019,0.0863,0.0592,0.0229,0.0,-0.0112,-0.0336,-0.0477,-0.0561,-0.0757,-0.0841,-0.0898,-0.1038,-0.115,-0.1318,-0.1487,-0.1656,-0.1769,-0.1797,-0.1797,-0.1797,-0.1797,-0.1797,-0.1797,-0.1797,-0.1825,-0.1852,-0.1933,-0.2073,-0.224,-0.2437,-0.2521,-0.2549,-0.2635,-0.2719,-0.2775,-0.2858,-0.2914,-0.297,-0.3107,-0.3218,-0.3218,-0.3413,-0.3608,-0.3749,-0.3968,-0.4242,-0.4515,-0.4818,-0.5101,-0.538,-0.5603,-0.5732,-0.5868,-0.5978,-0.6119,-0.6173,-0.62,-0.6196,-0.6077,-0.605,-0.607,-0.5997,-0.5907,-0.6075,-0.6361,-0.6434,-0.6477,-0.6694,-0.6852,-0.7054,-0.7263,-0.7578,-0.7815,0.354,0.3721,0.3721,0.3901,0.4078,0.4078,0.4168,0.4275,0.4161,0.399,0.3845,0.3722,0.3568,0.3295,0.3255,0.3139,0.2824,0.2707,0.2627,0.251,0.251,0.251,0.251,0.251,0.251,0.251,0.251,0.251,0.2499,0.2476,0.2397,0.2338,0.2206,0.2119,0.2059,0.1932,0.185,0.1748,0.1748,0.1634,0.1449,0.1394,0.116,0.0924,0.055,0.0343,0.0197,-0.0084,-0.0196,-0.028,-0.0505,-0.0729,-0.0841,-0.101,-0.115,-0.1318,-0.1487,-0.1656,-0.1769,-0.1797,-0.1797,-0.1797,-0.1797,-0.1797,-0.1797,-0.1797,-0.1797,-0.1825,-0.188,-0.1961,-0.21,-0.224,-0.2352,-0.241,-0.2521,-0.2607,-0.2635,-0.2719,-0.2805,-0.2833,-0.2942,-0.2998,-0.3081,-0.319,-0.3274,-0.3413,-0.3666,-0.3913,-0.4156,-0.4432,-0.4739,-0.5018,-0.5297,-0.5517,-0.565,-0.5841,-0.6059,-0.6146,-0.62,-0.62,-0.6152,-0.6139,-0.6144,-0.6085,-0.6065,-0.6262,-0.6488,-0.6555,-0.6613,-0.6776,-0.694,-0.709,-0.723,-0.7419,-0.766,0.3765,0.3946,0.3946,0.4078,0.4297,0.43,0.4289,0.4263,0.4189,0.4081,0.4008,0.3918,0.3736,0.3577,0.3526,0.3292,0.2981,0.2707,0.2668,0.2588,0.2588,0.2549,0.251,0.251,0.251,0.251,0.251,0.251,0.251,0.2506,0.2466,0.2418,0.2336,0.2233,0.221,0.2199,0.2099,0.1955,0.1951,0.1883,0.1706,0.1674,0.1423,0.1145,0.0883,0.0693,0.048,0.0224,0.0056,0.0,-0.0224,-0.0421,-0.0617,-0.0897,-0.1122,-0.1262,-0.1431,-0.16,-0.1713,-0.1769,-0.1797,-0.1797,-0.1797,-0.1797,-0.1797,-0.1797,-0.1797,-0.1797,-0.1824,-0.185,-0.1961,-0.2099,-0.2156,-0.2212,-0.2352,-0.2437,-0.2465,-0.2579,-0.2607,-0.2719,-0.2802,-0.2858,-0.2886,-0.2968,-0.3023,-0.3105,-0.336,-0.3583,-0.3827,-0.4073,-0.4353,-0.4656,-0.4936,-0.527,-0.543,-0.5736,-0.5955,-0.6059,-0.6146,-0.6173,-0.6173,-0.619,-0.6196,-0.6252,-0.6304,-0.6431,-0.6496,-0.6518,-0.6624,-0.6825,-0.6933,-0.7014,-0.7122,-0.7263,-0.7478,0.3989,0.4255,0.421,0.4255,0.4297,0.4297,0.4261,0.4185,0.4106,0.401,0.392,0.3828,0.3785,0.3765,0.3763,0.3606,0.3294,0.3059,0.2863,0.2785,0.2746,0.2668,0.2588,0.2588,0.2549,0.251,0.2549,0.2549,0.251,0.2507,0.2481,0.2431,0.2407,0.2352,0.2244,0.2194,0.2199,0.21,0.2123,0.2085,0.2013,0.1899,0.1687,0.1385,0.117,0.0961,0.0793,0.0505,0.028,0.0168,0.0028,-0.014,-0.0308,-0.0589,-0.0869,-0.1122,-0.129,-0.1459,-0.1628,-0.1741,-0.1797,-0.1797,-0.1797,-0.1797,-0.1797,-0.1797,-0.1797,-0.1797,-0.1797,-0.1824,-0.1825,-0.1962,-0.2015,-0.2071,-0.2156,-0.2268,-0.2268,-0.2324,-0.2437,-0.2579,-0.2663,-0.2747,-0.2775,-0.283,-0.2858,-0.294,-0.3081,-0.3307,-0.3527,-0.3747,-0.3996,-0.4273,-0.4574,-0.4936,-0.5242,-0.5572,-0.585,-0.595,-0.6032,-0.6114,-0.6119,-0.6173,-0.6228,-0.6255,-0.6277,-0.6312,-0.6372,-0.644,-0.6549,-0.6685,-0.6793,-0.6901,-0.7014,-0.7095,-0.7236,0.4166,0.4297,0.4297,0.4297,0.4297,0.4297,0.4251,0.4208,0.4033,0.3985,0.3893,0.3847,0.3802,0.3802,0.3802,0.3684,0.3487,0.3217,0.3061,0.2982,0.2943,0.2904,0.2785,0.2824,0.2824,0.2824,0.2824,0.2668,0.2549,0.251,0.2492,0.2429,0.2439,0.2388,0.2295,0.2237,0.2202,0.2199,0.2206,0.2188,0.2188,0.2085,0.1904,0.165,0.1471,0.1307,0.1127,0.0818,0.0645,0.0533,0.0336,0.0112,-0.0084,-0.028,-0.0533,-0.0897,-0.1122,-0.1318,-0.1543,-0.1684,-0.1713,-0.1797,-0.1797,-0.1797,-0.1797,-0.1797,-0.1797,-0.1797,-0.1797,-0.1797,-0.1797,-0.188,-0.1878,-0.1933,-0.2017,-0.2073,-0.2099,-0.2156,-0.2268,-0.2437,-0.2521,-0.2607,-0.2691,-0.2719,-0.2747,-0.2777,-0.286,-0.3028,-0.3251,-0.3471,-0.3694,-0.3968,-0.4298,-0.4684,-0.5018,-0.5297,-0.5631,-0.5791,-0.5896,-0.595,-0.6087,-0.6119,-0.6173,-0.62,-0.6228,-0.6255,-0.6255,-0.6309,-0.6413,-0.6522,-0.6603,-0.6685,-0.682,-0.6928,-0.7095,0.4297,0.4297,0.4297,0.4297,0.4297,0.4279,0.4222,0.4138,0.4002,0.3911,0.3869,0.3839,0.3802,0.3802,0.3802,0.3724,0.3565,0.3335,0.3256,0.3176,0.3176,0.3178,0.31,0.31,0.3061,0.3022,0.3061,0.2943,0.2746,0.2668,0.2627,0.2572,0.2533,0.2428,0.2395,0.2296,0.2248,0.2197,0.2202,0.2206,0.219,0.2185,0.2092,0.1873,0.1794,0.1621,0.1413,0.1152,0.0962,0.0816,0.0617,0.0364,0.0112,0.0028,-0.0224,-0.0673,-0.0926,-0.1206,-0.1403,-0.16,-0.1656,-0.1741,-0.1797,-0.1797,-0.1797,-0.1797,-0.1797,-0.1797,-0.1797,-0.1797,-0.1797,-0.1797,-0.1797,-0.1825,-0.1906,-0.1961,-0.1989,-0.2017,-0.2073,-0.2214,-0.2326,-0.2465,-0.2551,-0.2635,-0.2635,-0.2719,-0.2805,-0.286,-0.3056,-0.3221,-0.3444,-0.3722,-0.4052,-0.4463,-0.4794,-0.4991,-0.5297,-0.5576,-0.5654,-0.5732,-0.59,-0.6064,-0.6091,-0.6119,-0.62,-0.62,-0.62,-0.62,-0.6309,-0.6364,-0.6386,-0.6468,-0.6603,-0.6761,-0.6928,0.4297,0.4297,0.4297,0.4297,0.4287,0.4224,0.4136,0.405,0.3963,0.3865,0.3831,0.3812,0.3802,0.3802,0.3802,0.3802,0.3724,0.3684,0.3567,0.3448,0.3448,0.3333,0.318,0.31,0.318,0.3219,0.3178,0.31,0.3022,0.3022,0.2904,0.2781,0.2733,0.267,0.2506,0.2428,0.231,0.2229,0.2201,0.2203,0.2197,0.2188,0.2121,0.2049,0.1887,0.1753,0.1648,0.144,0.1214,0.096,0.0898,0.0673,0.0393,0.0112,0.0,-0.0252,-0.0589,-0.0982,-0.1178,-0.1403,-0.1543,-0.1628,-0.1713,-0.1769,-0.1797,-0.1797,-0.1797,-0.1797,-0.1797,-0.1797,-0.1797,-0.1797,-0.1797,-0.1797,-0.1825,-0.1852,-0.1852,-0.1906,-0.1962,-0.199,-0.213,-0.227,-0.241,-0.2493,-0.2549,-0.2635,-0.2721,-0.2779,-0.286,-0.3026,-0.3193,-0.3469,-0.3777,-0.4159,-0.4487,-0.4684,-0.4967,-0.5301,-0.5462,-0.554,-0.5709,-0.5873,-0.5978,-0.6032,-0.6091,-0.6146,-0.6146,-0.6173,-0.6205,-0.6255,-0.6305,-0.6359,-0.644,-0.6571,-0.6734,0.4433,0.4297,0.4297,0.4297,0.4287,0.4208,0.4122,0.3986,0.3938,0.3846,0.3814,0.3802,0.3802,0.3802,0.3802,0.3802,0.3802,0.3802,0.3763,0.3684,0.3645,0.3569,0.353,0.3489,0.3491,0.3491,0.3493,0.353,0.3415,0.3219,0.3022,0.3022,0.2982,0.293,0.2732,0.2626,0.2558,0.2406,0.2301,0.2215,0.2195,0.2185,0.2174,0.2179,0.2017,0.1939,0.1862,0.1703,0.1528,0.1323,0.1194,0.0926,0.0673,0.0393,0.0168,-0.0056,-0.0393,-0.0729,-0.0982,-0.1178,-0.1318,-0.1459,-0.1572,-0.1713,-0.1769,-0.1797,-0.1797,-0.1797,-0.1797,-0.1797,-0.1797,-0.1797,-0.1797,-0.1798,-0.1805,-0.1809,-0.1808,-0.1798,-0.1852,-0.1852,-0.1912,-0.2095,-0.2244,-0.2297,-0.2375,-0.2523,-0.2587,-0.2653,-0.2759,-0.2888,-0.3054,-0.3246,-0.3524,-0.3858,-0.4132,-0.4353,-0.4636,-0.4971,-0.527,-0.538,-0.5517,-0.5654,-0.5759,-0.5873,-0.5932,-0.5987,-0.6064,-0.6146,-0.6173,-0.6228,-0.6255,-0.6277,-0.6332,-0.6408,-0.6571,0.4659,0.4476,0.4344,0.4297,0.4287,0.4185,0.4099,0.3986,0.391,0.3866,0.3818,0.3802,0.3802,0.3802,0.3802,0.3802,0.3802,0.3802,0.3802,0.3802,0.3802,0.3802,0.3763,0.3763,0.3763,0.3802,0.3765,0.3726,0.3647,0.3491,0.3295,0.3217,0.3217,0.3136,0.3046,0.2892,0.275,0.2577,0.2339,0.2217,0.2192,0.2188,0.2186,0.2172,0.2146,0.2111,0.2049,0.1909,0.1792,0.161,0.1397,0.1151,0.0926,0.0673,0.0393,0.0168,-0.0168,-0.0421,-0.0729,-0.0954,-0.1122,-0.1262,-0.1403,-0.1543,-0.1628,-0.1713,-0.1741,-0.1741,-0.1769,-0.1797,-0.1797,-0.1797,-0.1809,-0.1817,-0.1826,-0.183,-0.1837,-0.1847,-0.186,-0.1903,-0.1935,-0.195,-0.2067,-0.2111,-0.2204,-0.2366,-0.2479,-0.2529,-0.2683,-0.2803,-0.2991,-0.3153,-0.3333,-0.3605,-0.384,-0.411,-0.4374,-0.4622,-0.4954,-0.5156,-0.5238,-0.5407,-0.5572,-0.5658,-0.5713,-0.585,-0.5955,-0.6064,-0.6173,-0.62,-0.6228,-0.62,-0.6255,-0.6332,-0.6408,0.4966,0.4921,0.4476,0.4342,0.4285,0.4118,0.4002,0.3978,0.3852,0.3816,0.3804,0.3802,0.3802,0.3802,0.3802,0.3802,0.3802,0.3802,0.3802,0.3802,0.3802,0.3802,0.3802,0.3802,0.3802,0.3802,0.3802,0.3802,0.3802,0.3724,0.3567,0.3487,0.345,0.3333,0.3209,0.3105,0.2877,0.2668,0.2397,0.2233,0.2201,0.2188,0.2188,0.2188,0.2179,0.2156,0.2098,0.2001,0.1882,0.1754,0.1584,0.1405,0.1152,0.0898,0.0645,0.0421,0.0056,-0.0196,-0.0449,-0.0813,-0.1066,-0.115,-0.1234,-0.1347,-0.1431,-0.1543,-0.16,-0.1602,-0.1664,-0.1753,-0.1777,-0.1804,-0.1815,-0.1862,-0.1882,-0.1922,-0.1937,-0.1957,-0.1969,-0.1986,-0.1976,-0.1982,-0.1977,-0.2055,-0.2122,-0.2266,-0.2392,-0.2472,-0.2656,-0.2819,-0.2985,-0.3121,-0.319,-0.34,-0.3643,-0.388,-0.4119,-0.4317,-0.4587,-0.4772,-0.4904,-0.5097,-0.5297,-0.5434,-0.5517,-0.5681,-0.5818,-0.59,-0.6005,-0.6146,-0.6173,-0.6173,-0.62,-0.6277,-0.6332,0.5235,0.5191,0.4877,0.4654,0.451,0.4152,0.3992,0.3964,0.3884,0.3802,0.3802,0.3802,0.3802,0.3802,0.3802,0.3802,0.3802,0.3802,0.3802,0.3802,0.3802,0.3802,0.3802,0.3802,0.3802,0.3802,0.3802,0.3802,0.3802,0.3802,0.3763,0.3684,0.3684,0.3645,0.3521,0.3332,0.3016,0.2712,0.2487,0.2385,0.22,0.2188,0.2188,0.2188,0.2188,0.2178,0.2146,0.2092,0.2,0.1881,0.1737,0.1583,0.1384,0.1098,0.0872,0.0647,0.0281,0.0,-0.0225,-0.059,-0.0926,-0.1094,-0.115,-0.1207,-0.1266,-0.1376,-0.1403,-0.1438,-0.1518,-0.159,-0.171,-0.1736,-0.177,-0.1902,-0.1944,-0.1955,-0.2005,-0.2026,-0.2028,-0.2035,-0.2015,-0.199,-0.1991,-0.2025,-0.2093,-0.2191,-0.2295,-0.2406,-0.2597,-0.2805,-0.2968,-0.3097,-0.3163,-0.3199,-0.3459,-0.3664,-0.3846,-0.4042,-0.4254,-0.4417,-0.4608,-0.477,-0.4967,-0.5105,-0.5293,-0.543,-0.5567,-0.57,-0.5814,-0.5955,-0.6064,-0.6087,-0.6141,-0.6232,-0.6288,0.5403,0.5359,0.5049,0.4807,0.4592,0.427,0.406,0.3969,0.383,0.3802,0.3802,0.3802,0.3802,0.3802,0.3802,0.3802,0.3802,0.3802,0.3802,0.3802,0.3802,0.3802,0.3802,0.3802,0.3802,0.3802,0.3802,0.3802,0.3802,0.3802,0.3802,0.3802,0.3802,0.3802,0.3711,0.355,0.321,0.2912,0.2657,0.2518,0.2326,0.223,0.2188,0.2188,0.2188,0.2186,0.2165,0.2121,0.2076,0.1995,0.1884,0.1767,0.1529,0.1281,0.1024,0.0768,0.0484,0.0114,-0.0086,-0.0424,-0.0787,-0.0982,-0.1038,-0.11,-0.1163,-0.1225,-0.1292,-0.1282,-0.1362,-0.1465,-0.1615,-0.1607,-0.1696,-0.18,-0.1871,-0.1916,-0.2038,-0.2092,-0.2085,-0.2081,-0.2067,-0.2071,-0.2074,-0.208,-0.2084,-0.2187,-0.2245,-0.2365,-0.2535,-0.2738,-0.2921,-0.3017,-0.3109,-0.317,-0.3252,-0.3454,-0.3643,-0.3797,-0.3998,-0.4143,-0.4301,-0.447,-0.4653,-0.4798,-0.4987,-0.5152,-0.5289,-0.5399,-0.5599,-0.5795,-0.5873,-0.5978,-0.6101,-0.6174,-0.629,0.5388,0.5332,0.4885,0.4645,0.4493,0.4449,0.419,0.391,0.381,0.3802,0.3802,0.3802,0.3802,0.3802,0.3802,0.3802,0.3802,0.3802,0.3802,0.3802,0.3802,0.3802,0.3802,0.3802,0.3802,0.3802,0.3802,0.3802,0.3802,0.3802,0.3802,0.3802,0.3802,0.3802,0.3802,0.3602,0.3442,0.3327,0.2868,0.2657,0.251,0.2322,0.2204,0.2188,0.2188,0.2188,0.2174,0.2143,0.2103,0.2071,0.203,0.1884,0.1716,0.1502,0.1236,0.0942,0.0618,0.0298,0.0,-0.0435,-0.0741,-0.0911,-0.0976,-0.098,-0.0995,-0.1091,-0.1187,-0.1174,-0.1289,-0.1357,-0.142,-0.1458,-0.158,-0.1725,-0.1798,-0.184,-0.1963,-0.2075,-0.2065,-0.206,-0.2156,-0.2179,-0.2177,-0.217,-0.2138,-0.2181,-0.2229,-0.2343,-0.2476,-0.2612,-0.2792,-0.2983,-0.3075,-0.316,-0.3228,-0.3286,-0.3443,-0.3578,-0.3757,-0.392,-0.4086,-0.4224,-0.4383,-0.4528,-0.4708,-0.4904,-0.5014,-0.5128,-0.5352,-0.5572,-0.5736,-0.5854,-0.6009,-0.6128,-0.6234,0.5199,0.5157,0.4826,0.4557,0.4357,0.4162,0.4005,0.3887,0.3847,0.3802,0.3802,0.3802,0.3802,0.3802,0.3802,0.3802,0.3802,0.3802,0.3802,0.3802,0.3802,0.3802,0.3802,0.3802,0.3802,0.3802,0.3802,0.3802,0.3802,0.3802,0.3802,0.3802,0.3802,0.3802,0.3802,0.3679,0.3643,0.3379,0.3062,0.2785,0.2603,0.2361,0.2228,0.2227,0.2224,0.2221,0.2188,0.2156,0.2136,0.2109,0.2069,0.2004,0.1865,0.17,0.1488,0.1246,0.0973,0.0519,0.0092,-0.0362,-0.069,-0.0838,-0.0954,-0.0957,-0.1002,-0.1034,-0.1073,-0.1085,-0.1137,-0.1237,-0.1304,-0.133,-0.145,-0.1618,-0.1691,-0.1659,-0.177,-0.1907,-0.1971,-0.2002,-0.2084,-0.2153,-0.2153,-0.2188,-0.2165,-0.216,-0.2209,-0.2278,-0.2404,-0.2477,-0.2603,-0.2869,-0.3033,-0.3133,-0.3189,-0.3263,-0.3296,-0.3421,-0.3595,-0.375,-0.3895,-0.402,-0.4238,-0.4403,-0.4541,-0.4684,-0.4884,-0.5057,-0.5187,-0.5375,-0.5599,-0.5813,-0.5981,-0.6109,-0.6185,0.4958,0.4915,0.4635,0.4394,0.4221,0.4085,0.4004,0.3886,0.3828,0.3802,0.3802,0.3802,0.3802,0.3802,0.3802,0.3802,0.3802,0.3802,0.3802,0.3802,0.3802,0.3802,0.3802,0.3802,0.3802,0.3802,0.3802,0.3802,0.3802,0.3802,0.3802,0.3802,0.3802,0.3802,0.3802,0.3754,0.374,0.3528,0.3262,0.3096,0.2858,0.2622,0.2397,0.2362,0.2306,0.2255,0.2221,0.2181,0.217,0.2169,0.2117,0.2096,0.1992,0.1878,0.1691,0.1473,0.1111,0.0637,0.0096,-0.0128,-0.0478,-0.086,-0.0972,-0.0995,-0.1001,-0.1004,-0.1045,-0.1056,-0.1037,-0.1107,-0.1213,-0.124,-0.1307,-0.1478,-0.1511,-0.1511,-0.1613,-0.1748,-0.1782,-0.1849,-0.1918,-0.1985,-0.2119,-0.2188,-0.2181,-0.2182,-0.2185,-0.2288,-0.2322,-0.2389,-0.2458,-0.2691,-0.2924,-0.305,-0.3149,-0.3245,-0.3247,-0.3275,-0.3409,-0.3606,-0.3707,-0.3845,-0.4074,-0.4284,-0.4429,-0.46,-0.4814,-0.499,-0.5222,-0.5418,-0.5588,-0.5797,-0.5966,-0.6085,-0.6189,0.4704,0.4623,0.4233,0.4086,0.4097,0.417,0.4077,0.3806,0.3806,0.3802,0.3802,0.3802,0.3802,0.3802,0.3802,0.3802,0.3802,0.3802,0.3802,0.3802,0.3802,0.3802,0.3802,0.3802,0.3802,0.3802,0.3802,0.3802,0.3802,0.3802,0.3802,0.3802,0.3802,0.3802,0.3802,0.38,0.3754,0.3647,0.3496,0.3332,0.3157,0.293,0.269,0.2575,0.2503,0.237,0.2294,0.2252,0.2217,0.2211,0.2178,0.2146,0.2052,0.1937,0.1742,0.1461,0.1094,0.0632,0.02,0.0033,-0.0267,-0.066,-0.0896,-0.0955,-0.1024,-0.1034,-0.1042,-0.1052,-0.1097,-0.1101,-0.1109,-0.1142,-0.1176,-0.1244,-0.1311,-0.1378,-0.1512,-0.158,-0.1614,-0.1614,-0.1648,-0.1748,-0.1951,-0.2018,-0.2119,-0.2188,-0.2188,-0.2221,-0.2255,-0.2322,-0.2356,-0.2458,-0.2723,-0.2922,-0.3058,-0.3159,-0.3218,-0.3212,-0.3321,-0.3464,-0.3575,-0.3675,-0.3885,-0.4077,-0.4275,-0.4494,-0.4772,-0.5059,-0.5327,-0.5498,-0.5671,-0.5842,-0.6062,-0.6185,-0.629,0.4387,0.4233,0.3999,0.3882,0.3884,0.3907,0.3862,0.3804,0.3802,0.3802,0.3802,0.3802,0.3802,0.3802,0.3802,0.3802,0.3802,0.3802,0.3802,0.3802,0.3841,0.3802,0.3841,0.3841,0.3802,0.3802,0.3802,0.3802,0.3802,0.3802,0.3802,0.3802,0.3802,0.3802,0.3802,0.3802,0.3802,0.3756,0.361,0.35,0.3385,0.3122,0.2937,0.2796,0.2714,0.2573,0.2406,0.2359,0.2323,0.2221,0.2188,0.217,0.2167,0.2094,0.1961,0.1562,0.1206,0.084,0.0404,0.0135,-0.0135,-0.0438,-0.0694,-0.0926,-0.1029,-0.1062,-0.1065,-0.1105,-0.1109,-0.1109,-0.1109,-0.1109,-0.1143,-0.1143,-0.1176,-0.1244,-0.1344,-0.1378,-0.1412,-0.1445,-0.1445,-0.1614,-0.1782,-0.1918,-0.2018,-0.2119,-0.2188,-0.2188,-0.2221,-0.2255,-0.2288,-0.2356,-0.249,-0.2723,-0.2922,-0.3025,-0.3125,-0.3188,-0.3291,-0.3355,-0.3449,-0.3559,-0.3732,-0.3943,-0.4217,-0.4529,-0.4796,-0.5076,-0.5329,-0.5619,-0.5825,-0.5973,-0.6135,-0.6262,-0.6345,0.427,0.4079,0.3882,0.3802,0.3802,0.3802,0.3802,0.3802,0.3802,0.3802,0.3802,0.3802,0.3802,0.3802,0.3802,0.3802,0.3802,0.3802,0.3802,0.3841,0.3882,0.3921,0.3921,0.3921,0.3921,0.3882,0.3841,0.3802,0.3802,0.3802,0.3802,0.3802,0.3802,0.3802,0.3802,0.3802,0.3802,0.3763,0.3673,0.3612,0.3463,0.3347,0.3183,0.3042,0.2954,0.2776,0.2597,0.2547,0.2423,0.2322,0.2288,0.2255,0.2186,0.2119,0.2017,0.1679,0.1377,0.1076,0.074,0.0404,0.0101,-0.0169,-0.0438,-0.0706,-0.0906,-0.1039,-0.1073,-0.1109,-0.1109,-0.1109,-0.1109,-0.1109,-0.1109,-0.1109,-0.1109,-0.1109,-0.1143,-0.121,-0.121,-0.1244,-0.1344,-0.1479,-0.1648,-0.1782,-0.1918,-0.2018,-0.2119,-0.2188,-0.2188,-0.2221,-0.2221,-0.2288,-0.2389,-0.2523,-0.2723,-0.2889,-0.3025,-0.3092,-0.3192,-0.3288,-0.3349,-0.3493,-0.3666,-0.3931,-0.4213,-0.4476,-0.4703,-0.5047,-0.5319,-0.5608,-0.5911,-0.6109,-0.6217,-0.6294,-0.6367,0.4258,0.4025,0.3878,0.3802,0.3802,0.3802,0.3802,0.3802,0.3802,0.3802,0.3802,0.3802,0.3802,0.3802,0.3802,0.3802,0.3802,0.3802,0.3841,0.3841,0.396,0.4077,0.4116,0.4118,0.4038,0.3999,0.3921,0.3802,0.3802,0.3802,0.3802,0.3802,0.3802,0.3802,0.3802,0.3802,0.3802,0.3802,0.3802,0.375,0.3736,0.3651,0.3557,0.3369,0.3232,0.3052,0.2847,0.2739,0.2621,0.2488,0.2423,0.2389,0.2221,0.2085,0.1985,0.1816,0.158,0.1277,0.1009,0.0707,0.0371,0.0101,-0.0169,-0.0404,-0.064,-0.0909,-0.0976,-0.1076,-0.1109,-0.1109,-0.1109,-0.1109,-0.1109,-0.1109,-0.1109,-0.1109,-0.1109,-0.1143,-0.1143,-0.1176,-0.1244,-0.1344,-0.1445,-0.158,-0.1782,-0.1884,-0.2018,-0.2119,-0.2188,-0.2188,-0.2221,-0.2221,-0.2288,-0.2389,-0.249,-0.269,-0.2889,-0.2989,-0.3092,-0.3192,-0.3288,-0.3445,-0.3628,-0.3843,-0.4086,-0.4284,-0.453,-0.4921,-0.5311,-0.5556,-0.584,-0.6167,-0.6305,-0.6351,-0.6392,0.404,0.3743,0.3773,0.3802,0.3802,0.3802,0.3802,0.3802,0.3802,0.3802,0.3802,0.3802,0.3802,0.3802,0.3802,0.3802,0.3802,0.3841,0.3882,0.3999,0.4118,0.4233,0.427,0.4194,0.4116,0.4038,0.3921,0.3802,0.3802,0.3802,0.3802,0.3802,0.3802,0.3802,0.3802,0.3802,0.3802,0.3802,0.3802,0.3802,0.3791,0.3779,0.3667,0.3555,0.3408,0.3252,0.3093,0.2942,0.2803,0.2654,0.2619,0.252,0.2356,0.2221,0.2052,0.1918,0.1782,0.1513,0.1244,0.0975,0.0707,0.0337,0.0067,-0.0169,-0.0405,-0.0708,-0.0909,-0.1009,-0.1109,-0.1109,-0.1109,-0.1109,-0.1109,-0.1109,-0.1109,-0.1109,-0.1109,-0.1109,-0.1109,-0.1109,-0.1143,-0.121,-0.1311,-0.1445,-0.1614,-0.1748,-0.1884,-0.2018,-0.2119,-0.2188,-0.2188,-0.2221,-0.2221,-0.2288,-0.2389,-0.249,-0.269,-0.2889,-0.2989,-0.3092,-0.3192,-0.3353,-0.3511,-0.3716,-0.3919,-0.4124,-0.4464,-0.4977,-0.5301,-0.5516,-0.5777,-0.6071,-0.6251,-0.6301,-0.6375,0.3978,0.3727,0.3703,0.3765,0.3798,0.3802,0.3802,0.3802,0.3802,0.3802,0.3802,0.3802,0.3802,0.3802,0.3802,0.3802,0.3841,0.3882,0.396,0.4079,0.4272,0.4426,0.4426,0.4348,0.427,0.4194,0.3921,0.3802,0.3802,0.3802,0.3802,0.3802,0.3802,0.3802,0.3802,0.3802,0.3802,0.3802,0.3802,0.3802,0.3802,0.3793,0.3785,0.3669,0.3562,0.3439,0.3319,0.3195,0.3033,0.2868,0.2753,0.2653,0.252,0.2388,0.2255,0.2119,0.1951,0.1782,0.1479,0.121,0.1009,0.0673,0.0303,0.0067,-0.0169,-0.0438,-0.0708,-0.0841,-0.1076,-0.1109,-0.1109,-0.1109,-0.1109,-0.1109,-0.1109,-0.1109,-0.1109,-0.1109,-0.1109,-0.1109,-0.1109,-0.1143,-0.121,-0.1311,-0.1445,-0.1547,-0.1681,-0.1884,-0.2018,-0.2153,-0.2154,-0.2188,-0.2188,-0.2221,-0.2288,-0.2389,-0.249,-0.269,-0.2889,-0.3058,-0.3159,-0.3295,-0.3429,-0.3594,-0.3761,-0.3984,-0.4353,-0.4794,-0.5193,-0.5397,-0.5661,-0.5947,-0.6115,-0.6255,-0.6329,0.3993,0.3794,0.3653,0.3652,0.3765,0.3779,0.3781,0.3783,0.3798,0.3802,0.3802,0.3802,0.3802,0.3802,0.3802,0.3802,0.3882,0.3999,0.4079,0.4272,0.4504,0.4623,0.4621,0.4504,0.4348,0.4153,0.3958,0.3841,0.3802,0.3802,0.3802,0.3802,0.3802,0.3802,0.3802,0.3802,0.3802,0.3802,0.3802,0.3802,0.3802,0.3802,0.3798,0.3767,0.3675,0.3591,0.3509,0.3392,0.3269,0.3103,0.29,0.2787,0.2688,0.2555,0.2423,0.2288,0.2153,0.1985,0.1782,0.1479,0.1277,0.1008,0.0606,0.0303,0.0101,-0.0169,-0.0438,-0.0674,-0.0908,-0.1076,-0.1076,-0.1109,-0.1109,-0.1109,-0.1109,-0.1109,-0.1109,-0.1109,-0.1109,-0.1109,-0.1109,-0.1109,-0.1143,-0.121,-0.1277,-0.1378,-0.1513,-0.1715,-0.1918,-0.2018,-0.2085,-0.2153,-0.2188,-0.2221,-0.2221,-0.2288,-0.2389,-0.249,-0.269,-0.2924,-0.3125,-0.3192,-0.3261,-0.3429,-0.3598,-0.3799,-0.4066,-0.4464,-0.4827,-0.5193,-0.5491,-0.5752,-0.6017,-0.6189,-0.6312,0.4034,0.3785,0.3591,0.3538,0.3563,0.3622,0.3614,0.3667,0.3769,0.3802,0.3826,0.3798,0.3802,0.38,0.3802,0.3882,0.3999,0.4118,0.435,0.4584,0.4662,0.482,0.4781,0.4543,0.4229,0.3995,0.388,0.3841,0.3802,0.3802,0.3802,0.3802,0.3802,0.3802,0.3802,0.3802,0.3802,0.3802,0.3802,0.3802,0.3802,0.3802,0.3802,0.3765,0.3673,0.3632,0.3581,0.3516,0.343,0.3277,0.3103,0.2975,0.2864,0.2762,0.2622,0.249,0.2356,0.2153,0.1951,0.1782,0.158,0.1244,0.0908,0.0673,0.0404,0.0067,-0.0169,-0.0404,-0.064,-0.0909,-0.0975,-0.1076,-0.1109,-0.1109,-0.1109,-0.1109,-0.1109,-0.1109,-0.1109,-0.1109,-0.1109,-0.1109,-0.1109,-0.1176,-0.1176,-0.1277,-0.1344,-0.1547,-0.1782,-0.1884,-0.2018,-0.2085,-0.2154,-0.2188,-0.2188,-0.2221,-0.2288,-0.2389,-0.2523,-0.2758,-0.2924,-0.3025,-0.3125,-0.3261,-0.3429,-0.3629,-0.3897,-0.4164,-0.4498,-0.4864,-0.5226,-0.5524,-0.583,-0.6118,-0.6255]}]]